Wetterdaten: Sonntag, 22.10.2017
Datum Zeit Temp. A. Pool Temp. Feuchte A. Luftdruck Regen Wind Richtung Richtung Sonnenschein ET UV Solar Taupunkt Windchill Windben Empfang
22.10.2017 00:00 9,8 C 11,7 C 97 % 1014,6 hPa 0,0 l/m 3,3 km/h (1 Bft) N-NO 32 0 min 0,000 mm 0,0 UV-I 0 W/m 9,3 C 9,8 C 4,8 km/h (1 Bft) 97,37 %
22.10.2017 00:02 9,8 C 11,7 C 97 % 1014,7 hPa 0,0 l/m 3,1 km/h (1 Bft) O-NO 67 0 min 0,000 mm 0,0 UV-I 0 W/m 9,3 C 9,8 C 4,8 km/h (1 Bft) 10,53 %
22.10.2017 00:04 9,7 C 11,7 C 98 % 1014,7 hPa 0,0 l/m 1,6 km/h (1 Bft) O-NO 67 0 min 0,000 mm 0,0 UV-I 0 W/m 9,4 C 9,7 C 3,2 km/h (1 Bft) 88,89 %
22.10.2017 00:06 9,7 C 11,7 C 98 % 1014,6 hPa 0,0 l/m 1,4 km/h (1 Bft) O-NO 67 0 min 0,000 mm 0,0 UV-I 0 W/m 9,4 C 9,7 C 4,8 km/h (1 Bft) 97,56 %
22.10.2017 00:08 9,8 C 11,7 C 98 % 1014,6 hPa 0,0 l/m 4,9 km/h (1 Bft) O-NO 70 0 min 0,000 mm 0,0 UV-I 0 W/m 9,5 C 9,8 C 6,4 km/h (2 Bft) 98,11 %
22.10.2017 00:10 9,8 C 11,7 C 98 % 1014,5 hPa 0,0 l/m 5,7 km/h (1 Bft) O-NO 65 0 min 0,000 mm 0,0 UV-I 0 W/m 9,5 C 9,8 C 8,0 km/h (2 Bft) 93,62 %
22.10.2017 00:12 9,8 C 11,7 C 98 % 1014,5 hPa 0,0 l/m 4,7 km/h (1 Bft) O-NO 61 0 min 0,000 mm 0,0 UV-I 0 W/m 9,5 C 9,8 C 6,4 km/h (2 Bft) 97,56 %
22.10.2017 00:14 9,9 C 11,7 C 98 % 1014,5 hPa 0,0 l/m 4,0 km/h (1 Bft) O-NO 61 0 min 0,000 mm 0,0 UV-I 0 W/m 9,6 C 9,9 C 6,4 km/h (2 Bft) 98,00 %
22.10.2017 00:16 10,0 C 11,7 C 98 % 1014,5 hPa 0,0 l/m 3,0 km/h (1 Bft) O-NO 61 0 min 0,000 mm 0,0 UV-I 0 W/m 9,7 C 10,0 C 6,4 km/h (2 Bft) 97,87 %
22.10.2017 00:18 10,0 C 11,7 C 98 % 1014,5 hPa 0,0 l/m 2,5 km/h (1 Bft) O-NO 72 0 min 0,000 mm 0,0 UV-I 0 W/m 9,7 C 10,0 C 4,8 km/h (1 Bft) 95,74 %
22.10.2017 00:20 10,1 C 11,7 C 98 % 1014,6 hPa 0,0 l/m 5,3 km/h (1 Bft) O-NO 74 0 min 0,000 mm 0,0 UV-I 0 W/m 9,8 C 10,1 C 6,4 km/h (2 Bft) 100,00 %
22.10.2017 00:22 10,1 C 11,7 C 98 % 1014,6 hPa 0,0 l/m 4,8 km/h (1 Bft) O-NO 74 0 min 0,000 mm 0,0 UV-I 0 W/m 9,8 C 10,1 C 8,0 km/h (2 Bft) 97,78 %
22.10.2017 00:24 10,1 C 11,7 C 98 % 1014,6 hPa 0,0 l/m 6,3 km/h (2 Bft) O-NO 69 0 min 0,000 mm 0,0 UV-I 0 W/m 9,8 C 10,1 C 9,7 km/h (2 Bft) 98,00 %
22.10.2017 00:26 10,1 C 11,7 C 98 % 1014,5 hPa 0,0 l/m 6,6 km/h (2 Bft) NO 49 0 min 0,000 mm 0,0 UV-I 0 W/m 9,8 C 10,0 C 8,0 km/h (2 Bft) 95,74 %
22.10.2017 00:28 10,1 C 11,7 C 98 % 1014,5 hPa 0,0 l/m 7,1 km/h (2 Bft) NO 55 0 min 0,000 mm 0,0 UV-I 0 W/m 9,8 C 9,6 C 9,7 km/h (2 Bft) 100,00 %
22.10.2017 00:30 10,0 C 11,7 C 98 % 1014,5 hPa 0,0 l/m 5,4 km/h (1 Bft) O-NO 59 0 min 0,000 mm 0,0 UV-I 0 W/m 9,7 C 10,0 C 8,0 km/h (2 Bft) 97,56 %
22.10.2017 00:32 9,9 C 11,7 C 98 % 1014,6 hPa 0,0 l/m 5,4 km/h (1 Bft) NO 51 0 min 0,000 mm 0,0 UV-I 0 W/m 9,6 C 9,9 C 8,0 km/h (2 Bft) 95,74 %
22.10.2017 00:34 9,9 C 11,7 C 98 % 1014,6 hPa 0,0 l/m 5,1 km/h (1 Bft) NO 54 0 min 0,000 mm 0,0 UV-I 0 W/m 9,6 C 9,9 C 8,0 km/h (2 Bft) 96,43 %
22.10.2017 00:36 9,9 C 11,7 C 98 % 1014,6 hPa 0,0 l/m 5,2 km/h (1 Bft) O-NO 68 0 min 0,000 mm 0,0 UV-I 0 W/m 9,6 C 9,9 C 6,4 km/h (2 Bft) 97,56 %
22.10.2017 00:38 9,9 C 11,7 C 98 % 1014,6 hPa 0,0 l/m 5,8 km/h (2 Bft) O-NO 71 0 min 0,000 mm 0,0 UV-I 0 W/m 9,6 C 9,9 C 8,0 km/h (2 Bft) 96,00 %
22.10.2017 00:40 9,8 C 11,7 C 98 % 1014,5 hPa 0,0 l/m 6,0 km/h (2 Bft) O-NO 63 0 min 0,000 mm 0,0 UV-I 0 W/m 9,5 C 9,8 C 8,0 km/h (2 Bft) 97,56 %
22.10.2017 00:42 9,8 C 11,7 C 98 % 1014,5 hPa 0,0 l/m 5,5 km/h (1 Bft) O-NO 57 0 min 0,000 mm 0,0 UV-I 0 W/m 9,5 C 9,8 C 8,0 km/h (2 Bft) 94,00 %
22.10.2017 00:44 9,8 C 11,7 C 98 % 1014,5 hPa 0,0 l/m 4,4 km/h (1 Bft) O-NO 61 0 min 0,000 mm 0,0 UV-I 0 W/m 9,5 C 9,8 C 6,4 km/h (2 Bft) 98,00 %
22.10.2017 00:46 9,8 C 11,7 C 98 % 1014,5 hPa 0,0 l/m 4,2 km/h (1 Bft) NO 46 0 min 0,000 mm 0,0 UV-I 0 W/m 9,5 C 9,8 C 6,4 km/h (2 Bft) 96,00 %
22.10.2017 00:48 9,8 C 11,7 C 98 % 1014,6 hPa 0,0 l/m 3,8 km/h (1 Bft) NO 50 0 min 0,000 mm 0,0 UV-I 0 W/m 9,5 C 9,8 C 4,8 km/h (1 Bft) 97,87 %
22.10.2017 00:50 9,8 C 11,7 C 98 % 1014,6 hPa 0,0 l/m 5,5 km/h (1 Bft) O-NO 60 0 min 0,000 mm 0,0 UV-I 0 W/m 9,5 C 9,8 C 8,0 km/h (2 Bft) 97,56 %
22.10.2017 00:52 9,8 C 11,7 C 98 % 1014,6 hPa 0,0 l/m 5,2 km/h (1 Bft) NO 46 0 min 0,000 mm 0,0 UV-I 0 W/m 9,5 C 9,8 C 6,4 km/h (2 Bft) 97,56 %
22.10.2017 00:54 9,8 C 11,7 C 98 % 1014,7 hPa 0,0 l/m 5,2 km/h (1 Bft) O-NO 58 0 min 0,000 mm 0,0 UV-I 0 W/m 9,5 C 9,8 C 8,0 km/h (2 Bft) 97,87 %
22.10.2017 00:56 9,9 C 11,7 C 98 % 1014,7 hPa 0,0 l/m 4,9 km/h (1 Bft) NO 46 0 min 0,000 mm 0,0 UV-I 0 W/m 9,6 C 9,9 C 6,4 km/h (2 Bft) 96,23 %
22.10.2017 00:58 9,9 C 11,7 C 98 % 1014,7 hPa 0,0 l/m 4,2 km/h (1 Bft) O-NO 59 0 min 0,000 mm 0,0 UV-I 0 W/m 9,6 C 9,9 C 6,4 km/h (2 Bft) 97,87 %
22.10.2017 01:00 9,9 C 11,7 C 98 % 1014,6 hPa 0,0 l/m 3,2 km/h (1 Bft) O-NO 59 0 min 0,000 mm 0,0 UV-I 0 W/m 9,6 C 9,9 C 4,8 km/h (1 Bft) 98,00 %
22.10.2017 01:02 9,9 C 11,7 C 98 % 1014,6 hPa 0,0 l/m 3,0 km/h (1 Bft) O-NO 59 0 min 0,000 mm 0,0 UV-I 0 W/m 9,6 C 9,9 C 4,8 km/h (1 Bft) 96,30 %
22.10.2017 01:04 9,9 C 11,7 C 98 % 1014,6 hPa 0,0 l/m 2,8 km/h (1 Bft) O-NO 59 0 min 0,000 mm 0,0 UV-I 0 W/m 9,6 C 9,9 C 3,2 km/h (1 Bft) 98,44 %
22.10.2017 01:06 9,9 C 11,7 C 98 % 1014,6 hPa 0,0 l/m 4,2 km/h (1 Bft) O-NO 59 0 min 0,000 mm 0,0 UV-I 0 W/m 9,6 C 9,9 C 6,4 km/h (2 Bft) 97,62 %
22.10.2017 01:08 9,9 C 11,7 C 98 % 1014,6 hPa 0,0 l/m 4,3 km/h (1 Bft) O-NO 59 0 min 0,000 mm 0,0 UV-I 0 W/m 9,6 C 9,9 C 6,4 km/h (2 Bft) 98,00 %
22.10.2017 01:10 9,9 C 11,7 C 98 % 1014,5 hPa 0,0 l/m 4,6 km/h (1 Bft) O-NO 59 0 min 0,000 mm 0,0 UV-I 0 W/m 9,6 C 9,9 C 6,4 km/h (2 Bft) 98,11 %
22.10.2017 01:12 9,9 C 11,7 C 98 % 1014,5 hPa 0,0 l/m 4,2 km/h (1 Bft) O-NO 65 0 min 0,000 mm 0,0 UV-I 0 W/m 9,6 C 9,9 C 4,8 km/h (1 Bft) 95,74 %
22.10.2017 01:14 9,9 C 11,7 C 98 % 1014,5 hPa 0,0 l/m 3,8 km/h (1 Bft) O-NO 59 0 min 0,000 mm 0,0 UV-I 0 W/m 9,6 C 9,9 C 6,4 km/h (2 Bft) 97,56 %
22.10.2017 01:16 9,9 C 11,7 C 98 % 1014,5 hPa 0,0 l/m 3,0 km/h (1 Bft) O-NO 59 0 min 0,000 mm 0,0 UV-I 0 W/m 9,6 C 9,9 C 4,8 km/h (1 Bft) 97,56 %
22.10.2017 01:18 9,8 C 11,7 C 98 % 1014,5 hPa 0,0 l/m 3,1 km/h (1 Bft) O-NO 59 0 min 0,000 mm 0,0 UV-I 0 W/m 9,5 C 9,8 C 4,8 km/h (1 Bft) 97,87 %
22.10.2017 01:20 9,8 C 11,7 C 98 % 1014,5 hPa 0,0 l/m 4,4 km/h (1 Bft) O-NO 65 0 min 0,000 mm 0,0 UV-I 0 W/m 9,5 C 9,8 C 6,4 km/h (2 Bft) 96,43 %
22.10.2017 01:22 9,8 C 11,7 C 98 % 1014,4 hPa 0,0 l/m 4,2 km/h (1 Bft) O-NO 65 0 min 0,000 mm 0,0 UV-I 0 W/m 9,5 C 9,8 C 6,4 km/h (2 Bft) 92,11 %
22.10.2017 01:24 9,8 C 11,7 C 98 % 1014,4 hPa 0,0 l/m 6,2 km/h (2 Bft) O-NO 63 0 min 0,000 mm 0,0 UV-I 0 W/m 9,5 C 9,8 C 8,0 km/h (2 Bft) 98,00 %
22.10.2017 01:26 9,9 C 11,7 C 98 % 1014,4 hPa 0,0 l/m 5,6 km/h (1 Bft) O-NO 71 0 min 0,000 mm 0,0 UV-I 0 W/m 9,6 C 9,9 C 8,0 km/h (2 Bft) 97,87 %
22.10.2017 01:28 9,9 C 11,7 C 98 % 1014,3 hPa 0,0 l/m 6,3 km/h (2 Bft) O 80 0 min 0,000 mm 0,0 UV-I 0 W/m 9,6 C 9,9 C 11,3 km/h (2 Bft) 98,11 %
22.10.2017 01:30 10,0 C 11,7 C 98 % 1014,4 hPa 0,0 l/m 5,5 km/h (1 Bft) O 86 0 min 0,000 mm 0,0 UV-I 0 W/m 9,7 C 10,0 C 8,0 km/h (2 Bft) 97,56 %
22.10.2017 01:32 10,1 C 11,7 C 98 % 1014,4 hPa 0,0 l/m 5,0 km/h (1 Bft) O 80 0 min 0,000 mm 0,0 UV-I 0 W/m 9,8 C 10,1 C 11,3 km/h (2 Bft) 100,00 %
22.10.2017 01:34 10,2 C 11,7 C 98 % 1014,4 hPa 0,0 l/m 3,3 km/h (1 Bft) O 80 0 min 0,000 mm 0,0 UV-I 0 W/m 9,9 C 10,2 C 4,8 km/h (1 Bft) 100,00 %
22.10.2017 01:36 10,3 C 11,7 C 98 % 1014,4 hPa 0,0 l/m 4,2 km/h (1 Bft) O-NO 74 0 min 0,000 mm 0,0 UV-I 0 W/m 10,0 C 10,3 C 6,4 km/h (2 Bft) 100,00 %
22.10.2017 01:38 10,3 C 11,7 C 98 % 1014,3 hPa 0,0 l/m 2,5 km/h (1 Bft) O 82 0 min 0,000 mm 0,0 UV-I 0 W/m 10,0 C 10,3 C 6,4 km/h (2 Bft) 97,87 %
22.10.2017 01:40 10,3 C 11,7 C 98 % 1014,3 hPa 0,0 l/m 1,0 km/h (0 Bft) O 82 0 min 0,000 mm 0,0 UV-I 0 W/m 10,0 C 10,3 C 3,2 km/h (1 Bft) 100,00 %
22.10.2017 01:42 10,3 C 11,7 C 98 % 1014,4 hPa 0,0 l/m 0,0 km/h (0 Bft) O 82 0 min 0,000 mm 0,0 UV-I 0 W/m 10,0 C 10,3 C 0,0 km/h (0 Bft) 100,00 %
22.10.2017 01:44 10,1 C 11,7 C 98 % 1014,4 hPa 0,0 l/m 0,8 km/h (0 Bft) O 82 0 min 0,000 mm 0,0 UV-I 0 W/m 9,8 C 10,1 C 3,2 km/h (1 Bft) 97,87 %
22.10.2017 01:46 9,9 C 11,7 C 98 % 1014,4 hPa 0,0 l/m 1,4 km/h (1 Bft) O 82 0 min 0,000 mm 0,0 UV-I 0 W/m 9,6 C 9,9 C 1,6 km/h (1 Bft) 98,04 %
22.10.2017 01:48 9,8 C 11,7 C 98 % 1014,4 hPa 0,0 l/m 1,1 km/h (1 Bft) O 82 0 min 0,000 mm 0,0 UV-I 0 W/m 9,5 C 9,8 C 3,2 km/h (1 Bft) 97,37 %
22.10.2017 01:50 9,7 C 11,7 C 98 % 1014,4 hPa 0,0 l/m 2,3 km/h (1 Bft) O 82 0 min 0,000 mm 0,0 UV-I 0 W/m 9,4 C 9,7 C 3,2 km/h (1 Bft) 94,00 %
22.10.2017 01:52 9,7 C 11,7 C 98 % 1014,5 hPa 0,0 l/m 2,6 km/h (1 Bft) O 82 0 min 0,000 mm 0,0 UV-I 0 W/m 9,4 C 9,7 C 3,2 km/h (1 Bft) 97,87 %
22.10.2017 01:54 9,6 C 11,7 C 98 % 1014,5 hPa 0,0 l/m 1,9 km/h (1 Bft) O 82 0 min 0,000 mm 0,0 UV-I 0 W/m 9,3 C 9,6 C 3,2 km/h (1 Bft) 98,11 %
22.10.2017 01:56 9,5 C 11,7 C 98 % 1014,5 hPa 0,0 l/m 0,3 km/h (0 Bft) O 82 0 min 0,000 mm 0,0 UV-I 0 W/m 9,2 C 9,5 C 1,6 km/h (1 Bft) 97,37 %
22.10.2017 01:58 9,6 C 11,7 C 98 % 1014,5 hPa 0,0 l/m 0,6 km/h (0 Bft) O 83 0 min 0,000 mm 0,0 UV-I 0 W/m 9,3 C 9,6 C 1,6 km/h (1 Bft) 96,00 %
22.10.2017 02:00 9,6 C 11,7 C 98 % 1014,5 hPa 0,0 l/m 0,3 km/h (0 Bft) O 83 0 min 0,000 mm 0,0 UV-I 0 W/m 9,3 C 9,6 C 1,6 km/h (1 Bft) 96,55 %
22.10.2017 02:02 9,7 C 11,7 C 98 % 1014,5 hPa 0,0 l/m 0,5 km/h (0 Bft) O 83 0 min 0,000 mm 0,0 UV-I 0 W/m 9,4 C 9,7 C 1,6 km/h (1 Bft) 98,53 %
22.10.2017 02:04 9,7 C 11,7 C 98 % 1014,5 hPa 0,0 l/m 0,1 km/h (0 Bft) O 83 0 min 0,000 mm 0,0 UV-I 0 W/m 9,4 C 9,7 C 1,6 km/h (1 Bft) 96,00 %
22.10.2017 02:06 9,7 C 11,7 C 98 % 1014,5 hPa 0,0 l/m 1,6 km/h (1 Bft) O 83 0 min 0,000 mm 0,0 UV-I 0 W/m 9,4 C 9,7 C 3,2 km/h (1 Bft) 100,00 %
22.10.2017 02:08 9,7 C 11,7 C 98 % 1014,5 hPa 0,0 l/m 1,1 km/h (1 Bft) O 83 0 min 0,000 mm 0,0 UV-I 0 W/m 9,4 C 9,7 C 3,2 km/h (1 Bft) 96,00 %
22.10.2017 02:10 9,7 C 11,7 C 98 % 1014,4 hPa 0,0 l/m 1,7 km/h (1 Bft) O-SO 113 0 min 0,000 mm 0,0 UV-I 0 W/m 9,4 C 9,7 C 3,2 km/h (1 Bft) 98,00 %
22.10.2017 02:12 9,6 C 11,7 C 98 % 1014,4 hPa 0,0 l/m 2,4 km/h (1 Bft) SO 133 0 min 0,000 mm 0,0 UV-I 0 W/m 9,3 C 9,6 C 3,2 km/h (1 Bft) 95,12 %
22.10.2017 02:14 9,6 C 11,7 C 98 % 1014,4 hPa 0,0 l/m 1,8 km/h (1 Bft) SO 135 0 min 0,000 mm 0,0 UV-I 0 W/m 9,3 C 9,6 C 3,2 km/h (1 Bft) 97,73 %
22.10.2017 02:16 9,6 C 11,7 C 98 % 1014,5 hPa 0,0 l/m 2,9 km/h (1 Bft) S-SW 197 0 min 0,000 mm 0,0 UV-I 0 W/m 9,3 C 9,6 C 4,8 km/h (1 Bft) 98,00 %
22.10.2017 02:18 9,6 C 11,7 C 98 % 1014,5 hPa 0,0 l/m 3,7 km/h (1 Bft) SW 229 0 min 0,000 mm 0,0 UV-I 0 W/m 9,3 C 9,6 C 6,4 km/h (2 Bft) 97,87 %
22.10.2017 02:20 9,6 C 11,7 C 98 % 1014,6 hPa 0,0 l/m 4,5 km/h (1 Bft) SW 229 0 min 0,000 mm 0,0 UV-I 0 W/m 9,3 C 9,6 C 6,4 km/h (2 Bft) 100,00 %
22.10.2017 02:22 9,6 C 11,7 C 98 % 1014,6 hPa 0,0 l/m 4,8 km/h (1 Bft) SW 226 0 min 0,000 mm 0,0 UV-I 0 W/m 9,3 C 9,6 C 6,4 km/h (2 Bft) 97,87 %
22.10.2017 02:24 9,6 C 11,7 C 98 % 1014,6 hPa 0,0 l/m 5,6 km/h (1 Bft) S-SW 200 0 min 0,000 mm 0,0 UV-I 0 W/m 9,3 C 9,6 C 8,0 km/h (2 Bft) 95,74 %
22.10.2017 02:26 9,7 C 11,7 C 98 % 1014,5 hPa 0,0 l/m 7,3 km/h (2 Bft) S 171 0 min 0,000 mm 0,0 UV-I 0 W/m 9,4 C 9,0 C 11,3 km/h (2 Bft) 100,00 %
22.10.2017 02:28 9,7 C 11,7 C 98 % 1014,5 hPa 0,0 l/m 3,9 km/h (1 Bft) S-SW 205 0 min 0,000 mm 0,0 UV-I 0 W/m 9,4 C 9,7 C 6,4 km/h (2 Bft) 100,00 %
22.10.2017 02:30 9,7 C 11,7 C 98 % 1014,5 hPa 0,0 l/m 2,1 km/h (1 Bft) S-SW 200 0 min 0,000 mm 0,0 UV-I 0 W/m 9,4 C 9,7 C 6,4 km/h (2 Bft) 97,87 %
22.10.2017 02:32 9,7 C 11,7 C 98 % 1014,4 hPa 0,0 l/m 1,7 km/h (1 Bft) S-SW 200 0 min 0,000 mm 0,0 UV-I 0 W/m 9,4 C 9,7 C 3,2 km/h (1 Bft) 98,11 %
22.10.2017 02:34 9,7 C 11,7 C 98 % 1014,4 hPa 0,0 l/m 1,8 km/h (1 Bft) S-SW 200 0 min 0,000 mm 0,0 UV-I 0 W/m 9,4 C 9,7 C 3,2 km/h (1 Bft) 100,00 %
22.10.2017 02:36 9,7 C 11,7 C 98 % 1014,4 hPa 0,0 l/m 1,0 km/h (0 Bft) S-SW 200 0 min 0,000 mm 0,0 UV-I 0 W/m 9,4 C 9,7 C 3,2 km/h (1 Bft) 100,00 %
22.10.2017 02:38 9,7 C 11,7 C 98 % 1014,5 hPa 0,0 l/m 1,5 km/h (1 Bft) S-SW 200 0 min 0,000 mm 0,0 UV-I 0 W/m 9,4 C 9,7 C 3,2 km/h (1 Bft) 100,00 %
22.10.2017 02:40 9,7 C 11,7 C 98 % 1014,4 hPa 0,0 l/m 1,4 km/h (1 Bft) S-SW 200 0 min 0,000 mm 0,0 UV-I 0 W/m 9,4 C 9,7 C 3,2 km/h (1 Bft) 98,11 %
22.10.2017 02:42 9,7 C 11,7 C 98 % 1014,4 hPa 0,0 l/m 0,5 km/h (0 Bft) S-SW 200 0 min 0,000 mm 0,0 UV-I 0 W/m 9,4 C 9,7 C 1,6 km/h (1 Bft) 100,00 %
22.10.2017 02:44 9,7 C 11,7 C 98 % 1014,4 hPa 0,0 l/m 2,2 km/h (1 Bft) S-SW 200 0 min 0,000 mm 0,0 UV-I 0 W/m 9,4 C 9,7 C 4,8 km/h (1 Bft) 97,56 %
22.10.2017 02:46 9,7 C 11,7 C 98 % 1014,3 hPa 0,0 l/m 1,2 km/h (1 Bft) S 176 0 min 0,000 mm 0,0 UV-I 0 W/m 9,4 C 9,7 C 3,2 km/h (1 Bft) 100,00 %
22.10.2017 02:48 9,7 C 11,7 C 98 % 1014,5 hPa 0,0 l/m 3,6 km/h (1 Bft) S-SW 209 0 min 0,000 mm 0,0 UV-I 0 W/m 9,4 C 9,7 C 4,8 km/h (1 Bft) 100,00 %
22.10.2017 02:50 9,6 C 11,7 C 98 % 1014,5 hPa 0,0 l/m 6,0 km/h (2 Bft) S-SW 210 0 min 0,000 mm 0,0 UV-I 0 W/m 9,3 C 9,6 C 8,0 km/h (2 Bft) 97,87 %
22.10.2017 02:52 9,7 C 11,7 C 98 % 1014,6 hPa 0,0 l/m 5,6 km/h (1 Bft) S-SW 192 0 min 0,000 mm 0,0 UV-I 0 W/m 9,4 C 9,7 C 8,0 km/h (2 Bft) 100,00 %
22.10.2017 02:54 9,6 C 11,7 C 98 % 1014,6 hPa 0,0 l/m 4,9 km/h (1 Bft) SW 220 0 min 0,000 mm 0,0 UV-I 0 W/m 9,3 C 9,6 C 8,0 km/h (2 Bft) 100,00 %
22.10.2017 02:56 9,6 C 11,7 C 98 % 1014,6 hPa 0,0 l/m 3,5 km/h (1 Bft) S-SW 202 0 min 0,000 mm 0,0 UV-I 0 W/m 9,3 C 9,6 C 4,8 km/h (1 Bft) 100,00 %
22.10.2017 02:58 9,6 C 11,7 C 98 % 1014,7 hPa 0,0 l/m 5,2 km/h (1 Bft) S-SW 205 0 min 0,000 mm 0,0 UV-I 0 W/m 9,3 C 9,6 C 8,0 km/h (2 Bft) 100,00 %
22.10.2017 03:00 9,6 C 11,7 C 98 % 1014,8 hPa 0,0 l/m 4,9 km/h (1 Bft) W-SW 242 0 min 0,000 mm 0,0 UV-I 0 W/m 9,3 C 9,6 C 6,4 km/h (2 Bft) 100,00 %
22.10.2017 03:02 9,6 C 11,7 C 98 % 1014,8 hPa 0,0 l/m 6,5 km/h (2 Bft) S-SW 205 0 min 0,000 mm 0,0 UV-I 0 W/m 9,3 C 9,6 C 9,7 km/h (2 Bft) 100,00 %
22.10.2017 03:04 9,6 C 11,7 C 98 % 1015,2 hPa 0,0 l/m 9,2 km/h (2 Bft) W-SW 245 0 min 0,000 mm 0,0 UV-I 0 W/m 9,3 C 7,6 C 16,1 km/h (3 Bft) 98,11 %
22.10.2017 03:06 9,6 C 11,7 C 98 % 1015,6 hPa 0,0 l/m 15,1 km/h (3 Bft) W 264 0 min 0,000 mm 0,0 UV-I 0 W/m 9,3 C 4,6 C 20,9 km/h (4 Bft) 100,00 %
22.10.2017 03:08 9,6 C 11,7 C 98 % 1015,5 hPa 0,0 l/m 17,5 km/h (3 Bft) W-SW 246 0 min 0,000 mm 0,0 UV-I 0 W/m 9,3 C 3,6 C 22,5 km/h (4 Bft) 95,65 %
22.10.2017 03:10 9,6 C 11,7 C 98 % 1015,4 hPa 0,0 l/m 13,0 km/h (3 Bft) W 265 0 min 0,000 mm 0,0 UV-I 0 W/m 9,3 C 5,6 C 19,3 km/h (3 Bft) 98,59 %
22.10.2017 03:12 9,7 C 11,7 C 98 % 1015,5 hPa 0,0 l/m 13,3 km/h (3 Bft) W-SW 251 0 min 0,000 mm 0,0 UV-I 0 W/m 9,4 C 5,5 C 19,3 km/h (3 Bft) 100,00 %
22.10.2017 03:14 9,8 C 11,7 C 98 % 1015,5 hPa 0,0 l/m 16,0 km/h (3 Bft) W-SW 257 0 min 0,000 mm 0,0 UV-I 0 W/m 9,5 C 4,5 C 22,5 km/h (4 Bft) 100,00 %
22.10.2017 03:16 9,9 C 11,7 C 98 % 1015,5 hPa 0,0 l/m 13,1 km/h (3 Bft) S-SW 211 0 min 0,000 mm 0,0 UV-I 0 W/m 9,6 C 5,9 C 17,7 km/h (3 Bft) 96,00 %
22.10.2017 03:18 10,1 C 11,7 C 98 % 1015,5 hPa 0,0 l/m 10,5 km/h (2 Bft) W-SW 253 0 min 0,000 mm 0,0 UV-I 0 W/m 9,8 C 7,4 C 17,7 km/h (3 Bft) 100,00 %
22.10.2017 03:20 10,1 C 11,7 C 98 % 1015,5 hPa 0,0 l/m 13,9 km/h (3 Bft) W-SW 250 0 min 0,000 mm 0,0 UV-I 0 W/m 9,8 C 5,7 C 17,7 km/h (3 Bft) 100,00 %
22.10.2017 03:22 10,2 C 11,7 C 98 % 1015,5 hPa 0,0 l/m 10,0 km/h (2 Bft) W-SW 238 0 min 0,000 mm 0,0 UV-I 0 W/m 9,9 C 7,8 C 16,1 km/h (3 Bft) 95,74 %
22.10.2017 03:24 10,2 C 11,7 C 98 % 1015,5 hPa 0,0 l/m 11,1 km/h (2 Bft) SW 229 0 min 0,000 mm 0,0 UV-I 0 W/m 9,9 C 7,2 C 17,7 km/h (3 Bft) 100,00 %
22.10.2017 03:26 10,3 C 11,7 C 98 % 1015,5 hPa 0,0 l/m 10,0 km/h (2 Bft) SW 232 0 min 0,000 mm 0,0 UV-I 0 W/m 10,0 C 7,9 C 17,7 km/h (3 Bft) 100,00 %
22.10.2017 03:28 10,3 C 11,7 C 98 % 1015,6 hPa 0,0 l/m 9,0 km/h (2 Bft) SW 232 0 min 0,000 mm 0,0 UV-I 0 W/m 10,0 C 8,5 C 12,9 km/h (3 Bft) 100,00 %
22.10.2017 03:30 10,4 C 11,7 C 98 % 1015,6 hPa 0,0 l/m 11,1 km/h (2 Bft) SW 225 0 min 0,000 mm 0,0 UV-I 0 W/m 10,1 C 7,4 C 16,1 km/h (3 Bft) 97,87 %
22.10.2017 03:32 10,5 C 11,7 C 98 % 1015,8 hPa 0,0 l/m 10,6 km/h (2 Bft) SW 232 0 min 0,000 mm 0,0 UV-I 0 W/m 10,2 C 7,8 C 16,1 km/h (3 Bft) 100,00 %
22.10.2017 03:34 10,5 C 11,7 C 98 % 1015,9 hPa 0,0 l/m 12,3 km/h (3 Bft) SW 229 0 min 0,000 mm 0,0 UV-I 0 W/m 10,2 C 6,9 C 20,9 km/h (4 Bft) 100,00 %
22.10.2017 03:36 10,6 C 11,7 C 98 % 1015,9 hPa 0,0 l/m 13,1 km/h (3 Bft) S-SW 200 0 min 0,000 mm 0,0 UV-I 0 W/m 10,3 C 6,7 C 20,9 km/h (4 Bft) 95,12 %
22.10.2017 03:38 10,6 C 11,7 C 98 % 1015,9 hPa 0,0 l/m 10,9 km/h (2 Bft) SW 223 0 min 0,000 mm 0,0 UV-I 0 W/m 10,3 C 7,8 C 16,1 km/h (3 Bft) 100,00 %
22.10.2017 03:40 10,7 C 11,7 C 98 % 1016,0 hPa 0,0 l/m 12,7 km/h (3 Bft) W-SW 239 0 min 0,000 mm 0,0 UV-I 0 W/m 10,4 C 7,0 C 17,7 km/h (3 Bft) 100,00 %
22.10.2017 03:42 10,7 C 11,7 C 98 % 1016,1 hPa 0,0 l/m 12,2 km/h (2 Bft) SW 231 0 min 0,000 mm 0,0 UV-I 0 W/m 10,4 C 7,2 C 19,3 km/h (3 Bft) 100,00 %
22.10.2017 03:44 10,7 C 11,7 C 98 % 1016,1 hPa 0,0 l/m 14,3 km/h (3 Bft) W-SW 258 0 min 0,000 mm 0,0 UV-I 0 W/m 10,4 C 6,3 C 22,5 km/h (4 Bft) 100,00 %
22.10.2017 03:46 10,8 C 11,7 C 98 % 1016,0 hPa 0,0 l/m 14,4 km/h (3 Bft) W-SW 237 0 min 0,000 mm 0,0 UV-I 0 W/m 10,5 C 6,4 C 20,9 km/h (4 Bft) 100,00 %
22.10.2017 03:48 10,9 C 11,7 C 98 % 1016,1 hPa 0,0 l/m 15,3 km/h (3 Bft) W-SW 241 0 min 0,000 mm 0,0 UV-I 0 W/m 10,6 C 6,1 C 27,4 km/h (4 Bft) 100,00 %
22.10.2017 03:50 10,9 C 11,7 C 98 % 1016,1 hPa 0,0 l/m 20,1 km/h (4 Bft) SW 236 0 min 0,000 mm 0,0 UV-I 0 W/m 10,6 C 4,4 C 27,4 km/h (4 Bft) 95,74 %
22.10.2017 03:52 11,0 C 11,7 C 98 % 1016,1 hPa 0,0 l/m 20,3 km/h (4 Bft) W-SW 244 0 min 0,000 mm 0,0 UV-I 0 W/m 10,7 C 4,5 C 29,0 km/h (5 Bft) 95,74 %
22.10.2017 03:54 11,1 C 11,7 C 99 % 1016,1 hPa 0,0 l/m 18,6 km/h (3 Bft) SW 231 0 min 0,000 mm 0,0 UV-I 0 W/m 10,9 C 5,2 C 25,7 km/h (4 Bft) 97,56 %
22.10.2017 03:56 11,2 C 11,7 C 98 % 1016,1 hPa 0,0 l/m 17,7 km/h (3 Bft) W 271 0 min 0,000 mm 0,0 UV-I 0 W/m 10,9 C 5,6 C 29,0 km/h (5 Bft) 98,21 %
22.10.2017 03:58 11,2 C 11,7 C 98 % 1016,1 hPa 0,0 l/m 16,5 km/h (3 Bft) W-SW 257 0 min 0,000 mm 0,0 UV-I 0 W/m 10,9 C 6,0 C 25,7 km/h (4 Bft) 94,74 %
22.10.2017 04:00 11,2 C 11,7 C 98 % 1016,2 hPa 0,0 l/m 20,7 km/h (4 Bft) S-SW 213 0 min 0,000 mm 0,0 UV-I 0 W/m 10,9 C 4,6 C 29,0 km/h (5 Bft) 98,11 %
22.10.2017 04:02 11,3 C 11,7 C 98 % 1016,2 hPa 0,0 l/m 19,0 km/h (3 Bft) SW 234 0 min 0,000 mm 0,0 UV-I 0 W/m 11,0 C 5,3 C 25,7 km/h (4 Bft) 94,12 %
22.10.2017 04:04 11,3 C 11,7 C 98 % 1016,2 hPa 0,0 l/m 22,9 km/h (4 Bft) W-SW 257 0 min 0,000 mm 0,0 UV-I 0 W/m 11,0 C 4,1 C 35,4 km/h (5 Bft) 95,74 %
22.10.2017 04:06 11,2 C 11,7 C 98 % 1016,3 hPa 0,0 l/m 16,3 km/h (3 Bft) W-SW 254 0 min 0,000 mm 0,0 UV-I 0 W/m 10,9 C 6,1 C 24,1 km/h (4 Bft) 96,00 %
22.10.2017 04:08 11,2 C 11,7 C 98 % 1016,3 hPa 0,0 l/m 17,2 km/h (3 Bft) W-SW 242 0 min 0,000 mm 0,0 UV-I 0 W/m 10,9 C 5,8 C 30,6 km/h (5 Bft) 97,87 %
22.10.2017 04:10 11,2 C 11,7 C 98 % 1016,4 hPa 0,0 l/m 17,2 km/h (3 Bft) W-SW 252 0 min 0,000 mm 0,0 UV-I 0 W/m 10,9 C 5,8 C 24,1 km/h (4 Bft) 92,11 %
22.10.2017 04:12 11,2 C 11,7 C 98 % 1016,5 hPa 0,2 l/m 28,7 km/h (4 Bft) W 270 0 min 0,000 mm 0,0 UV-I 0 W/m 10,9 C 2,6 C 43,5 km/h (6 Bft) 96,00 %
22.10.2017 04:14 11,1 C 11,7 C 98 % 1016,5 hPa 0,0 l/m 20,5 km/h (4 Bft) W 264 0 min 0,000 mm 0,0 UV-I 0 W/m 10,8 C 4,6 C 30,6 km/h (5 Bft) 96,23 %
22.10.2017 04:16 11,1 C 11,7 C 98 % 1016,5 hPa 0,0 l/m 28,6 km/h (4 Bft) W-SW 257 0 min 0,000 mm 0,0 UV-I 0 W/m 10,8 C 2,5 C 43,5 km/h (6 Bft) 97,37 %
22.10.2017 04:18 11,1 C 11,7 C 98 % 1016,6 hPa 0,0 l/m 19,6 km/h (3 Bft) W-SW 250 0 min 0,000 mm 0,0 UV-I 0 W/m 10,8 C 4,8 C 27,4 km/h (4 Bft) 95,74 %
22.10.2017 04:20 11,1 C 11,7 C 98 % 1016,7 hPa 0,0 l/m 21,8 km/h (4 Bft) W-SW 254 0 min 0,000 mm 0,0 UV-I 0 W/m 10,8 C 4,2 C 35,4 km/h (5 Bft) 96,00 %
22.10.2017 04:22 11,0 C 11,7 C 98 % 1016,7 hPa 0,0 l/m 22,2 km/h (4 Bft) W-NW 286 0 min 0,000 mm 0,0 UV-I 0 W/m 10,7 C 3,9 C 43,5 km/h (6 Bft) 94,12 %
22.10.2017 04:25 10,9 C 11,7 C 98 % 1016,7 hPa 0,0 l/m 19,5 km/h (3 Bft) W-SW 246 0 min 0,000 mm 0,0 UV-I 0 W/m 10,6 C 4,6 C 35,4 km/h (5 Bft) 95,31 %
22.10.2017 04:26 10,9 C 11,7 C 98 % 1016,7 hPa 0,0 l/m 23,3 km/h (4 Bft) W 264 0 min 0,000 mm 0,0 UV-I 0 W/m 10,6 C 3,5 C 33,8 km/h (5 Bft) 96,67 %
22.10.2017 04:28 10,9 C 11,7 C 98 % 1016,9 hPa 0,0 l/m 23,5 km/h (4 Bft) W-SW 240 0 min 0,000 mm 0,0 UV-I 0 W/m 10,6 C 3,4 C 32,2 km/h (5 Bft) 100,00 %
22.10.2017 04:30 10,9 C 11,7 C 98 % 1017,0 hPa 0,0 l/m 25,1 km/h (4 Bft) W-SW 257 0 min 0,000 mm 0,0 UV-I 0 W/m 10,6 C 3,0 C 37,0 km/h (5 Bft) 96,43 %
22.10.2017 04:32 10,8 C 11,7 C 97 % 1017,0 hPa 0,0 l/m 30,2 km/h (5 Bft) W-SW 238 0 min 0,000 mm 0,0 UV-I 0 W/m 10,3 C 1,7 C 48,3 km/h (6 Bft) 97,37 %
22.10.2017 04:34 10,8 C 11,7 C 97 % 1017,0 hPa 0,0 l/m 16,8 km/h (3 Bft) SW 234 0 min 0,000 mm 0,0 UV-I 0 W/m 10,3 C 5,4 C 24,1 km/h (4 Bft) 97,87 %
22.10.2017 04:36 10,8 C 11,7 C 97 % 1017,1 hPa 0,0 l/m 21,8 km/h (4 Bft) S-SW 206 0 min 0,000 mm 0,0 UV-I 0 W/m 10,3 C 3,8 C 33,8 km/h (5 Bft) 96,00 %
22.10.2017 04:38 10,8 C 11,7 C 97 % 1017,0 hPa 0,0 l/m 18,6 km/h (3 Bft) W-SW 254 0 min 0,000 mm 0,0 UV-I 0 W/m 10,3 C 4,8 C 30,6 km/h (5 Bft) 98,11 %
22.10.2017 04:40 10,8 C 11,7 C 97 % 1017,1 hPa 0,2 l/m 19,7 km/h (3 Bft) SW 236 0 min 0,000 mm 0,0 UV-I 0 W/m 10,3 C 4,4 C 29,0 km/h (5 Bft) 97,37 %
22.10.2017 04:42 10,8 C 11,7 C 97 % 1017,1 hPa 0,0 l/m 19,7 km/h (3 Bft) W 263 0 min 0,000 mm 0,0 UV-I 0 W/m 10,3 C 4,4 C 27,4 km/h (4 Bft) 98,11 %
22.10.2017 04:44 10,8 C 11,7 C 97 % 1017,0 hPa 0,0 l/m 19,2 km/h (3 Bft) W 265 0 min 0,000 mm 0,0 UV-I 0 W/m 10,3 C 4,6 C 30,6 km/h (5 Bft) 98,00 %
22.10.2017 04:46 10,7 C 11,7 C 97 % 1017,0 hPa 0,0 l/m 21,6 km/h (4 Bft) W-SW 242 0 min 0,000 mm 0,0 UV-I 0 W/m 10,2 C 3,7 C 35,4 km/h (5 Bft) 97,37 %
22.10.2017 04:48 10,8 C 11,7 C 96 % 1017,1 hPa 0,0 l/m 24,9 km/h (4 Bft) W 259 0 min 0,000 mm 0,0 UV-I 0 W/m 10,2 C 2,9 C 40,2 km/h (6 Bft) 96,23 %
22.10.2017 04:50 10,8 C 11,7 C 96 % 1017,1 hPa 0,0 l/m 24,1 km/h (4 Bft) W 259 0 min 0,000 mm 0,0 UV-I 0 W/m 10,2 C 3,1 C 32,2 km/h (5 Bft) 100,00 %
22.10.2017 04:52 10,8 C 11,7 C 96 % 1017,1 hPa 0,0 l/m 18,0 km/h (3 Bft) W-SW 240 0 min 0,000 mm 0,0 UV-I 0 W/m 10,2 C 5,0 C 25,7 km/h (4 Bft) 97,56 %
22.10.2017 04:54 10,8 C 11,7 C 96 % 1017,1 hPa 0,0 l/m 21,8 km/h (4 Bft) W 259 0 min 0,000 mm 0,0 UV-I 0 W/m 10,2 C 3,8 C 29,0 km/h (5 Bft) 96,30 %
22.10.2017 04:56 10,8 C 11,7 C 95 % 1017,2 hPa 0,0 l/m 24,1 km/h (4 Bft) W-SW 248 0 min 0,000 mm 0,0 UV-I 0 W/m 10,0 C 3,1 C 35,4 km/h (5 Bft) 97,73 %
22.10.2017 04:58 10,8 C 11,7 C 95 % 1017,2 hPa 0,0 l/m 22,2 km/h (4 Bft) W-SW 242 0 min 0,000 mm 0,0 UV-I 0 W/m 10,0 C 3,7 C 43,5 km/h (6 Bft) 94,64 %
22.10.2017 05:00 10,8 C 11,7 C 94 % 1017,3 hPa 0,0 l/m 22,1 km/h (4 Bft) W 263 0 min 0,000 mm 0,0 UV-I 0 W/m 9,9 C 3,7 C 30,6 km/h (5 Bft) 97,44 %
22.10.2017 05:02 10,8 C 11,7 C 94 % 1017,3 hPa 0,0 l/m 20,3 km/h (4 Bft) W 263 0 min 0,000 mm 0,0 UV-I 0 W/m 9,9 C 4,2 C 30,6 km/h (5 Bft) 97,14 %
22.10.2017 05:04 10,8 C 11,7 C 93 % 1017,4 hPa 0,0 l/m 15,1 km/h (3 Bft) W 261 0 min 0,000 mm 0,0 UV-I 0 W/m 9,7 C 6,1 C 20,9 km/h (4 Bft) 97,01 %
22.10.2017 05:06 10,8 C 11,7 C 93 % 1017,5 hPa 0,0 l/m 19,2 km/h (3 Bft) W 264 0 min 0,000 mm 0,0 UV-I 0 W/m 9,7 C 4,6 C 29,0 km/h (5 Bft) 95,24 %
22.10.2017 05:08 10,8 C 11,7 C 93 % 1017,5 hPa 0,0 l/m 17,1 km/h (3 Bft) W 261 0 min 0,000 mm 0,0 UV-I 0 W/m 9,7 C 5,3 C 24,1 km/h (4 Bft) 98,00 %
22.10.2017 05:10 10,8 C 11,7 C 92 % 1017,6 hPa 0,0 l/m 20,7 km/h (4 Bft) W-SW 240 0 min 0,000 mm 0,0 UV-I 0 W/m 9,6 C 4,1 C 30,6 km/h (5 Bft) 97,73 %
22.10.2017 05:12 10,8 C 11,7 C 92 % 1017,6 hPa 0,0 l/m 15,9 km/h (3 Bft) W-SW 244 0 min 0,000 mm 0,0 UV-I 0 W/m 9,6 C 5,7 C 25,7 km/h (4 Bft) 93,62 %
22.10.2017 05:14 10,8 C 11,7 C 92 % 1017,6 hPa 0,0 l/m 13,1 km/h (3 Bft) W-SW 257 0 min 0,000 mm 0,0 UV-I 0 W/m 9,6 C 6,9 C 19,3 km/h (3 Bft) 100,00 %
22.10.2017 05:16 10,8 C 11,7 C 92 % 1017,5 hPa 0,0 l/m 15,8 km/h (3 Bft) SW 232 0 min 0,000 mm 0,0 UV-I 0 W/m 9,6 C 5,8 C 22,5 km/h (4 Bft) 98,00 %
22.10.2017 05:18 10,8 C 11,7 C 91 % 1017,5 hPa 0,0 l/m 19,3 km/h (3 Bft) SW 227 0 min 0,000 mm 0,0 UV-I 0 W/m 9,4 C 4,5 C 35,4 km/h (5 Bft) 100,00 %
22.10.2017 05:20 10,7 C 11,7 C 91 % 1017,6 hPa 0,0 l/m 15,3 km/h (3 Bft) W-SW 243 0 min 0,000 mm 0,0 UV-I 0 W/m 9,3 C 5,9 C 20,9 km/h (4 Bft) 100,00 %
22.10.2017 05:23 10,7 C 11,7 C 91 % 1017,6 hPa 0,0 l/m 15,8 km/h (3 Bft) W-SW 238 0 min 0,000 mm 0,0 UV-I 0 W/m 9,3 C 5,7 C 29,0 km/h (5 Bft) 100,00 %
22.10.2017 05:24 10,7 C 11,7 C 91 % 1017,6 hPa 0,0 l/m 15,8 km/h (3 Bft) W-SW 241 0 min 0,000 mm 0,0 UV-I 0 W/m 9,3 C 5,7 C 20,9 km/h (4 Bft) 100,00 %
22.10.2017 05:26 10,7 C 11,7 C 91 % 1017,6 hPa 0,0 l/m 14,1 km/h (3 Bft) W 260 0 min 0,000 mm 0,0 UV-I 0 W/m 9,3 C 6,4 C 19,3 km/h (3 Bft) 98,21 %
22.10.2017 05:28 10,7 C 11,7 C 91 % 1017,6 hPa 0,0 l/m 16,3 km/h (3 Bft) W-SW 252 0 min 0,000 mm 0,0 UV-I 0 W/m 9,3 C 5,5 C 24,1 km/h (4 Bft) 100,00 %
22.10.2017 05:30 10,7 C 11,7 C 90 % 1017,6 hPa 0,0 l/m 18,6 km/h (3 Bft) W-SW 252 0 min 0,000 mm 0,0 UV-I 0 W/m 9,1 C 4,6 C 32,2 km/h (5 Bft) 100,00 %
22.10.2017 05:32 10,7 C 11,7 C 90 % 1017,6 hPa 0,0 l/m 21,5 km/h (4 Bft) W-SW 252 0 min 0,000 mm 0,0 UV-I 0 W/m 9,1 C 3,7 C 32,2 km/h (5 Bft) 100,00 %
22.10.2017 05:34 10,7 C 11,7 C 90 % 1017,7 hPa 0,0 l/m 17,1 km/h (3 Bft) W-SW 249 0 min 0,000 mm 0,0 UV-I 0 W/m 9,1 C 5,2 C 29,0 km/h (5 Bft) 100,00 %
22.10.2017 05:36 10,7 C 11,7 C 90 % 1017,6 hPa 0,0 l/m 20,5 km/h (4 Bft) W 265 0 min 0,000 mm 0,0 UV-I 0 W/m 9,1 C 4,0 C 29,0 km/h (5 Bft) 100,00 %
22.10.2017 05:38 10,7 C 11,7 C 89 % 1017,6 hPa 0,0 l/m 21,0 km/h (4 Bft) W 268 0 min 0,000 mm 0,0 UV-I 0 W/m 9,0 C 3,9 C 30,6 km/h (5 Bft) 98,11 %
22.10.2017 05:40 10,6 C 11,7 C 89 % 1017,6 hPa 0,0 l/m 19,0 km/h (3 Bft) W-SW 254 0 min 0,000 mm 0,0 UV-I 0 W/m 8,9 C 4,4 C 27,4 km/h (4 Bft) 100,00 %
22.10.2017 05:42 10,6 C 11,7 C 89 % 1017,6 hPa 0,0 l/m 24,5 km/h (4 Bft) W-SW 242 0 min 0,000 mm 0,0 UV-I 0 W/m 8,9 C 2,8 C 32,2 km/h (5 Bft) 100,00 %
22.10.2017 05:44 10,6 C 11,7 C 89 % 1017,7 hPa 0,0 l/m 14,9 km/h (3 Bft) W-SW 253 0 min 0,000 mm 0,0 UV-I 0 W/m 8,9 C 5,9 C 19,3 km/h (3 Bft) 98,00 %
22.10.2017 05:46 10,6 C 11,7 C 89 % 1017,7 hPa 0,0 l/m 17,4 km/h (3 Bft) W-SW 240 0 min 0,000 mm 0,0 UV-I 0 W/m 8,9 C 4,9 C 25,7 km/h (4 Bft) 97,87 %
22.10.2017 05:48 10,6 C 11,7 C 89 % 1017,6 hPa 0,0 l/m 16,5 km/h (3 Bft) W 263 0 min 0,000 mm 0,0 UV-I 0 W/m 8,9 C 5,3 C 20,9 km/h (4 Bft) 100,00 %
22.10.2017 05:50 10,6 C 11,7 C 89 % 1017,6 hPa 0,0 l/m 15,3 km/h (3 Bft) W-SW 258 0 min 0,000 mm 0,0 UV-I 0 W/m 8,9 C 5,7 C 25,7 km/h (4 Bft) 100,00 %
22.10.2017 05:52 10,5 C 11,7 C 89 % 1017,6 hPa 0,0 l/m 18,1 km/h (3 Bft) W-SW 248 0 min 0,000 mm 0,0 UV-I 0 W/m 8,8 C 4,6 C 27,4 km/h (4 Bft) 100,00 %
22.10.2017 05:54 10,5 C 11,7 C 88 % 1017,6 hPa 0,0 l/m 19,1 km/h (3 Bft) W-SW 240 0 min 0,000 mm 0,0 UV-I 0 W/m 8,6 C 4,2 C 25,7 km/h (4 Bft) 98,11 %
22.10.2017 05:56 10,5 C 11,7 C 88 % 1017,6 hPa 0,0 l/m 18,7 km/h (3 Bft) W-SW 255 0 min 0,000 mm 0,0 UV-I 0 W/m 8,6 C 4,4 C 25,7 km/h (4 Bft) 97,56 %
22.10.2017 05:58 10,5 C 11,7 C 88 % 1017,6 hPa 0,0 l/m 12,6 km/h (3 Bft) W 259 0 min 0,000 mm 0,0 UV-I 0 W/m 8,6 C 6,8 C 17,7 km/h (3 Bft) 97,73 %
22.10.2017 06:00 10,5 C 11,7 C 88 % 1017,6 hPa 0,0 l/m 12,9 km/h (3 Bft) SW 222 0 min 0,025 mm 0,0 UV-I 0 W/m 8,6 C 6,7 C 19,3 km/h (3 Bft) 98,21 %
22.10.2017 06:02 10,4 C 11,7 C 88 % 1017,6 hPa 0,0 l/m 18,3 km/h (3 Bft) W-SW 239 0 min 0,000 mm 0,0 UV-I 0 W/m 8,5 C 4,4 C 25,7 km/h (4 Bft) 97,37 %
22.10.2017 06:04 10,4 C 11,7 C 88 % 1017,6 hPa 0,0 l/m 17,0 km/h (3 Bft) W-SW 254 0 min 0,000 mm 0,0 UV-I 0 W/m 8,5 C 4,8 C 24,1 km/h (4 Bft) 98,31 %
22.10.2017 06:06 10,4 C 11,7 C 88 % 1017,6 hPa 0,0 l/m 14,9 km/h (3 Bft) W-SW 250 0 min 0,000 mm 0,0 UV-I 0 W/m 8,5 C 5,7 C 19,3 km/h (3 Bft) 92,68 %
22.10.2017 06:08 10,4 C 11,7 C 88 % 1017,6 hPa 0,0 l/m 11,7 km/h (2 Bft) W-SW 254 0 min 0,000 mm 0,0 UV-I 0 W/m 8,5 C 7,1 C 16,1 km/h (3 Bft) 97,37 %
22.10.2017 06:10 10,4 C 11,7 C 89 % 1017,6 hPa 0,0 l/m 14,4 km/h (3 Bft) W-SW 246 0 min 0,000 mm 0,0 UV-I 0 W/m 8,7 C 5,9 C 20,9 km/h (4 Bft) 96,43 %
22.10.2017 06:12 10,4 C 11,7 C 88 % 1017,5 hPa 0,0 l/m 14,0 km/h (3 Bft) W-SW 240 0 min 0,000 mm 0,0 UV-I 0 W/m 8,5 C 6,0 C 22,5 km/h (4 Bft) 97,56 %
22.10.2017 06:14 10,3 C 11,7 C 88 % 1017,5 hPa 0,0 l/m 13,9 km/h (3 Bft) W-SW 254 0 min 0,000 mm 0,0 UV-I 0 W/m 8,4 C 6,0 C 19,3 km/h (3 Bft) 98,00 %
22.10.2017 06:16 10,3 C 11,7 C 89 % 1017,5 hPa 0,0 l/m 12,6 km/h (3 Bft) SW 229 0 min 0,000 mm 0,0 UV-I 0 W/m 8,6 C 6,6 C 19,3 km/h (3 Bft) 98,00 %
22.10.2017 06:18 10,3 C 11,7 C 89 % 1017,5 hPa 0,0 l/m 15,1 km/h (3 Bft) W 264 0 min 0,000 mm 0,0 UV-I 0 W/m 8,6 C 5,5 C 22,5 km/h (4 Bft) 96,00 %
22.10.2017 06:20 10,3 C 11,7 C 88 % 1017,5 hPa 0,0 l/m 14,6 km/h (3 Bft) W 259 0 min 0,000 mm 0,0 UV-I 0 W/m 8,4 C 5,7 C 17,7 km/h (3 Bft) 97,62 %
22.10.2017 06:22 10,3 C 11,7 C 89 % 1017,5 hPa 0,0 l/m 13,4 km/h (3 Bft) S-SW 213 0 min 0,000 mm 0,0 UV-I 0 W/m 8,6 C 6,2 C 17,7 km/h (3 Bft) 97,87 %
22.10.2017 06:24 10,3 C 11,7 C 89 % 1017,5 hPa 0,0 l/m 14,3 km/h (3 Bft) SW 227 0 min 0,000 mm 0,0 UV-I 0 W/m 8,6 C 5,8 C 20,9 km/h (4 Bft) 98,00 %
22.10.2017 06:26 10,3 C 11,7 C 88 % 1017,5 hPa 0,0 l/m 13,6 km/h (3 Bft) W-SW 256 0 min 0,000 mm 0,0 UV-I 0 W/m 8,4 C 6,1 C 19,3 km/h (3 Bft) 97,56 %
22.10.2017 06:28 10,3 C 11,7 C 89 % 1017,4 hPa 0,0 l/m 14,8 km/h (3 Bft) W 269 0 min 0,000 mm 0,0 UV-I 0 W/m 8,6 C 5,6 C 20,9 km/h (4 Bft) 96,23 %
22.10.2017 06:30 10,3 C 11,7 C 89 % 1017,4 hPa 0,0 l/m 14,8 km/h (3 Bft) W-SW 250 0 min 0,000 mm 0,0 UV-I 0 W/m 8,6 C 5,6 C 22,5 km/h (4 Bft) 97,37 %
22.10.2017 06:32 10,3 C 11,7 C 89 % 1017,4 hPa 0,0 l/m 13,5 km/h (3 Bft) W-SW 245 0 min 0,000 mm 0,0 UV-I 0 W/m 8,6 C 6,1 C 17,7 km/h (3 Bft) 96,61 %
22.10.2017 06:34 10,3 C 11,7 C 89 % 1017,4 hPa 0,0 l/m 12,9 km/h (3 Bft) S-SW 206 0 min 0,000 mm 0,0 UV-I 0 W/m 8,6 C 6,4 C 16,1 km/h (3 Bft) 100,00 %
22.10.2017 06:36 10,3 C 11,7 C 89 % 1017,5 hPa 0,0 l/m 14,8 km/h (3 Bft) W-SW 244 0 min 0,000 mm 0,0 UV-I 0 W/m 8,6 C 5,6 C 19,3 km/h (3 Bft) 100,00 %
22.10.2017 06:38 10,3 C 11,7 C 89 % 1017,5 hPa 0,0 l/m 12,3 km/h (3 Bft) SW 235 0 min 0,000 mm 0,0 UV-I 0 W/m 8,6 C 6,7 C 19,3 km/h (3 Bft) 98,21 %
22.10.2017 06:40 10,2 C 11,7 C 89 % 1017,5 hPa 0,0 l/m 15,8 km/h (3 Bft) SW 234 0 min 0,000 mm 0,0 UV-I 0 W/m 8,5 C 5,1 C 19,3 km/h (3 Bft) 100,00 %
22.10.2017 06:42 10,2 C 11,7 C 88 % 1017,5 hPa 0,0 l/m 12,4 km/h (3 Bft) SW 232 0 min 0,000 mm 0,0 UV-I 0 W/m 8,3 C 6,5 C 17,7 km/h (3 Bft) 97,73 %
22.10.2017 06:44 10,2 C 11,7 C 89 % 1017,5 hPa 0,0 l/m 11,9 km/h (2 Bft) S-SW 212 0 min 0,000 mm 0,0 UV-I 0 W/m 8,5 C 6,8 C 20,9 km/h (4 Bft) 100,00 %
22.10.2017 06:46 10,2 C 11,7 C 88 % 1017,5 hPa 0,0 l/m 13,0 km/h (3 Bft) W 271 0 min 0,000 mm 0,0 UV-I 0 W/m 8,3 C 6,3 C 20,9 km/h (4 Bft) 100,00 %
22.10.2017 06:48 10,2 C 11,7 C 88 % 1017,5 hPa 0,0 l/m 12,0 km/h (2 Bft) W 271 0 min 0,000 mm 0,0 UV-I 0 W/m 8,3 C 6,7 C 17,7 km/h (3 Bft) 97,87 %
22.10.2017 06:50 10,2 C 11,7 C 88 % 1017,5 hPa 0,0 l/m 10,1 km/h (2 Bft) SW 222 0 min 0,000 mm 0,0 UV-I 0 W/m 8,3 C 7,8 C 16,1 km/h (3 Bft) 100,00 %
22.10.2017 06:52 10,2 C 11,7 C 88 % 1017,5 hPa 0,0 l/m 9,0 km/h (2 Bft) W-SW 237 0 min 0,000 mm 0,0 UV-I 0 W/m 8,3 C 8,4 C 14,5 km/h (3 Bft) 100,00 %
22.10.2017 06:54 10,2 C 11,7 C 88 % 1017,5 hPa 0,0 l/m 6,7 km/h (2 Bft) W-SW 242 0 min 0,000 mm 0,0 UV-I 0 W/m 8,3 C 10,0 C 11,3 km/h (2 Bft) 100,00 %
22.10.2017 06:56 10,2 C 11,7 C 89 % 1017,5 hPa 0,0 l/m 9,4 km/h (2 Bft) W-SW 258 0 min 0,000 mm 0,0 UV-I 0 W/m 8,5 C 8,2 C 14,5 km/h (3 Bft) 100,00 %
22.10.2017 06:58 10,1 C 11,7 C 89 % 1017,5 hPa 0,0 l/m 10,3 km/h (2 Bft) W-SW 248 0 min 0,000 mm 0,0 UV-I 0 W/m 8,4 C 7,5 C 14,5 km/h (3 Bft) 100,00 %
22.10.2017 07:00 10,1 C 11,7 C 89 % 1017,5 hPa 0,0 l/m 11,2 km/h (2 Bft) SW 233 0 min 0,026 mm 0,0 UV-I 0 W/m 8,4 C 7,0 C 17,7 km/h (3 Bft) 100,00 %
22.10.2017 07:02 10,1 C 11,7 C 89 % 1017,5 hPa 0,0 l/m 10,0 km/h (2 Bft) SW 223 0 min 0,000 mm 0,0 UV-I 0 W/m 8,4 C 7,7 C 14,5 km/h (3 Bft) 100,00 %
22.10.2017 07:04 10,1 C 11,7 C 89 % 1017,6 hPa 0,0 l/m 8,8 km/h (2 Bft) W-SW 242 0 min 0,000 mm 0,0 UV-I 0 W/m 8,4 C 8,4 C 12,9 km/h (3 Bft) 97,73 %
22.10.2017 07:06 10,1 C 11,7 C 89 % 1017,6 hPa 0,0 l/m 8,1 km/h (2 Bft) W 264 0 min 0,000 mm 0,0 UV-I 0 W/m 8,4 C 8,9 C 14,5 km/h (3 Bft) 100,00 %
22.10.2017 07:08 10,1 C 11,7 C 89 % 1017,6 hPa 0,0 l/m 11,0 km/h (2 Bft) W-SW 255 0 min 0,000 mm 0,0 UV-I 0 W/m 8,4 C 7,1 C 17,7 km/h (3 Bft) 98,53 %
22.10.2017 07:10 10,1 C 11,7 C 89 % 1017,7 hPa 0,0 l/m 9,7 km/h (2 Bft) W-SW 250 0 min 0,000 mm 0,0 UV-I 0 W/m 8,4 C 7,9 C 14,5 km/h (3 Bft) 100,00 %
22.10.2017 07:12 10,1 C 11,7 C 89 % 1017,7 hPa 0,0 l/m 9,7 km/h (2 Bft) W-SW 252 0 min 0,000 mm 0,0 UV-I 0 W/m 8,4 C 7,9 C 14,5 km/h (3 Bft) 100,00 %
22.10.2017 07:14 10,1 C 11,7 C 89 % 1017,7 hPa 0,0 l/m 9,7 km/h (2 Bft) W-SW 240 0 min 0,000 mm 0,0 UV-I 0 W/m 8,4 C 7,9 C 14,5 km/h (3 Bft) 98,11 %
22.10.2017 07:16 10,1 C 11,7 C 89 % 1017,8 hPa 0,0 l/m 8,1 km/h (2 Bft) W-SW 238 0 min 0,000 mm 0,0 UV-I 0 W/m 8,4 C 8,9 C 14,5 km/h (3 Bft) 100,00 %
22.10.2017 07:18 10,1 C 11,7 C 89 % 1017,8 hPa 0,0 l/m 7,6 km/h (2 Bft) W-SW 250 0 min 0,000 mm 0,0 UV-I 0 W/m 8,4 C 9,2 C 12,9 km/h (3 Bft) 97,73 %
22.10.2017 07:20 10,0 C 11,7 C 90 % 1017,8 hPa 0,2 l/m 8,0 km/h (2 Bft) SW 223 0 min 0,000 mm 0,0 UV-I 0 W/m 8,4 C 8,9 C 16,1 km/h (3 Bft) 100,00 %
22.10.2017 07:22 10,0 C 11,7 C 90 % 1017,9 hPa 0,0 l/m 9,8 km/h (2 Bft) SW 223 0 min 0,000 mm 0,0 UV-I 0 W/m 8,4 C 7,7 C 14,5 km/h (3 Bft) 100,00 %
22.10.2017 07:24 10,0 C 11,7 C 90 % 1017,9 hPa 0,0 l/m 10,3 km/h (2 Bft) SW 225 0 min 0,000 mm 0,0 UV-I 0 W/m 8,4 C 7,4 C 16,1 km/h (3 Bft) 100,00 %
22.10.2017 07:26 10,0 C 11,7 C 90 % 1017,9 hPa 0,0 l/m 11,2 km/h (2 Bft) W 265 0 min 0,000 mm 0,0 UV-I 0 W/m 8,4 C 6,9 C 17,7 km/h (3 Bft) 100,00 %
22.10.2017 07:28 9,9 C 11,7 C 91 % 1017,9 hPa 0,0 l/m 9,2 km/h (2 Bft) SW 229 0 min 0,000 mm 0,0 UV-I 0 W/m 8,5 C 8,0 C 14,5 km/h (3 Bft) 100,00 %
22.10.2017 07:30 9,9 C 11,7 C 91 % 1018,0 hPa 0,0 l/m 9,7 km/h (2 Bft) W-SW 252 0 min 0,000 mm 0,0 UV-I 0 W/m 8,5 C 7,7 C 16,1 km/h (3 Bft) 100,00 %
22.10.2017 07:32 9,9 C 11,7 C 91 % 1018,0 hPa 0,2 l/m 9,4 km/h (2 Bft) W-SW 249 0 min 0,000 mm 0,0 UV-I 0 W/m 8,5 C 7,8 C 12,9 km/h (3 Bft) 100,00 %
22.10.2017 07:34 9,9 C 11,7 C 91 % 1018,0 hPa 0,0 l/m 7,7 km/h (2 Bft) W-SW 249 0 min 0,000 mm 0,0 UV-I 0 W/m 8,5 C 9,0 C 14,5 km/h (3 Bft) 100,00 %
22.10.2017 07:36 9,8 C 11,7 C 92 % 1018,0 hPa 0,0 l/m 9,4 km/h (2 Bft) SW 223 0 min 0,000 mm 0,0 UV-I 0 W/m 8,6 C 7,7 C 16,1 km/h (3 Bft) 100,00 %
22.10.2017 07:38 9,8 C 11,7 C 92 % 1018,0 hPa 0,0 l/m 7,9 km/h (2 Bft) W-SW 254 0 min 0,000 mm 0,0 UV-I 0 W/m 8,6 C 8,7 C 11,3 km/h (2 Bft) 100,00 %
22.10.2017 07:40 9,8 C 11,7 C 92 % 1018,0 hPa 0,0 l/m 10,0 km/h (2 Bft) SW 229 0 min 0,000 mm 0,0 UV-I 0 W/m 8,6 C 7,4 C 19,3 km/h (3 Bft) 100,00 %
22.10.2017 07:42 9,8 C 11,7 C 92 % 1018,0 hPa 0,0 l/m 9,6 km/h (2 Bft) SW 229 0 min 0,000 mm 0,0 UV-I 0 W/m 8,6 C 7,6 C 14,5 km/h (3 Bft) 97,87 %
22.10.2017 07:44 9,8 C 11,7 C 92 % 1018,1 hPa 0,0 l/m 9,0 km/h (2 Bft) SW 231 0 min 0,000 mm 0,0 UV-I 0 W/m 8,6 C 8,0 C 12,9 km/h (3 Bft) 95,45 %
22.10.2017 07:46 9,7 C 11,1 C 92 % 1018,2 hPa 0,2 l/m 10,2 km/h (2 Bft) SW 232 0 min 0,000 mm 0,0 UV-I 0 W/m 8,5 C 7,1 C 17,7 km/h (3 Bft) 98,11 %
22.10.2017 07:48 9,7 C 11,7 C 92 % 1018,2 hPa 0,0 l/m 9,6 km/h (2 Bft) W 263 0 min 0,000 mm 0,0 UV-I 1 W/m 8,5 C 7,5 C 19,3 km/h (3 Bft) 94,74 %
22.10.2017 07:50 9,7 C 11,1 C 93 % 1018,2 hPa 0,0 l/m 8,9 km/h (2 Bft) SW 236 0 min 0,000 mm 0,0 UV-I 5 W/m 8,6 C 7,9 C 12,9 km/h (3 Bft) 98,11 %
22.10.2017 07:52 9,7 C 11,7 C 93 % 1018,2 hPa 0,0 l/m 10,1 km/h (2 Bft) W-SW 238 0 min 0,000 mm 0,0 UV-I 5 W/m 8,6 C 7,2 C 16,1 km/h (3 Bft) 97,73 %
22.10.2017 07:54 9,7 C 11,1 C 93 % 1018,2 hPa 0,0 l/m 12,6 km/h (3 Bft) SW 229 0 min 0,000 mm 0,0 UV-I 5 W/m 8,6 C 5,9 C 19,3 km/h (3 Bft) 98,00 %
22.10.2017 07:56 9,7 C 11,7 C 93 % 1018,3 hPa 0,0 l/m 9,2 km/h (2 Bft) W 261 0 min 0,000 mm 0,0 UV-I 5 W/m 8,6 C 7,7 C 14,5 km/h (3 Bft) 94,74 %
22.10.2017 07:58 9,7 C 11,1 C 93 % 1018,3 hPa 0,0 l/m 8,8 km/h (2 Bft) W-SW 255 0 min 0,000 mm 0,0 UV-I 7 W/m 8,6 C 8,0 C 14,5 km/h (3 Bft) 98,11 %
22.10.2017 08:00 9,6 C 11,1 C 93 % 1018,3 hPa 0,0 l/m 9,8 km/h (2 Bft) W-SW 257 0 min 0,000 mm 0,0 UV-I 7 W/m 8,5 C 7,3 C 14,5 km/h (3 Bft) 94,74 %
22.10.2017 08:02 9,6 C 11,7 C 93 % 1018,3 hPa 0,0 l/m 8,7 km/h (2 Bft) SW 229 0 min 0,000 mm 0,0 UV-I 10 W/m 8,5 C 8,0 C 12,9 km/h (3 Bft) 98,11 %
22.10.2017 08:04 9,6 C 11,7 C 93 % 1018,3 hPa 0,0 l/m 8,6 km/h (2 Bft) W-SW 238 0 min 0,000 mm 0,0 UV-I 12 W/m 8,5 C 8,0 C 12,9 km/h (3 Bft) 88,64 %
22.10.2017 08:06 9,6 C 11,1 C 93 % 1018,3 hPa 0,0 l/m 7,5 km/h (2 Bft) W-SW 240 0 min 0,000 mm 0,0 UV-I 12 W/m 8,5 C 8,8 C 14,5 km/h (3 Bft) 96,43 %
22.10.2017 08:08 9,6 C 11,7 C 93 % 1018,4 hPa 0,2 l/m 7,7 km/h (2 Bft) W-SW 246 0 min 0,000 mm 0,0 UV-I 14 W/m 8,5 C 8,6 C 12,9 km/h (3 Bft) 92,11 %
22.10.2017 08:10 9,6 C 11,1 C 93 % 1018,3 hPa 0,0 l/m 8,8 km/h (2 Bft) SW 224 0 min 0,000 mm 0,0 UV-I 16 W/m 8,5 C 7,9 C 12,9 km/h (3 Bft) 96,67 %
22.10.2017 08:12 9,6 C 11,1 C 93 % 1018,3 hPa 0,2 l/m 7,8 km/h (2 Bft) SW 221 0 min 0,000 mm 0,0 UV-I 17 W/m 8,5 C 8,6 C 11,3 km/h (2 Bft) 92,31 %
22.10.2017 08:14 9,6 C 11,7 C 94 % 1018,3 hPa 0,0 l/m 5,5 km/h (1 Bft) SW 217 0 min 0,000 mm 0,0 UV-I 18 W/m 8,7 C 9,6 C 8,0 km/h (2 Bft) 95,74 %
22.10.2017 08:16 9,5 C 11,1 C 94 % 1018,3 hPa 0,0 l/m 7,4 km/h (2 Bft) SW 225 0 min 0,000 mm 0,0 UV-I 18 W/m 8,6 C 8,8 C 11,3 km/h (2 Bft) 96,00 %
22.10.2017 08:18 9,5 C 11,1 C 94 % 1018,3 hPa 0,2 l/m 6,4 km/h (2 Bft) S-SW 213 0 min 0,000 mm 0,0 UV-I 16 W/m 8,6 C 9,5 C 12,9 km/h (3 Bft) 95,74 %
22.10.2017 08:20 9,4 C 11,1 C 94 % 1018,3 hPa 0,0 l/m 8,0 km/h (2 Bft) SW 236 0 min 0,000 mm 0,0 UV-I 15 W/m 8,5 C 8,2 C 12,9 km/h (3 Bft) 96,15 %
22.10.2017 08:22 9,4 C 11,1 C 94 % 1018,2 hPa 0,2 l/m 5,6 km/h (1 Bft) SW 232 0 min 0,000 mm 0,0 UV-I 14 W/m 8,5 C 9,4 C 11,3 km/h (2 Bft) 90,48 %
22.10.2017 08:24 9,4 C 11,1 C 94 % 1018,2 hPa 0,0 l/m 6,7 km/h (2 Bft) SW 222 0 min 0,000 mm 0,0 UV-I 14 W/m 8,5 C 9,2 C 11,3 km/h (2 Bft) 94,34 %
22.10.2017 08:26 9,4 C 11,1 C 94 % 1018,1 hPa 0,0 l/m 8,7 km/h (2 Bft) S 178 0 min 0,000 mm 0,0 UV-I 17 W/m 8,5 C 7,7 C 14,5 km/h (3 Bft) 94,74 %
22.10.2017 08:28 9,4 C 11,1 C 94 % 1018,1 hPa 0,0 l/m 9,2 km/h (2 Bft) S-SW 201 0 min 0,000 mm 0,0 UV-I 18 W/m 8,5 C 7,4 C 12,9 km/h (3 Bft) 90,57 %
22.10.2017 08:30 9,4 C 11,1 C 94 % 1018,2 hPa 0,0 l/m 6,4 km/h (2 Bft) S-SW 207 0 min 0,000 mm 0,0 UV-I 19 W/m 8,5 C 9,4 C 9,7 km/h (2 Bft) 94,74 %
22.10.2017 08:32 9,4 C 11,1 C 94 % 1018,2 hPa 0,0 l/m 8,2 km/h (2 Bft) SW 220 0 min 0,000 mm 0,0 UV-I 19 W/m 8,5 C 8,1 C 12,9 km/h (3 Bft) 96,00 %
22.10.2017 08:34 9,3 C 11,7 C 94 % 1018,2 hPa 0,0 l/m 9,6 km/h (2 Bft) S-SW 210 0 min 0,000 mm 0,0 UV-I 21 W/m 8,4 C 7,1 C 12,9 km/h (3 Bft) 96,43 %
22.10.2017 08:36 9,3 C 11,1 C 94 % 1018,2 hPa 0,2 l/m 8,8 km/h (2 Bft) S-SW 213 0 min 0,000 mm 0,0 UV-I 21 W/m 8,4 C 7,6 C 14,5 km/h (3 Bft) 94,29 %
22.10.2017 08:38 9,3 C 11,1 C 95 % 1018,2 hPa 0,0 l/m 8,7 km/h (2 Bft) S-SW 212 0 min 0,000 mm 0,0 UV-I 17 W/m 8,5 C 7,6 C 12,9 km/h (3 Bft) 92,86 %
22.10.2017 08:40 9,3 C 11,7 C 95 % 1018,2 hPa 0,0 l/m 8,1 km/h (2 Bft) SW 223 0 min 0,000 mm 0,0 UV-I 14 W/m 8,5 C 8,0 C 14,5 km/h (3 Bft) 97,87 %
22.10.2017 08:42 9,3 C 11,1 C 95 % 1018,3 hPa 0,0 l/m 8,9 km/h (2 Bft) S-SW 211 0 min 0,000 mm 0,0 UV-I 14 W/m 8,5 C 7,5 C 14,5 km/h (3 Bft) 97,87 %
22.10.2017 08:44 9,3 C 11,1 C 95 % 1018,2 hPa 0,2 l/m 12,0 km/h (2 Bft) SW 228 0 min 0,000 mm 0,0 UV-I 14 W/m 8,5 C 5,7 C 17,7 km/h (3 Bft) 97,87 %
22.10.2017 08:46 9,3 C 11,1 C 95 % 1018,3 hPa 0,0 l/m 8,8 km/h (2 Bft) S-SO 162 0 min 0,000 mm 0,0 UV-I 17 W/m 8,5 C 7,6 C 12,9 km/h (3 Bft) 97,56 %
22.10.2017 08:48 9,3 C 11,1 C 95 % 1018,2 hPa 0,0 l/m 9,6 km/h (2 Bft) S-SW 213 0 min 0,000 mm 0,0 UV-I 19 W/m 8,5 C 7,1 C 14,5 km/h (3 Bft) 100,00 %
22.10.2017 08:50 9,3 C 11,1 C 95 % 1018,2 hPa 0,0 l/m 9,3 km/h (2 Bft) SW 217 0 min 0,000 mm 0,0 UV-I 21 W/m 8,5 C 7,3 C 12,9 km/h (3 Bft) 100,00 %
22.10.2017 08:52 9,3 C 11,1 C 95 % 1018,2 hPa 0,0 l/m 6,7 km/h (2 Bft) S-SW 199 0 min 0,000 mm 0,0 UV-I 21 W/m 8,5 C 9,1 C 9,7 km/h (2 Bft) 100,00 %
22.10.2017 08:54 9,3 C 11,1 C 95 % 1018,2 hPa 0,0 l/m 10,6 km/h (2 Bft) SW 229 0 min 0,000 mm 0,0 UV-I 23 W/m 8,5 C 6,5 C 16,1 km/h (3 Bft) 100,00 %
22.10.2017 08:56 9,3 C 11,1 C 95 % 1018,2 hPa 0,0 l/m 10,4 km/h (2 Bft) S-SW 207 0 min 0,000 mm 0,0 UV-I 23 W/m 8,5 C 6,6 C 20,9 km/h (4 Bft) 98,00 %
22.10.2017 08:58 9,3 C 11,1 C 95 % 1018,2 hPa 0,0 l/m 10,6 km/h (2 Bft) S-SW 199 0 min 0,000 mm 0,0 UV-I 25 W/m 8,5 C 6,5 C 17,7 km/h (3 Bft) 100,00 %
22.10.2017 09:00 9,3 C 11,1 C 95 % 1018,1 hPa 0,0 l/m 10,5 km/h (2 Bft) S-SW 203 0 min 0,000 mm 0,0 UV-I 29 W/m 8,5 C 6,5 C 14,5 km/h (3 Bft) 100,00 %
22.10.2017 09:02 9,3 C 11,1 C 95 % 1018,2 hPa 0,0 l/m 10,0 km/h (2 Bft) S-SW 213 0 min 0,025 mm 0,0 UV-I 34 W/m 8,5 C 6,8 C 14,5 km/h (3 Bft) 100,00 %
22.10.2017 09:04 9,3 C 11,1 C 95 % 1018,1 hPa 0,0 l/m 9,4 km/h (2 Bft) S-SW 207 0 min 0,000 mm 0,0 UV-I 37 W/m 8,5 C 7,2 C 16,1 km/h (3 Bft) 100,00 %
22.10.2017 09:06 9,3 C 11,1 C 95 % 1018,1 hPa 0,0 l/m 10,2 km/h (2 Bft) S-SW 213 0 min 0,000 mm 0,0 UV-I 39 W/m 8,5 C 6,7 C 14,5 km/h (3 Bft) 100,00 %
22.10.2017 09:08 9,3 C 11,1 C 95 % 1018,2 hPa 0,0 l/m 9,3 km/h (2 Bft) SW 214 0 min 0,000 mm 0,0 UV-I 42 W/m 8,5 C 7,3 C 14,5 km/h (3 Bft) 100,00 %
22.10.2017 09:10 9,3 C 11,1 C 95 % 1018,1 hPa 0,0 l/m 8,8 km/h (2 Bft) SW 223 0 min 0,000 mm 0,0 UV-I 49 W/m 8,5 C 7,6 C 11,3 km/h (2 Bft) 100,00 %
22.10.2017 09:12 9,3 C 11,1 C 95 % 1018,1 hPa 0,0 l/m 8,2 km/h (2 Bft) S-SW 198 0 min 0,000 mm 0,0 UV-I 60 W/m 8,5 C 8,0 C 14,5 km/h (3 Bft) 100,00 %
22.10.2017 09:14 9,3 C 11,1 C 95 % 1018,1 hPa 0,0 l/m 7,5 km/h (2 Bft) SW 217 0 min 0,000 mm 0,0 UV-I 68 W/m 8,5 C 8,5 C 12,9 km/h (3 Bft) 97,56 %
22.10.2017 09:16 9,3 C 11,1 C 95 % 1018,1 hPa 0,0 l/m 8,5 km/h (2 Bft) SW 229 0 min 0,000 mm 0,0 UV-I 66 W/m 8,5 C 7,8 C 12,9 km/h (3 Bft) 100,00 %
22.10.2017 09:18 9,3 C 11,1 C 95 % 1018,1 hPa 0,0 l/m 7,7 km/h (2 Bft) S-SW 198 0 min 0,000 mm 0,0 UV-I 61 W/m 8,5 C 8,3 C 12,9 km/h (3 Bft) 100,00 %
22.10.2017 09:20 9,4 C 11,1 C 95 % 1018,2 hPa 0,0 l/m 9,9 km/h (2 Bft) SW 214 0 min 0,000 mm 0,0 UV-I 60 W/m 8,6 C 7,0 C 14,5 km/h (3 Bft) 97,56 %
22.10.2017 09:22 9,4 C 11,1 C 94 % 1018,2 hPa 0,0 l/m 10,2 km/h (2 Bft) SW 221 0 min 0,000 mm 0,0 UV-I 61 W/m 8,5 C 6,8 C 12,9 km/h (3 Bft) 100,00 %
22.10.2017 09:24 9,4 C 11,1 C 94 % 1018,2 hPa 0,0 l/m 8,3 km/h (2 Bft) S-SW 213 0 min 0,000 mm 0,0 UV-I 62 W/m 8,5 C 8,0 C 11,3 km/h (2 Bft) 100,00 %
22.10.2017 09:26 9,4 C 11,1 C 94 % 1018,2 hPa 0,0 l/m 8,8 km/h (2 Bft) SW 223 0 min 0,000 mm 0,0 UV-I 57 W/m 8,5 C 7,7 C 11,3 km/h (2 Bft) 100,00 %
22.10.2017 09:28 9,4 C 11,1 C 94 % 1018,2 hPa 0,0 l/m 9,1 km/h (2 Bft) S-SW 208 0 min 0,000 mm 0,0 UV-I 54 W/m 8,5 C 7,5 C 12,9 km/h (3 Bft) 100,00 %
22.10.2017 09:30 9,5 C 11,1 C 94 % 1018,2 hPa 0,0 l/m 7,7 km/h (2 Bft) SW 219 0 min 0,000 mm 0,0 UV-I 52 W/m 8,6 C 8,5 C 12,9 km/h (3 Bft) 97,62 %
22.10.2017 09:32 9,5 C 11,1 C 94 % 1018,2 hPa 0,0 l/m 7,3 km/h (2 Bft) SW 221 0 min 0,000 mm 0,0 UV-I 53 W/m 8,6 C 8,8 C 9,7 km/h (2 Bft) 98,08 %
22.10.2017 09:34 9,5 C 11,1 C 94 % 1018,2 hPa 0,0 l/m 8,9 km/h (2 Bft) W-SW 241 0 min 0,000 mm 0,0 UV-I 61 W/m 8,6 C 7,7 C 14,5 km/h (3 Bft) 100,00 %
22.10.2017 09:36 9,5 C 11,1 C 94 % 1018,2 hPa 0,0 l/m 8,2 km/h (2 Bft) SW 236 0 min 0,000 mm 0,0 UV-I 72 W/m 8,6 C 8,2 C 11,3 km/h (2 Bft) 98,11 %
22.10.2017 09:38 9,6 C 11,1 C 94 % 1018,1 hPa 0,0 l/m 9,1 km/h (2 Bft) S-SW 207 0 min 0,000 mm 0,0 UV-I 78 W/m 8,7 C 7,7 C 16,1 km/h (3 Bft) 100,00 %
22.10.2017 09:40 9,6 C 11,1 C 94 % 1018,1 hPa 0,0 l/m 8,6 km/h (2 Bft) SW 233 0 min 0,000 mm 0,0 UV-I 80 W/m 8,7 C 8,0 C 12,9 km/h (3 Bft) 97,87 %
22.10.2017 09:42 9,6 C 11,1 C 94 % 1018,1 hPa 0,0 l/m 9,9 km/h (2 Bft) SW 222 0 min 0,000 mm 0,0 UV-I 82 W/m 8,7 C 7,2 C 14,5 km/h (3 Bft) 100,00 %
22.10.2017 09:44 9,6 C 11,1 C 94 % 1018,1 hPa 0,0 l/m 10,5 km/h (2 Bft) S-SW 205 0 min 0,000 mm 0,0 UV-I 85 W/m 8,7 C 6,9 C 16,1 km/h (3 Bft) 100,00 %
22.10.2017 09:46 9,6 C 11,1 C 94 % 1018,0 hPa 0,0 l/m 8,6 km/h (2 Bft) SW 224 0 min 0,000 mm 0,0 UV-I 92 W/m 8,7 C 8,0 C 11,3 km/h (2 Bft) 98,11 %
22.10.2017 09:48 9,6 C 11,1 C 94 % 1017,9 hPa 0,0 l/m 7,8 km/h (2 Bft) SW 217 0 min 0,000 mm 0,0 UV-I 98 W/m 8,7 C 8,6 C 11,3 km/h (2 Bft) 100,00 %
22.10.2017 09:50 9,7 C 11,1 C 94 % 1017,9 hPa 0,0 l/m 7,8 km/h (2 Bft) S-SW 209 0 min 0,000 mm 0,0 UV-I 100 W/m 8,8 C 8,7 C 11,3 km/h (2 Bft) 100,00 %
22.10.2017 09:52 9,7 C 11,1 C 94 % 1017,9 hPa 0,0 l/m 12,3 km/h (3 Bft) SW 224 0 min 0,000 mm 0,0 UV-I 103 W/m 8,8 C 6,0 C 17,7 km/h (3 Bft) 97,37 %
22.10.2017 09:54 9,7 C 11,1 C 94 % 1017,9 hPa 0,0 l/m 10,8 km/h (2 Bft) SW 218 0 min 0,000 mm 0,0 UV-I 98 W/m 8,8 C 6,8 C 16,1 km/h (3 Bft) 100,00 %
22.10.2017 09:56 9,7 C 11,1 C 93 % 1017,9 hPa 0,0 l/m 10,5 km/h (2 Bft) S 188 0 min 0,000 mm 0,0 UV-I 101 W/m 8,6 C 7,0 C 19,3 km/h (3 Bft) 100,00 %
22.10.2017 09:58 9,7 C 11,1 C 93 % 1017,9 hPa 0,0 l/m 8,9 km/h (2 Bft) S-SW 209 0 min 0,000 mm 0,0 UV-I 102 W/m 8,6 C 7,9 C 16,1 km/h (3 Bft) 98,11 %
22.10.2017 10:00 9,7 C 11,1 C 93 % 1017,9 hPa 0,0 l/m 10,6 km/h (2 Bft) W 273 0 min 0,026 mm 0,0 UV-I 98 W/m 8,6 C 6,9 C 16,1 km/h (3 Bft) 100,00 %
22.10.2017 10:02 9,7 C 11,1 C 93 % 1017,9 hPa 0,0 l/m 11,4 km/h (2 Bft) S-SW 206 0 min 0,000 mm 0,0 UV-I 93 W/m 8,6 C 6,5 C 19,3 km/h (3 Bft) 98,00 %
22.10.2017 10:04 9,7 C 11,1 C 93 % 1017,9 hPa 0,0 l/m 11,7 km/h (2 Bft) SW 227 0 min 0,000 mm 0,0 UV-I 87 W/m 8,6 C 6,3 C 19,3 km/h (3 Bft) 100,00 %
22.10.2017 10:06 9,8 C 11,1 C 93 % 1017,8 hPa 0,0 l/m 9,2 km/h (2 Bft) SW 219 0 min 0,000 mm 0,0 UV-I 79 W/m 8,7 C 7,9 C 14,5 km/h (3 Bft) 98,11 %
22.10.2017 10:08 9,8 C 11,1 C 93 % 1017,8 hPa 0,0 l/m 10,0 km/h (2 Bft) S-SW 207 0 min 0,000 mm 0,0 UV-I 71 W/m 8,7 C 7,4 C 16,1 km/h (3 Bft) 98,00 %
22.10.2017 10:10 9,8 C 11,1 C 93 % 1017,8 hPa 0,0 l/m 10,3 km/h (2 Bft) S-SW 202 0 min 0,000 mm 0,0 UV-I 69 W/m 8,7 C 7,2 C 16,1 km/h (3 Bft) 94,74 %
22.10.2017 10:12 9,8 C 11,1 C 93 % 1017,8 hPa 0,0 l/m 10,7 km/h (2 Bft) SW 221 0 min 0,000 mm 0,0 UV-I 71 W/m 8,7 C 7,0 C 16,1 km/h (3 Bft) 97,92 %
22.10.2017 10:14 9,8 C 11,1 C 93 % 1017,8 hPa 0,0 l/m 8,4 km/h (2 Bft) SW 218 0 min 0,000 mm 0,0 UV-I 72 W/m 8,7 C 8,4 C 12,9 km/h (3 Bft) 96,15 %
22.10.2017 10:16 9,8 C 11,1 C 92 % 1017,8 hPa 0,0 l/m 10,7 km/h (2 Bft) S-SW 196 0 min 0,000 mm 0,0 UV-I 73 W/m 8,6 C 7,0 C 19,3 km/h (3 Bft) 95,35 %
22.10.2017 10:18 9,8 C 11,1 C 92 % 1017,7 hPa 0,0 l/m 11,2 km/h (2 Bft) S-SW 211 0 min 0,000 mm 0,0 UV-I 73 W/m 8,6 C 6,7 C 16,1 km/h (3 Bft) 98,11 %
22.10.2017 10:20 9,8 C 11,1 C 92 % 1017,8 hPa 0,0 l/m 10,7 km/h (2 Bft) S-SW 196 0 min 0,000 mm 0,0 UV-I 71 W/m 8,6 C 7,0 C 17,7 km/h (3 Bft) 97,37 %
22.10.2017 10:22 9,8 C 11,1 C 92 % 1017,7 hPa 0,0 l/m 9,5 km/h (2 Bft) S-SW 204 0 min 0,000 mm 0,0 UV-I 64 W/m 8,6 C 7,7 C 12,9 km/h (3 Bft) 96,23 %
22.10.2017 10:24 9,8 C 11,1 C 92 % 1017,8 hPa 0,0 l/m 6,4 km/h (2 Bft) S-SW 213 0 min 0,000 mm 0,0 UV-I 60 W/m 8,6 C 9,8 C 9,7 km/h (2 Bft) 97,37 %
22.10.2017 10:26 9,8 C 11,1 C 92 % 1017,8 hPa 0,0 l/m 9,9 km/h (2 Bft) SW 229 0 min 0,000 mm 0,0 UV-I 56 W/m 8,6 C 7,4 C 14,5 km/h (3 Bft) 96,43 %
22.10.2017 10:28 9,7 C 11,1 C 92 % 1017,8 hPa 0,0 l/m 8,4 km/h (2 Bft) W 262 0 min 0,000 mm 0,0 UV-I 57 W/m 8,5 C 8,3 C 12,9 km/h (3 Bft) 95,12 %
22.10.2017 10:30 9,7 C 11,1 C 92 % 1017,8 hPa 0,0 l/m 8,0 km/h (2 Bft) S-SW 206 0 min 0,000 mm 0,0 UV-I 60 W/m 8,5 C 8,5 C 12,9 km/h (3 Bft) 96,23 %
22.10.2017 10:32 9,7 C 11,1 C 92 % 1017,8 hPa 0,0 l/m 10,7 km/h (2 Bft) SW 227 0 min 0,000 mm 0,0 UV-I 66 W/m 8,5 C 6,9 C 14,5 km/h (3 Bft) 97,87 %
22.10.2017 10:34 9,7 C 11,1 C 92 % 1017,8 hPa 0,0 l/m 9,5 km/h (2 Bft) S-SW 203 0 min 0,000 mm 0,0 UV-I 72 W/m 8,5 C 7,6 C 12,9 km/h (3 Bft) 95,45 %
22.10.2017 10:36 9,7 C 11,1 C 92 % 1017,7 hPa 0,2 l/m 9,3 km/h (2 Bft) SW 235 0 min 0,000 mm 0,0 UV-I 79 W/m 8,5 C 7,7 C 12,9 km/h (3 Bft) 98,11 %
22.10.2017 10:38 9,7 C 11,1 C 92 % 1017,7 hPa 0,0 l/m 8,2 km/h (2 Bft) S-SW 205 0 min 0,000 mm 0,0 UV-I 88 W/m 8,5 C 8,4 C 14,5 km/h (3 Bft) 97,87 %
22.10.2017 10:40 9,7 C 11,1 C 93 % 1017,7 hPa 0,0 l/m 7,4 km/h (2 Bft) SW 217 0 min 0,000 mm 0,0 UV-I 94 W/m 8,6 C 9,0 C 12,9 km/h (3 Bft) 97,37 %
22.10.2017 10:42 9,7 C 11,1 C 93 % 1017,7 hPa 0,0 l/m 6,1 km/h (2 Bft) S-SW 211 0 min 0,000 mm 0,0 UV-I 97 W/m 8,6 C 9,7 C 9,7 km/h (2 Bft) 100,00 %
22.10.2017 10:44 9,7 C 11,1 C 93 % 1017,7 hPa 0,0 l/m 8,3 km/h (2 Bft) SW 219 0 min 0,000 mm 0,0 UV-I 100 W/m 8,6 C 8,3 C 12,9 km/h (3 Bft) 100,00 %
22.10.2017 10:46 9,8 C 11,1 C 93 % 1017,7 hPa 0,0 l/m 8,0 km/h (2 Bft) SW 235 0 min 0,000 mm 0,0 UV-I 102 W/m 8,7 C 8,6 C 14,5 km/h (3 Bft) 98,21 %
22.10.2017 10:48 9,8 C 11,1 C 92 % 1017,7 hPa 0,0 l/m 10,0 km/h (2 Bft) SW 215 0 min 0,000 mm 0,0 UV-I 98 W/m 8,6 C 7,4 C 14,5 km/h (3 Bft) 100,00 %
22.10.2017 10:50 9,8 C 11,1 C 93 % 1017,7 hPa 0,0 l/m 5,7 km/h (1 Bft) S-SW 199 0 min 0,000 mm 0,0 UV-I 94 W/m 8,7 C 9,8 C 11,3 km/h (2 Bft) 97,87 %
22.10.2017 10:52 9,8 C 11,1 C 93 % 1017,7 hPa 0,0 l/m 5,1 km/h (1 Bft) S-SW 213 0 min 0,000 mm 0,0 UV-I 93 W/m 8,7 C 9,8 C 8,0 km/h (2 Bft) 100,00 %
22.10.2017 10:54 9,8 C 11,1 C 93 % 1017,6 hPa 0,0 l/m 6,3 km/h (2 Bft) SW 215 0 min 0,000 mm 0,0 UV-I 98 W/m 8,7 C 9,8 C 9,7 km/h (2 Bft) 100,00 %
22.10.2017 10:56 9,8 C 11,1 C 93 % 1017,6 hPa 0,0 l/m 6,4 km/h (2 Bft) S-SW 208 0 min 0,000 mm 0,0 UV-I 105 W/m 8,7 C 9,8 C 8,0 km/h (2 Bft) 100,00 %
22.10.2017 10:58 9,8 C 11,1 C 93 % 1017,6 hPa 0,0 l/m 7,2 km/h (2 Bft) SW 217 0 min 0,000 mm 0,1 UV-I 120 W/m 8,7 C 9,2 C 11,3 km/h (2 Bft) 98,11 %
22.10.2017 11:00 9,8 C 11,1 C 93 % 1017,6 hPa 0,0 l/m 8,2 km/h (2 Bft) S-SW 211 0 min 0,000 mm 0,5 UV-I 140 W/m 8,7 C 8,5 C 12,9 km/h (3 Bft) 100,00 %
22.10.2017 11:03 9,9 C 11,1 C 93 % 1017,6 hPa 0,0 l/m 8,8 km/h (2 Bft) S-SW 196 0 min 0,050 mm 0,5 UV-I 140 W/m 8,8 C 8,2 C 12,9 km/h (3 Bft) 100,00 %
22.10.2017 11:04 9,9 C 11,1 C 93 % 1017,7 hPa 0,0 l/m 10,2 km/h (2 Bft) S-SW 208 0 min 0,000 mm 0,5 UV-I 138 W/m 8,8 C 7,4 C 12,9 km/h (3 Bft) 100,00 %
22.10.2017 11:06 10,0 C 11,1 C 93 % 1017,6 hPa 0,0 l/m 8,8 km/h (2 Bft) SW 219 0 min 0,000 mm 0,6 UV-I 146 W/m 8,9 C 8,3 C 14,5 km/h (3 Bft) 100,00 %
22.10.2017 11:08 10,0 C 11,1 C 92 % 1017,6 hPa 0,0 l/m 9,8 km/h (2 Bft) S-SW 202 0 min 0,000 mm 0,6 UV-I 141 W/m 8,8 C 7,7 C 16,1 km/h (3 Bft) 100,00 %
22.10.2017 11:10 10,0 C 11,1 C 92 % 1017,6 hPa 0,0 l/m 13,0 km/h (3 Bft) S-SW 207 0 min 0,000 mm 0,6 UV-I 129 W/m 8,8 C 6,0 C 19,3 km/h (3 Bft) 100,00 %
22.10.2017 11:12 10,1 C 11,1 C 91 % 1017,6 hPa 0,0 l/m 7,8 km/h (2 Bft) SW 215 0 min 0,000 mm 0,5 UV-I 117 W/m 8,7 C 9,1 C 12,9 km/h (3 Bft) 97,87 %
22.10.2017 11:14 10,1 C 11,1 C 91 % 1017,6 hPa 0,0 l/m 8,9 km/h (2 Bft) S 188 0 min 0,000 mm 0,5 UV-I 111 W/m 8,7 C 8,4 C 16,1 km/h (3 Bft) 95,45 %
22.10.2017 11:16 10,1 C 11,1 C 91 % 1017,6 hPa 0,0 l/m 8,5 km/h (2 Bft) SW 223 0 min 0,000 mm 0,5 UV-I 111 W/m 8,7 C 8,6 C 16,1 km/h (3 Bft) 100,00 %
22.10.2017 11:18 10,1 C 11,1 C 91 % 1017,6 hPa 0,0 l/m 10,6 km/h (2 Bft) S-SW 205 0 min 0,000 mm 0,5 UV-I 113 W/m 8,7 C 7,4 C 17,7 km/h (3 Bft) 98,00 %
22.10.2017 11:20 10,1 C 11,1 C 91 % 1017,6 hPa 0,0 l/m 10,0 km/h (2 Bft) S-SW 209 0 min 0,000 mm 0,5 UV-I 114 W/m 8,7 C 7,7 C 14,5 km/h (3 Bft) 100,00 %
22.10.2017 11:22 10,1 C 11,1 C 91 % 1017,5 hPa 0,0 l/m 9,2 km/h (2 Bft) S 180 0 min 0,000 mm 0,5 UV-I 110 W/m 8,7 C 8,2 C 16,1 km/h (3 Bft) 100,00 %
22.10.2017 11:24 10,1 C 11,1 C 91 % 1017,5 hPa 0,0 l/m 8,6 km/h (2 Bft) S-SW 201 0 min 0,000 mm 0,1 UV-I 103 W/m 8,7 C 8,6 C 16,1 km/h (3 Bft) 100,00 %
22.10.2017 11:26 10,1 C 11,1 C 91 % 1017,4 hPa 0,0 l/m 9,9 km/h (2 Bft) SW 223 0 min 0,000 mm 0,0 UV-I 100 W/m 8,7 C 7,8 C 17,7 km/h (3 Bft) 100,00 %
22.10.2017 11:28 10,1 C 11,1 C 90 % 1017,4 hPa 0,0 l/m 8,9 km/h (2 Bft) SW 225 0 min 0,000 mm 0,0 UV-I 99 W/m 8,5 C 8,4 C 16,1 km/h (3 Bft) 100,00 %
22.10.2017 11:30 10,1 C 11,1 C 90 % 1017,4 hPa 0,0 l/m 8,2 km/h (2 Bft) S-SW 196 0 min 0,000 mm 0,0 UV-I 103 W/m 8,5 C 8,8 C 12,9 km/h (3 Bft) 100,00 %
22.10.2017 11:32 10,1 C 11,1 C 90 % 1017,3 hPa 0,0 l/m 8,9 km/h (2 Bft) S-SW 202 0 min 0,000 mm 0,2 UV-I 112 W/m 8,5 C 8,4 C 12,9 km/h (3 Bft) 94,55 %
22.10.2017 11:34 10,1 C 11,1 C 90 % 1017,3 hPa 0,0 l/m 8,9 km/h (2 Bft) SW 217 0 min 0,000 mm 0,5 UV-I 113 W/m 8,5 C 8,4 C 12,9 km/h (3 Bft) 95,74 %
22.10.2017 11:36 10,1 C 11,1 C 90 % 1017,3 hPa 0,0 l/m 8,6 km/h (2 Bft) SW 221 0 min 0,000 mm 0,5 UV-I 104 W/m 8,5 C 8,6 C 14,5 km/h (3 Bft) 100,00 %
22.10.2017 11:38 10,1 C 11,1 C 90 % 1017,3 hPa 0,0 l/m 9,1 km/h (2 Bft) W-SW 248 0 min 0,000 mm 0,5 UV-I 101 W/m 8,5 C 8,2 C 16,1 km/h (3 Bft) 95,74 %
22.10.2017 11:40 10,1 C 11,1 C 89 % 1017,4 hPa 0,0 l/m 8,8 km/h (2 Bft) W-SW 237 0 min 0,000 mm 0,5 UV-I 107 W/m 8,4 C 8,4 C 14,5 km/h (3 Bft) 95,12 %
22.10.2017 11:42 10,1 C 11,1 C 89 % 1017,3 hPa 0,0 l/m 9,0 km/h (2 Bft) W-SW 251 0 min 0,000 mm 0,5 UV-I 127 W/m 8,4 C 8,3 C 14,5 km/h (3 Bft) 98,11 %
22.10.2017 11:44 10,1 C 11,1 C 90 % 1017,3 hPa 0,0 l/m 7,1 km/h (2 Bft) SW 234 0 min 0,000 mm 0,6 UV-I 140 W/m 8,5 C 9,6 C 9,7 km/h (2 Bft) 96,43 %
22.10.2017 11:46 10,2 C 11,1 C 89 % 1017,3 hPa 0,0 l/m 8,2 km/h (2 Bft) SW 219 0 min 0,000 mm 0,6 UV-I 150 W/m 8,5 C 8,9 C 12,9 km/h (3 Bft) 92,31 %
22.10.2017 11:48 10,2 C 11,1 C 89 % 1017,3 hPa 0,0 l/m 8,7 km/h (2 Bft) S-SW 202 0 min 0,000 mm 0,6 UV-I 141 W/m 8,5 C 8,6 C 16,1 km/h (3 Bft) 98,39 %
22.10.2017 11:50 10,2 C 11,1 C 89 % 1017,3 hPa 0,0 l/m 9,4 km/h (2 Bft) S-SW 200 0 min 0,000 mm 0,5 UV-I 124 W/m 8,5 C 8,2 C 16,1 km/h (3 Bft) 98,00 %
22.10.2017 11:52 10,2 C 11,1 C 88 % 1017,3 hPa 0,0 l/m 9,3 km/h (2 Bft) W-SW 257 0 min 0,000 mm 0,5 UV-I 119 W/m 8,3 C 8,2 C 14,5 km/h (3 Bft) 97,56 %
22.10.2017 11:54 10,2 C 11,1 C 88 % 1017,3 hPa 0,0 l/m 9,7 km/h (2 Bft) SW 219 0 min 0,000 mm 0,5 UV-I 122 W/m 8,3 C 8,0 C 12,9 km/h (3 Bft) 98,11 %
22.10.2017 11:56 10,2 C 11,1 C 89 % 1017,2 hPa 0,0 l/m 12,4 km/h (3 Bft) SW 217 0 min 0,000 mm 0,5 UV-I 135 W/m 8,5 C 6,5 C 17,7 km/h (3 Bft) 95,12 %
22.10.2017 11:58 10,2 C 11,1 C 89 % 1017,2 hPa 0,0 l/m 10,2 km/h (2 Bft) W-SW 237 0 min 0,000 mm 0,6 UV-I 153 W/m 8,5 C 7,7 C 14,5 km/h (3 Bft) 96,23 %
22.10.2017 12:00 10,3 C 11,1 C 89 % 1017,1 hPa 0,0 l/m 9,2 km/h (2 Bft) SW 222 0 min 0,077 mm 0,7 UV-I 176 W/m 8,6 C 8,4 C 14,5 km/h (3 Bft) 97,56 %
22.10.2017 12:02 10,3 C 11,1 C 89 % 1017,1 hPa 0,0 l/m 8,8 km/h (2 Bft) SW 228 0 min 0,000 mm 0,8 UV-I 197 W/m 8,6 C 8,6 C 12,9 km/h (3 Bft) 98,00 %
22.10.2017 12:04 10,4 C 11,1 C 89 % 1017,1 hPa 0,0 l/m 8,4 km/h (2 Bft) SW 236 0 min 0,000 mm 0,8 UV-I 193 W/m 8,7 C 9,0 C 16,1 km/h (3 Bft) 98,00 %
22.10.2017 12:06 10,4 C 11,1 C 88 % 1017,1 hPa 0,0 l/m 10,1 km/h (2 Bft) SW 220 0 min 0,000 mm 0,8 UV-I 187 W/m 8,5 C 8,0 C 16,1 km/h (3 Bft) 97,87 %
22.10.2017 12:08 10,5 C 11,1 C 88 % 1017,1 hPa 0,0 l/m 7,2 km/h (2 Bft) SW 221 0 min 0,000 mm 0,8 UV-I 197 W/m 8,6 C 9,9 C 11,3 km/h (2 Bft) 97,56 %
22.10.2017 12:10 10,6 C 11,1 C 88 % 1017,0 hPa 0,0 l/m 8,9 km/h (2 Bft) SW 230 0 min 0,000 mm 0,8 UV-I 189 W/m 8,7 C 8,9 C 17,7 km/h (3 Bft) 95,24 %
22.10.2017 12:12 10,6 C 11,1 C 88 % 1017,0 hPa 0,0 l/m 10,3 km/h (2 Bft) W-SW 238 0 min 0,000 mm 0,8 UV-I 174 W/m 8,7 C 8,1 C 16,1 km/h (3 Bft) 96,23 %
22.10.2017 12:14 10,6 C 11,1 C 88 % 1017,0 hPa 0,0 l/m 12,8 km/h (3 Bft) SW 234 0 min 0,000 mm 0,8 UV-I 167 W/m 8,7 C 6,8 C 17,7 km/h (3 Bft) 95,12 %
22.10.2017 12:16 10,7 C 11,7 C 88 % 1016,9 hPa 0,0 l/m 11,4 km/h (2 Bft) S-SW 209 0 min 0,000 mm 0,7 UV-I 159 W/m 8,8 C 7,6 C 16,1 km/h (3 Bft) 92,86 %
22.10.2017 12:18 10,7 C 11,1 C 88 % 1016,9 hPa 0,0 l/m 8,8 km/h (2 Bft) W-SW 245 0 min 0,000 mm 0,7 UV-I 161 W/m 8,8 C 9,1 C 14,5 km/h (3 Bft) 93,62 %
22.10.2017 12:20 10,7 C 11,1 C 87 % 1016,9 hPa 0,0 l/m 8,6 km/h (2 Bft) SW 220 0 min 0,000 mm 0,7 UV-I 170 W/m 8,6 C 9,2 C 12,9 km/h (3 Bft) 97,37 %
22.10.2017 12:22 10,8 C 11,1 C 88 % 1016,9 hPa 0,0 l/m 8,0 km/h (2 Bft) S-SW 199 0 min 0,000 mm 0,7 UV-I 170 W/m 8,9 C 9,7 C 14,5 km/h (3 Bft) 94,92 %
22.10.2017 12:24 10,8 C 11,1 C 88 % 1016,9 hPa 0,0 l/m 8,3 km/h (2 Bft) SW 225 0 min 0,000 mm 0,7 UV-I 163 W/m 8,9 C 9,5 C 11,3 km/h (2 Bft) 94,74 %
22.10.2017 12:26 10,8 C 11,1 C 87 % 1016,8 hPa 0,0 l/m 9,2 km/h (2 Bft) SW 222 0 min 0,000 mm 0,7 UV-I 166 W/m 8,7 C 8,9 C 12,9 km/h (3 Bft) 96,23 %
22.10.2017 12:28 10,8 C 11,1 C 88 % 1016,8 hPa 0,0 l/m 6,6 km/h (2 Bft) SW 229 0 min 0,000 mm 0,7 UV-I 162 W/m 8,9 C 10,7 C 11,3 km/h (2 Bft) 93,18 %
22.10.2017 12:30 10,8 C 11,1 C 88 % 1016,8 hPa 0,0 l/m 8,5 km/h (2 Bft) SW 221 0 min 0,000 mm 0,7 UV-I 155 W/m 8,9 C 9,4 C 16,1 km/h (3 Bft) 95,45 %
22.10.2017 12:32 10,8 C 11,1 C 87 % 1016,8 hPa 0,0 l/m 7,0 km/h (2 Bft) S-SW 194 0 min 0,000 mm 0,7 UV-I 149 W/m 8,7 C 10,4 C 11,3 km/h (2 Bft) 94,00 %
22.10.2017 12:34 10,8 C 11,1 C 87 % 1016,8 hPa 0,0 l/m 10,8 km/h (2 Bft) SW 227 0 min 0,000 mm 0,7 UV-I 153 W/m 8,7 C 8,0 C 16,1 km/h (3 Bft) 95,74 %
22.10.2017 12:36 10,8 C 11,7 C 87 % 1016,7 hPa 0,0 l/m 10,0 km/h (2 Bft) S-SW 208 0 min 0,000 mm 0,7 UV-I 162 W/m 8,7 C 8,5 C 17,7 km/h (3 Bft) 97,56 %
22.10.2017 12:38 10,9 C 11,7 C 87 % 1016,7 hPa 0,0 l/m 9,9 km/h (2 Bft) SW 218 0 min 0,000 mm 0,7 UV-I 171 W/m 8,8 C 8,6 C 17,7 km/h (3 Bft) 95,74 %
22.10.2017 12:40 10,9 C 11,1 C 87 % 1016,7 hPa 0,0 l/m 11,3 km/h (2 Bft) SW 227 0 min 0,000 mm 0,8 UV-I 178 W/m 8,8 C 7,9 C 19,3 km/h (3 Bft) 97,73 %
22.10.2017 12:42 10,9 C 11,1 C 86 % 1016,8 hPa 0,0 l/m 14,7 km/h (3 Bft) SW 229 0 min 0,000 mm 0,8 UV-I 183 W/m 8,7 C 6,3 C 20,9 km/h (4 Bft) 98,11 %
22.10.2017 12:44 10,9 C 11,1 C 87 % 1016,7 hPa 0,0 l/m 13,1 km/h (3 Bft) S-SW 204 0 min 0,000 mm 0,8 UV-I 185 W/m 8,8 C 7,0 C 22,5 km/h (4 Bft) 100,00 %
22.10.2017 12:46 11,0 C 11,1 C 86 % 1016,7 hPa 0,0 l/m 14,1 km/h (3 Bft) SW 230 0 min 0,000 mm 0,8 UV-I 188 W/m 8,7 C 6,7 C 19,3 km/h (3 Bft) 96,43 %
22.10.2017 12:48 11,0 C 11,1 C 86 % 1016,7 hPa 0,0 l/m 12,2 km/h (2 Bft) W-SW 250 0 min 0,000 mm 0,8 UV-I 192 W/m 8,7 C 7,6 C 20,9 km/h (4 Bft) 100,00 %
22.10.2017 12:50 11,0 C 11,7 C 86 % 1016,7 hPa 0,0 l/m 13,3 km/h (3 Bft) W-SW 239 0 min 0,000 mm 0,8 UV-I 189 W/m 8,7 C 7,1 C 20,9 km/h (4 Bft) 100,00 %
22.10.2017 12:52 11,0 C 11,7 C 85 % 1016,7 hPa 0,0 l/m 15,8 km/h (3 Bft) W-SW 257 0 min 0,000 mm 0,8 UV-I 191 W/m 8,6 C 6,0 C 24,1 km/h (4 Bft) 100,00 %
22.10.2017 12:54 11,0 C 11,7 C 85 % 1016,7 hPa 0,0 l/m 20,7 km/h (4 Bft) SW 224 0 min 0,000 mm 0,9 UV-I 196 W/m 8,6 C 4,4 C 32,2 km/h (5 Bft) 100,00 %
22.10.2017 12:56 11,0 C 11,7 C 85 % 1016,6 hPa 0,0 l/m 15,8 km/h (3 Bft) SW 216 0 min 0,000 mm 0,8 UV-I 192 W/m 8,6 C 6,0 C 25,7 km/h (4 Bft) 97,56 %
22.10.2017 12:58 11,0 C 11,7 C 85 % 1016,6 hPa 0,0 l/m 15,3 km/h (3 Bft) SW 229 0 min 0,000 mm 0,8 UV-I 180 W/m 8,6 C 6,2 C 24,1 km/h (4 Bft) 98,00 %
22.10.2017 13:00 11,0 C 11,7 C 85 % 1016,7 hPa 0,0 l/m 15,9 km/h (3 Bft) SW 229 0 min 0,101 mm 0,8 UV-I 175 W/m 8,6 C 6,0 C 20,9 km/h (4 Bft) 100,00 %
22.10.2017 13:02 11,1 C 11,7 C 85 % 1016,6 hPa 0,0 l/m 18,6 km/h (3 Bft) SW 221 0 min 0,000 mm 0,8 UV-I 171 W/m 8,7 C 5,2 C 25,7 km/h (4 Bft) 100,00 %
22.10.2017 13:04 11,0 C 11,7 C 85 % 1016,5 hPa 0,0 l/m 15,4 km/h (3 Bft) W-SW 242 0 min 0,000 mm 0,7 UV-I 164 W/m 8,6 C 6,2 C 24,1 km/h (4 Bft) 100,00 %
22.10.2017 13:06 11,1 C 11,7 C 85 % 1016,5 hPa 0,0 l/m 11,6 km/h (2 Bft) SW 217 0 min 0,000 mm 0,7 UV-I 161 W/m 8,7 C 8,0 C 16,1 km/h (3 Bft) 98,21 %
22.10.2017 13:08 11,1 C 11,7 C 85 % 1016,5 hPa 0,0 l/m 14,0 km/h (3 Bft) S-SW 208 0 min 0,000 mm 0,7 UV-I 151 W/m 8,7 C 6,9 C 19,3 km/h (3 Bft) 100,00 %
22.10.2017 13:10 11,1 C 11,7 C 85 % 1016,4 hPa 0,0 l/m 15,2 km/h (3 Bft) W-SW 240 0 min 0,000 mm 0,6 UV-I 135 W/m 8,7 C 6,4 C 27,4 km/h (4 Bft) 97,73 %
22.10.2017 13:12 11,1 C 11,7 C 85 % 1016,4 hPa 0,0 l/m 15,2 km/h (3 Bft) W-SW 247 0 min 0,000 mm 0,5 UV-I 118 W/m 8,7 C 6,4 C 27,4 km/h (4 Bft) 100,00 %
22.10.2017 13:14 11,0 C 11,7 C 84 % 1016,4 hPa 0,0 l/m 16,8 km/h (3 Bft) SW 221 0 min 0,000 mm 0,5 UV-I 111 W/m 8,4 C 5,7 C 29,0 km/h (5 Bft) 100,00 %
22.10.2017 13:16 11,0 C 11,7 C 84 % 1016,4 hPa 0,0 l/m 14,7 km/h (3 Bft) S-SW 196 0 min 0,000 mm 0,5 UV-I 124 W/m 8,4 C 6,5 C 20,9 km/h (4 Bft) 98,11 %
22.10.2017 13:18 11,0 C 11,7 C 85 % 1016,3 hPa 0,0 l/m 11,7 km/h (2 Bft) W-SW 239 0 min 0,000 mm 0,6 UV-I 137 W/m 8,6 C 7,8 C 19,3 km/h (3 Bft) 100,00 %
22.10.2017 13:20 11,0 C 11,7 C 85 % 1016,3 hPa 0,0 l/m 15,0 km/h (3 Bft) W-SW 252 0 min 0,000 mm 0,6 UV-I 148 W/m 8,6 C 6,3 C 22,5 km/h (4 Bft) 100,00 %
22.10.2017 13:22 11,1 C 11,7 C 85 % 1016,3 hPa 0,0 l/m 13,2 km/h (3 Bft) SW 236 0 min 0,000 mm 0,6 UV-I 154 W/m 8,7 C 7,2 C 19,3 km/h (3 Bft) 100,00 %
22.10.2017 13:24 11,1 C 11,7 C 85 % 1016,2 hPa 0,0 l/m 14,7 km/h (3 Bft) W-SW 252 0 min 0,000 mm 0,6 UV-I 155 W/m 8,7 C 6,6 C 20,9 km/h (4 Bft) 100,00 %
22.10.2017 13:26 11,1 C 11,7 C 85 % 1016,2 hPa 0,0 l/m 12,0 km/h (2 Bft) SW 236 0 min 0,000 mm 0,6 UV-I 155 W/m 8,7 C 7,8 C 20,9 km/h (4 Bft) 98,11 %
22.10.2017 13:28 11,1 C 11,7 C 85 % 1016,2 hPa 0,0 l/m 14,8 km/h (3 Bft) W-SW 242 0 min 0,000 mm 0,7 UV-I 158 W/m 8,7 C 6,5 C 24,1 km/h (4 Bft) 100,00 %
22.10.2017 13:30 11,1 C 11,7 C 85 % 1016,2 hPa 0,0 l/m 12,8 km/h (3 Bft) SW 223 0 min 0,000 mm 0,7 UV-I 159 W/m 8,7 C 7,4 C 17,7 km/h (3 Bft) 100,00 %
22.10.2017 13:32 11,1 C 11,7 C 85 % 1016,1 hPa 0,0 l/m 11,7 km/h (2 Bft) W-SW 240 0 min 0,000 mm 0,7 UV-I 160 W/m 8,7 C 7,9 C 16,1 km/h (3 Bft) 100,00 %
22.10.2017 13:34 11,1 C 11,7 C 85 % 1016,1 hPa 0,0 l/m 12,7 km/h (3 Bft) SW 234 0 min 0,000 mm 0,7 UV-I 160 W/m 8,7 C 7,5 C 20,9 km/h (4 Bft) 100,00 %
22.10.2017 13:36 11,2 C 11,7 C 85 % 1016,1 hPa 0,0 l/m 9,4 km/h (2 Bft) W-SW 242 0 min 0,000 mm 0,7 UV-I 159 W/m 8,8 C 9,3 C 14,5 km/h (3 Bft) 100,00 %
22.10.2017 13:38 11,2 C 11,7 C 86 % 1016,0 hPa 0,0 l/m 13,4 km/h (3 Bft) S-SW 199 0 min 0,000 mm 0,7 UV-I 158 W/m 8,9 C 7,3 C 22,5 km/h (4 Bft) 100,00 %
22.10.2017 13:40 11,2 C 11,7 C 84 % 1016,1 hPa 0,0 l/m 16,0 km/h (3 Bft) SW 221 0 min 0,000 mm 0,7 UV-I 162 W/m 8,6 C 6,2 C 22,5 km/h (4 Bft) 95,12 %
22.10.2017 13:42 11,2 C 11,7 C 84 % 1015,9 hPa 0,0 l/m 14,6 km/h (3 Bft) SW 215 0 min 0,000 mm 0,7 UV-I 170 W/m 8,6 C 6,7 C 24,1 km/h (4 Bft) 100,00 %
22.10.2017 13:44 11,3 C 11,7 C 84 % 1015,9 hPa 0,0 l/m 11,3 km/h (2 Bft) SW 217 0 min 0,000 mm 0,7 UV-I 177 W/m 8,7 C 8,4 C 19,3 km/h (3 Bft) 100,00 %
22.10.2017 13:46 11,3 C 11,7 C 84 % 1015,8 hPa 0,0 l/m 11,8 km/h (2 Bft) SW 218 0 min 0,000 mm 0,7 UV-I 177 W/m 8,7 C 8,1 C 17,7 km/h (3 Bft) 100,00 %
22.10.2017 13:48 11,3 C 11,7 C 83 % 1016,0 hPa 0,0 l/m 17,1 km/h (3 Bft) W-SW 252 0 min 0,000 mm 0,7 UV-I 175 W/m 8,5 C 5,9 C 25,7 km/h (4 Bft) 100,00 %
22.10.2017 13:50 11,3 C 11,7 C 82 % 1016,0 hPa 0,0 l/m 21,6 km/h (4 Bft) W 268 0 min 0,000 mm 0,7 UV-I 173 W/m 8,3 C 4,5 C 32,2 km/h (5 Bft) 100,00 %
22.10.2017 13:52 11,3 C 11,7 C 81 % 1015,9 hPa 0,0 l/m 21,8 km/h (4 Bft) W-SW 238 0 min 0,000 mm 0,7 UV-I 176 W/m 8,2 C 4,4 C 33,8 km/h (5 Bft) 100,00 %
22.10.2017 13:54 11,3 C 11,7 C 82 % 1015,8 hPa 0,0 l/m 17,6 km/h (3 Bft) W-SW 256 0 min 0,000 mm 0,7 UV-I 176 W/m 8,3 C 5,7 C 25,7 km/h (4 Bft) 100,00 %
22.10.2017 13:56 11,3 C 11,7 C 81 % 1015,8 hPa 0,0 l/m 16,5 km/h (3 Bft) SW 229 0 min 0,000 mm 0,7 UV-I 174 W/m 8,2 C 6,1 C 24,1 km/h (4 Bft) 97,56 %
22.10.2017 13:58 11,3 C 11,7 C 82 % 1015,7 hPa 0,0 l/m 15,1 km/h (3 Bft) SW 229 0 min 0,000 mm 0,7 UV-I 168 W/m 8,3 C 6,7 C 22,5 km/h (4 Bft) 97,87 %
22.10.2017 14:00 11,3 C 11,7 C 82 % 1015,7 hPa 0,0 l/m 13,9 km/h (3 Bft) W-SW 242 0 min 0,102 mm 0,7 UV-I 162 W/m 8,3 C 7,2 C 22,5 km/h (4 Bft) 98,00 %
22.10.2017 14:02 11,3 C 11,7 C 82 % 1015,7 hPa 0,0 l/m 14,4 km/h (3 Bft) SW 227 0 min 0,000 mm 0,6 UV-I 158 W/m 8,3 C 7,0 C 22,5 km/h (4 Bft) 98,00 %
22.10.2017 14:04 11,4 C 11,7 C 83 % 1015,7 hPa 0,0 l/m 11,5 km/h (2 Bft) W 259 0 min 0,000 mm 0,6 UV-I 154 W/m 8,6 C 8,4 C 19,3 km/h (3 Bft) 100,00 %
22.10.2017 14:06 11,4 C 11,7 C 82 % 1015,7 hPa 0,0 l/m 15,5 km/h (3 Bft) W-SW 244 0 min 0,000 mm 0,6 UV-I 151 W/m 8,4 C 6,6 C 25,7 km/h (4 Bft) 100,00 %
22.10.2017 14:08 11,4 C 11,7 C 82 % 1015,7 hPa 0,0 l/m 15,8 km/h (3 Bft) W 279 0 min 0,000 mm 0,6 UV-I 156 W/m 8,4 C 6,5 C 22,5 km/h (4 Bft) 100,00 %
22.10.2017 14:10 11,4 C 11,7 C 82 % 1015,7 hPa 0,0 l/m 16,8 km/h (3 Bft) SW 218 0 min 0,000 mm 0,6 UV-I 167 W/m 8,4 C 6,2 C 22,5 km/h (4 Bft) 100,00 %
22.10.2017 14:12 11,4 C 11,7 C 82 % 1015,7 hPa 0,0 l/m 15,2 km/h (3 Bft) SW 232 0 min 0,000 mm 0,7 UV-I 176 W/m 8,4 C 6,8 C 24,1 km/h (4 Bft) 96,55 %
22.10.2017 14:14 11,4 C 11,7 C 82 % 1015,6 hPa 0,0 l/m 18,0 km/h (3 Bft) W-SW 250 0 min 0,000 mm 0,7 UV-I 176 W/m 8,4 C 5,7 C 29,0 km/h (5 Bft) 100,00 %
22.10.2017 14:16 11,5 C 11,7 C 82 % 1015,6 hPa 0,0 l/m 13,6 km/h (3 Bft) W-SW 252 0 min 0,000 mm 0,7 UV-I 166 W/m 8,5 C 7,5 C 17,7 km/h (3 Bft) 93,62 %
22.10.2017 14:18 11,5 C 11,7 C 82 % 1015,6 hPa 0,0 l/m 15,0 km/h (3 Bft) SW 234 0 min 0,000 mm 0,7 UV-I 167 W/m 8,5 C 7,0 C 20,9 km/h (4 Bft) 97,87 %
22.10.2017 14:20 11,5 C 11,7 C 82 % 1015,6 hPa 0,0 l/m 12,2 km/h (2 Bft) S 187 0 min 0,000 mm 0,6 UV-I 161 W/m 8,5 C 8,1 C 17,7 km/h (3 Bft) 98,11 %
22.10.2017 14:22 11,6 C 11,7 C 82 % 1015,6 hPa 0,0 l/m 10,3 km/h (2 Bft) W 267 0 min 0,000 mm 0,6 UV-I 145 W/m 8,6 C 9,2 C 14,5 km/h (3 Bft) 95,45 %
22.10.2017 14:24 11,6 C 11,7 C 81 % 1015,6 hPa 0,0 l/m 11,9 km/h (2 Bft) S-SW 205 0 min 0,000 mm 0,5 UV-I 136 W/m 8,5 C 8,4 C 22,5 km/h (4 Bft) 96,00 %
22.10.2017 14:26 11,6 C 11,7 C 82 % 1015,6 hPa 0,0 l/m 11,2 km/h (2 Bft) W-SW 238 0 min 0,000 mm 0,5 UV-I 131 W/m 8,6 C 8,7 C 17,7 km/h (3 Bft) 95,65 %
22.10.2017 14:28 11,6 C 11,7 C 81 % 1015,6 hPa 0,0 l/m 15,5 km/h (3 Bft) SW 223 0 min 0,000 mm 0,5 UV-I 128 W/m 8,5 C 6,9 C 24,1 km/h (4 Bft) 98,46 %
22.10.2017 14:30 11,6 C 11,7 C 81 % 1015,5 hPa 0,0 l/m 9,3 km/h (2 Bft) S-SW 201 0 min 0,000 mm 0,5 UV-I 130 W/m 8,5 C 9,8 C 14,5 km/h (3 Bft) 98,00 %
22.10.2017 14:32 11,6 C 11,7 C 81 % 1015,5 hPa 0,0 l/m 12,8 km/h (3 Bft) W-SW 245 0 min 0,000 mm 0,5 UV-I 128 W/m 8,5 C 8,0 C 22,5 km/h (4 Bft) 96,00 %
22.10.2017 14:34 11,6 C 11,7 C 81 % 1015,5 hPa 0,0 l/m 12,6 km/h (3 Bft) W 267 0 min 0,000 mm 0,4 UV-I 116 W/m 8,5 C 8,1 C 20,9 km/h (4 Bft) 95,45 %
22.10.2017 14:36 11,6 C 11,7 C 81 % 1015,6 hPa 0,0 l/m 11,3 km/h (2 Bft) SW 218 0 min 0,000 mm 0,0 UV-I 107 W/m 8,5 C 8,7 C 17,7 km/h (3 Bft) 97,87 %
22.10.2017 14:38 11,5 C 11,7 C 81 % 1015,6 hPa 0,0 l/m 8,9 km/h (2 Bft) W-SW 243 0 min 0,000 mm 0,2 UV-I 117 W/m 8,4 C 9,9 C 16,1 km/h (3 Bft) 97,37 %
22.10.2017 14:40 11,5 C 11,7 C 81 % 1015,5 hPa 0,0 l/m 15,9 km/h (3 Bft) W-SW 240 0 min 0,000 mm 0,4 UV-I 126 W/m 8,4 C 6,6 C 22,5 km/h (4 Bft) 98,11 %
22.10.2017 14:42 11,5 C 11,7 C 81 % 1015,6 hPa 0,0 l/m 14,7 km/h (3 Bft) S 169 0 min 0,000 mm 0,0 UV-I 121 W/m 8,4 C 7,1 C 22,5 km/h (4 Bft) 96,23 %
22.10.2017 14:44 11,5 C 11,7 C 81 % 1015,6 hPa 0,0 l/m 11,6 km/h (2 Bft) S 191 0 min 0,000 mm 0,0 UV-I 110 W/m 8,4 C 8,4 C 20,9 km/h (4 Bft) 97,37 %
22.10.2017 14:46 11,5 C 11,7 C 81 % 1015,6 hPa 0,0 l/m 16,1 km/h (3 Bft) W 267 0 min 0,000 mm 0,0 UV-I 103 W/m 8,4 C 6,5 C 22,5 km/h (4 Bft) 100,00 %
22.10.2017 14:48 11,5 C 11,7 C 81 % 1015,6 hPa 0,0 l/m 15,7 km/h (3 Bft) SW 228 0 min 0,000 mm 0,0 UV-I 96 W/m 8,4 C 6,7 C 22,5 km/h (4 Bft) 100,00 %
22.10.2017 14:50 11,4 C 11,7 C 81 % 1015,6 hPa 0,0 l/m 16,4 km/h (3 Bft) W-SW 241 0 min 0,000 mm 0,0 UV-I 96 W/m 8,3 C 6,3 C 24,1 km/h (4 Bft) 100,00 %
22.10.2017 14:52 11,4 C 11,7 C 81 % 1015,5 hPa 0,0 l/m 16,1 km/h (3 Bft) W-SW 238 0 min 0,000 mm 0,0 UV-I 103 W/m 8,3 C 6,4 C 24,1 km/h (4 Bft) 100,00 %
22.10.2017 14:54 11,4 C 11,7 C 81 % 1015,5 hPa 0,0 l/m 14,7 km/h (3 Bft) SW 236 0 min 0,000 mm 0,0 UV-I 119 W/m 8,3 C 6,9 C 24,1 km/h (4 Bft) 100,00 %
22.10.2017 14:56 11,4 C 11,7 C 81 % 1015,5 hPa 0,0 l/m 13,8 km/h (3 Bft) W 261 0 min 0,000 mm 0,0 UV-I 128 W/m 8,3 C 7,3 C 22,5 km/h (4 Bft) 100,00 %
22.10.2017 14:58 11,4 C 11,7 C 80 % 1015,5 hPa 0,0 l/m 13,1 km/h (3 Bft) SW 221 0 min 0,000 mm 0,0 UV-I 124 W/m 8,1 C 7,6 C 19,3 km/h (3 Bft) 100,00 %
22.10.2017 15:00 11,4 C 11,7 C 81 % 1015,5 hPa 0,0 l/m 12,6 km/h (3 Bft) W-SW 248 0 min 0,101 mm 0,0 UV-I 112 W/m 8,3 C 7,8 C 16,1 km/h (3 Bft) 100,00 %
22.10.2017 15:02 11,4 C 11,7 C 81 % 1015,4 hPa 0,0 l/m 13,2 km/h (3 Bft) W-SW 256 0 min 0,000 mm 0,0 UV-I 110 W/m 8,3 C 7,6 C 20,9 km/h (4 Bft) 97,37 %
22.10.2017 15:04 11,4 C 11,7 C 80 % 1015,3 hPa 0,0 l/m 12,5 km/h (3 Bft) SW 216 0 min 0,000 mm 0,0 UV-I 115 W/m 8,1 C 7,9 C 22,5 km/h (4 Bft) 100,00 %
22.10.2017 15:06 11,4 C 11,7 C 79 % 1015,3 hPa 0,0 l/m 17,1 km/h (3 Bft) SW 234 0 min 0,000 mm 0,0 UV-I 117 W/m 7,9 C 6,0 C 25,7 km/h (4 Bft) 100,00 %
22.10.2017 15:08 11,4 C 11,7 C 79 % 1015,3 hPa 0,0 l/m 16,3 km/h (3 Bft) W-SW 243 0 min 0,000 mm 0,0 UV-I 119 W/m 7,9 C 6,3 C 25,7 km/h (4 Bft) 100,00 %
22.10.2017 15:10 11,4 C 11,7 C 79 % 1015,3 hPa 0,0 l/m 11,3 km/h (2 Bft) W-SW 239 0 min 0,000 mm 0,0 UV-I 124 W/m 7,9 C 8,5 C 16,1 km/h (3 Bft) 100,00 %
22.10.2017 15:12 11,4 C 11,7 C 79 % 1015,2 hPa 0,0 l/m 14,6 km/h (3 Bft) W-SW 254 0 min 0,000 mm 0,0 UV-I 125 W/m 7,9 C 7,0 C 22,5 km/h (4 Bft) 98,11 %
22.10.2017 15:14 11,4 C 11,7 C 78 % 1015,2 hPa 0,0 l/m 15,8 km/h (3 Bft) W-SW 250 0 min 0,000 mm 0,0 UV-I 122 W/m 7,7 C 6,5 C 24,1 km/h (4 Bft) 97,73 %
22.10.2017 15:16 11,4 C 11,7 C 77 % 1015,2 hPa 0,0 l/m 18,3 km/h (3 Bft) W 259 0 min 0,000 mm 0,0 UV-I 120 W/m 7,5 C 5,6 C 25,7 km/h (4 Bft) 100,00 %
22.10.2017 15:18 11,4 C 11,7 C 77 % 1015,2 hPa 0,0 l/m 15,4 km/h (3 Bft) W-SW 245 0 min 0,000 mm 0,0 UV-I 120 W/m 7,5 C 6,7 C 22,5 km/h (4 Bft) 97,73 %
22.10.2017 15:20 11,4 C 11,7 C 77 % 1015,2 hPa 0,0 l/m 14,7 km/h (3 Bft) W-SW 240 0 min 0,000 mm 0,0 UV-I 127 W/m 7,5 C 6,9 C 19,3 km/h (3 Bft) 100,00 %
22.10.2017 15:22 11,4 C 11,7 C 77 % 1015,2 hPa 0,0 l/m 13,7 km/h (3 Bft) W-SW 252 0 min 0,000 mm 0,0 UV-I 139 W/m 7,5 C 7,4 C 20,9 km/h (4 Bft) 100,00 %
22.10.2017 15:24 11,4 C 11,7 C 77 % 1015,1 hPa 0,0 l/m 15,1 km/h (3 Bft) W 274 0 min 0,000 mm 0,0 UV-I 143 W/m 7,5 C 6,8 C 20,9 km/h (4 Bft) 97,62 %
22.10.2017 15:26 11,4 C 11,7 C 76 % 1015,1 hPa 0,0 l/m 17,6 km/h (3 Bft) W-SW 244 0 min 0,000 mm 0,0 UV-I 145 W/m 7,3 C 5,9 C 27,4 km/h (4 Bft) 96,36 %
22.10.2017 15:28 11,5 C 11,7 C 76 % 1015,1 hPa 0,0 l/m 17,6 km/h (3 Bft) W 271 0 min 0,000 mm 0,0 UV-I 149 W/m 7,4 C 6,0 C 30,6 km/h (5 Bft) 97,92 %
22.10.2017 15:30 11,5 C 11,7 C 76 % 1015,0 hPa 0,0 l/m 14,9 km/h (3 Bft) W 260 0 min 0,000 mm 0,0 UV-I 149 W/m 7,4 C 7,0 C 25,7 km/h (4 Bft) 97,37 %
22.10.2017 15:32 11,5 C 11,7 C 76 % 1015,0 hPa 0,0 l/m 18,5 km/h (3 Bft) W-SW 240 0 min 0,000 mm 0,0 UV-I 133 W/m 7,4 C 5,7 C 25,7 km/h (4 Bft) 96,23 %
22.10.2017 15:34 11,5 C 11,7 C 76 % 1015,0 hPa 0,0 l/m 13,6 km/h (3 Bft) W-SW 254 0 min 0,000 mm 0,0 UV-I 126 W/m 7,4 C 7,5 C 24,1 km/h (4 Bft) 98,00 %
22.10.2017 15:36 11,5 C 11,7 C 76 % 1014,9 hPa 0,0 l/m 15,3 km/h (3 Bft) W 267 0 min 0,000 mm 0,0 UV-I 130 W/m 7,4 C 6,8 C 22,5 km/h (4 Bft) 98,11 %
22.10.2017 15:38 11,5 C 11,7 C 76 % 1015,0 hPa 0,0 l/m 14,5 km/h (3 Bft) W 261 0 min 0,000 mm 0,0 UV-I 137 W/m 7,4 C 7,2 C 19,3 km/h (3 Bft) 97,56 %
22.10.2017 15:40 11,5 C 11,7 C 76 % 1015,1 hPa 0,0 l/m 11,1 km/h (2 Bft) W-SW 240 0 min 0,000 mm 0,0 UV-I 147 W/m 7,4 C 8,7 C 17,7 km/h (3 Bft) 98,00 %
22.10.2017 15:42 11,6 C 11,7 C 77 % 1015,1 hPa 0,0 l/m 14,9 km/h (3 Bft) W-SW 256 0 min 0,000 mm 0,0 UV-I 153 W/m 7,7 C 7,1 C 22,5 km/h (4 Bft) 94,74 %
22.10.2017 15:44 11,6 C 11,7 C 77 % 1015,1 hPa 0,0 l/m 14,3 km/h (3 Bft) SW 226 0 min 0,000 mm 0,0 UV-I 146 W/m 7,7 C 7,4 C 17,7 km/h (3 Bft) 98,11 %
22.10.2017 15:46 11,6 C 11,7 C 76 % 1015,1 hPa 0,0 l/m 13,3 km/h (3 Bft) SW 235 0 min 0,000 mm 0,0 UV-I 137 W/m 7,5 C 7,8 C 20,9 km/h (4 Bft) 97,87 %
22.10.2017 15:48 11,6 C 11,7 C 76 % 1015,1 hPa 0,0 l/m 15,0 km/h (3 Bft) W-NW 290 0 min 0,000 mm 0,0 UV-I 127 W/m 7,5 C 7,1 C 24,1 km/h (4 Bft) 97,14 %
22.10.2017 15:50 11,6 C 11,7 C 76 % 1015,0 hPa 0,0 l/m 19,4 km/h (3 Bft) W-SW 254 0 min 0,000 mm 0,0 UV-I 125 W/m 7,5 C 5,5 C 25,7 km/h (4 Bft) 96,23 %
22.10.2017 15:52 11,6 C 11,7 C 76 % 1015,0 hPa 0,0 l/m 14,7 km/h (3 Bft) W 266 0 min 0,000 mm 0,0 UV-I 120 W/m 7,5 C 7,2 C 20,9 km/h (4 Bft) 96,43 %
22.10.2017 15:54 11,6 C 11,7 C 76 % 1015,0 hPa 0,0 l/m 15,6 km/h (3 Bft) W 267 0 min 0,000 mm 0,0 UV-I 120 W/m 7,5 C 6,8 C 24,1 km/h (4 Bft) 97,73 %
22.10.2017 15:56 11,5 C 11,7 C 76 % 1014,9 hPa 0,0 l/m 10,3 km/h (2 Bft) W-SW 254 0 min 0,000 mm 0,0 UV-I 118 W/m 7,4 C 9,1 C 19,3 km/h (3 Bft) 95,74 %
22.10.2017 15:58 11,6 C 11,7 C 77 % 1014,9 hPa 0,0 l/m 12,4 km/h (3 Bft) W-SW 254 0 min 0,000 mm 0,0 UV-I 110 W/m 7,7 C 8,2 C 19,3 km/h (3 Bft) 95,74 %
22.10.2017 16:00 11,5 C 11,7 C 77 % 1014,9 hPa 0,0 l/m 10,1 km/h (2 Bft) W 264 0 min 0,000 mm 0,0 UV-I 109 W/m 7,6 C 9,2 C 16,1 km/h (3 Bft) 97,56 %
22.10.2017 16:02 11,5 C 11,7 C 77 % 1014,9 hPa 0,0 l/m 10,0 km/h (2 Bft) W 273 0 min 0,102 mm 0,0 UV-I 112 W/m 7,6 C 9,3 C 14,5 km/h (3 Bft) 98,21 %
22.10.2017 16:04 11,5 C 11,7 C 78 % 1014,8 hPa 0,0 l/m 10,2 km/h (2 Bft) W 265 0 min 0,000 mm 0,0 UV-I 109 W/m 7,8 C 9,1 C 19,3 km/h (3 Bft) 94,74 %
22.10.2017 16:06 11,5 C 11,7 C 77 % 1014,9 hPa 0,0 l/m 11,5 km/h (2 Bft) W-SW 238 0 min 0,000 mm 0,0 UV-I 112 W/m 7,6 C 8,5 C 19,3 km/h (3 Bft) 98,11 %
22.10.2017 16:08 11,5 C 11,7 C 78 % 1014,9 hPa 0,0 l/m 14,8 km/h (3 Bft) W-SW 254 0 min 0,000 mm 0,0 UV-I 111 W/m 7,8 C 7,0 C 22,5 km/h (4 Bft) 97,78 %
22.10.2017 16:10 11,5 C 11,7 C 77 % 1014,8 hPa 0,0 l/m 13,4 km/h (3 Bft) W-SW 250 0 min 0,000 mm 0,0 UV-I 103 W/m 7,6 C 7,6 C 20,9 km/h (4 Bft) 97,56 %
22.10.2017 16:12 11,5 C 11,7 C 76 % 1014,8 hPa 0,0 l/m 17,4 km/h (3 Bft) SW 235 0 min 0,000 mm 0,0 UV-I 93 W/m 7,4 C 6,1 C 25,7 km/h (4 Bft) 98,00 %
22.10.2017 16:14 11,4 C 11,7 C 75 % 1014,8 hPa 0,0 l/m 15,0 km/h (3 Bft) SW 236 0 min 0,000 mm 0,0 UV-I 85 W/m 7,1 C 6,8 C 22,5 km/h (4 Bft) 95,74 %
22.10.2017 16:16 11,5 C 11,7 C 76 % 1014,8 hPa 0,0 l/m 14,5 km/h (3 Bft) W-SW 248 0 min 0,000 mm 0,0 UV-I 82 W/m 7,4 C 7,2 C 22,5 km/h (4 Bft) 92,00 %
22.10.2017 16:18 11,4 C 11,7 C 75 % 1014,8 hPa 0,0 l/m 15,4 km/h (3 Bft) W-SW 247 0 min 0,000 mm 0,0 UV-I 82 W/m 7,1 C 6,7 C 20,9 km/h (4 Bft) 95,45 %
22.10.2017 16:20 11,4 C 11,7 C 75 % 1014,8 hPa 0,0 l/m 15,1 km/h (3 Bft) SW 219 0 min 0,000 mm 0,0 UV-I 84 W/m 7,1 C 6,8 C 22,5 km/h (4 Bft) 95,12 %
22.10.2017 16:22 11,4 C 11,7 C 75 % 1014,8 hPa 0,0 l/m 17,7 km/h (3 Bft) W 265 0 min 0,000 mm 0,0 UV-I 86 W/m 7,1 C 5,8 C 30,6 km/h (5 Bft) 95,12 %
22.10.2017 16:24 11,4 C 11,7 C 76 % 1014,7 hPa 0,0 l/m 12,8 km/h (3 Bft) W-SW 254 0 min 0,000 mm 0,0 UV-I 83 W/m 7,3 C 7,8 C 19,3 km/h (3 Bft) 96,92 %
22.10.2017 16:26 11,4 C 11,7 C 76 % 1014,8 hPa 0,0 l/m 14,0 km/h (3 Bft) W-SW 243 0 min 0,000 mm 0,0 UV-I 81 W/m 7,3 C 7,2 C 19,3 km/h (3 Bft) 94,74 %
22.10.2017 16:28 11,3 C 11,7 C 75 % 1014,7 hPa 0,0 l/m 16,4 km/h (3 Bft) S-SW 212 0 min 0,000 mm 0,0 UV-I 79 W/m 7,0 C 6,2 C 22,5 km/h (4 Bft) 96,00 %
22.10.2017 16:30 11,3 C 11,7 C 76 % 1014,7 hPa 0,0 l/m 16,0 km/h (3 Bft) W-SW 243 0 min 0,000 mm 0,0 UV-I 79 W/m 7,2 C 6,3 C 24,1 km/h (4 Bft) 93,18 %
22.10.2017 16:32 11,3 C 11,7 C 76 % 1014,7 hPa 0,0 l/m 10,8 km/h (2 Bft) SW 225 0 min 0,000 mm 0,0 UV-I 80 W/m 7,2 C 8,6 C 20,9 km/h (4 Bft) 96,23 %
22.10.2017 16:34 11,3 C 11,7 C 75 % 1014,7 hPa 0,0 l/m 13,8 km/h (3 Bft) W-SW 238 0 min 0,000 mm 0,0 UV-I 77 W/m 7,0 C 7,2 C 20,9 km/h (4 Bft) 95,12 %
22.10.2017 16:36 11,3 C 11,7 C 75 % 1014,6 hPa 0,0 l/m 13,3 km/h (3 Bft) W-SW 244 0 min 0,000 mm 0,0 UV-I 66 W/m 7,0 C 7,4 C 27,4 km/h (4 Bft) 96,23 %
22.10.2017 16:38 11,3 C 11,7 C 75 % 1014,6 hPa 0,0 l/m 15,4 km/h (3 Bft) SW 225 0 min 0,000 mm 0,0 UV-I 58 W/m 7,0 C 6,6 C 20,9 km/h (4 Bft) 97,73 %
22.10.2017 16:40 11,3 C 11,7 C 75 % 1014,7 hPa 0,0 l/m 12,6 km/h (3 Bft) SW 223 0 min 0,000 mm 0,0 UV-I 54 W/m 7,0 C 7,7 C 17,7 km/h (3 Bft) 96,00 %
22.10.2017 16:42 11,2 C 11,7 C 75 % 1014,6 hPa 0,0 l/m 15,7 km/h (3 Bft) SW 235 0 min 0,000 mm 0,0 UV-I 53 W/m 6,9 C 6,3 C 20,9 km/h (4 Bft) 97,73 %
22.10.2017 16:44 11,2 C 11,7 C 76 % 1014,6 hPa 0,0 l/m 15,7 km/h (3 Bft) W-SW 240 0 min 0,000 mm 0,0 UV-I 51 W/m 7,1 C 6,3 C 22,5 km/h (4 Bft) 96,00 %
22.10.2017 16:46 11,2 C 11,7 C 76 % 1014,6 hPa 0,0 l/m 11,4 km/h (2 Bft) W-NW 289 0 min 0,000 mm 0,0 UV-I 49 W/m 7,1 C 8,2 C 17,7 km/h (3 Bft) 100,00 %
22.10.2017 16:48 11,2 C 11,7 C 77 % 1014,6 hPa 0,0 l/m 12,3 km/h (3 Bft) SW 215 0 min 0,000 mm 0,0 UV-I 49 W/m 7,3 C 7,8 C 19,3 km/h (3 Bft) 100,00 %
22.10.2017 16:50 11,1 C 11,7 C 77 % 1014,5 hPa 0,0 l/m 13,9 km/h (3 Bft) W-SW 250 0 min 0,000 mm 0,0 UV-I 48 W/m 7,2 C 6,9 C 19,3 km/h (3 Bft) 98,11 %
22.10.2017 16:52 11,1 C 11,7 C 77 % 1014,5 hPa 0,0 l/m 10,7 km/h (2 Bft) W-SW 251 0 min 0,000 mm 0,0 UV-I 45 W/m 7,2 C 8,4 C 16,1 km/h (3 Bft) 100,00 %
22.10.2017 16:54 11,1 C 11,7 C 77 % 1014,5 hPa 0,0 l/m 14,6 km/h (3 Bft) W-SW 253 0 min 0,000 mm 0,0 UV-I 42 W/m 7,2 C 6,6 C 20,9 km/h (4 Bft) 100,00 %
22.10.2017 16:56 11,0 C 11,7 C 78 % 1014,5 hPa 0,0 l/m 14,0 km/h (3 Bft) W-SW 254 0 min 0,000 mm 0,0 UV-I 40 W/m 7,3 C 6,8 C 19,3 km/h (3 Bft) 100,00 %
22.10.2017 16:58 11,0 C 11,7 C 78 % 1014,5 hPa 0,0 l/m 12,9 km/h (3 Bft) SW 234 0 min 0,000 mm 0,0 UV-I 39 W/m 7,3 C 7,2 C 17,7 km/h (3 Bft) 98,00 %
22.10.2017 17:00 10,9 C 11,7 C 78 % 1014,5 hPa 0,0 l/m 13,1 km/h (3 Bft) W-SW 258 0 min 0,076 mm 0,0 UV-I 38 W/m 7,2 C 7,0 C 22,5 km/h (4 Bft) 97,87 %
22.10.2017 17:02 10,9 C 11,7 C 78 % 1014,5 hPa 0,0 l/m 14,5 km/h (3 Bft) W-SW 244 0 min 0,000 mm 0,0 UV-I 35 W/m 7,2 C 6,4 C 19,3 km/h (3 Bft) 100,00 %
22.10.2017 17:04 10,9 C 11,7 C 78 % 1014,5 hPa 0,0 l/m 12,3 km/h (3 Bft) W-SW 256 0 min 0,000 mm 0,0 UV-I 33 W/m 7,2 C 7,4 C 17,7 km/h (3 Bft) 97,56 %
22.10.2017 17:06 10,9 C 11,7 C 78 % 1014,5 hPa 0,0 l/m 10,6 km/h (2 Bft) SW 234 0 min 0,000 mm 0,0 UV-I 29 W/m 7,2 C 8,3 C 14,5 km/h (3 Bft) 100,00 %
22.10.2017 17:08 10,8 C 11,7 C 78 % 1014,5 hPa 0,0 l/m 10,8 km/h (2 Bft) W-SW 244 0 min 0,000 mm 0,0 UV-I 26 W/m 7,1 C 8,0 C 20,9 km/h (4 Bft) 100,00 %
22.10.2017 17:10 10,8 C 11,7 C 78 % 1014,5 hPa 0,0 l/m 8,9 km/h (2 Bft) SW 225 0 min 0,000 mm 0,0 UV-I 22 W/m 7,1 C 9,1 C 11,3 km/h (2 Bft) 95,74 %
22.10.2017 17:13 10,8 C 11,7 C 78 % 1014,6 hPa 0,0 l/m 12,9 km/h (3 Bft) SW 230 0 min 0,000 mm 0,0 UV-I 19 W/m 7,1 C 7,0 C 20,9 km/h (4 Bft) 100,00 %
22.10.2017 17:14 10,8 C 11,7 C 78 % 1014,6 hPa 0,0 l/m 14,5 km/h (3 Bft) W-SW 248 0 min 0,000 mm 0,0 UV-I 18 W/m 7,1 C 6,3 C 20,9 km/h (4 Bft) 100,00 %
22.10.2017 17:16 10,8 C 11,7 C 77 % 1014,7 hPa 0,0 l/m 15,2 km/h (3 Bft) SW 233 0 min 0,000 mm 0,0 UV-I 17 W/m 6,9 C 6,0 C 20,9 km/h (4 Bft) 100,00 %
22.10.2017 17:19 10,8 C 11,7 C 77 % 1014,7 hPa 0,0 l/m 14,1 km/h (3 Bft) SW 235 0 min 0,000 mm 0,0 UV-I 15 W/m 6,9 C 6,5 C 24,1 km/h (4 Bft) 100,00 %
22.10.2017 17:20 10,8 C 11,7 C 77 % 1014,7 hPa 0,0 l/m 13,6 km/h (3 Bft) W-SW 249 0 min 0,000 mm 0,0 UV-I 14 W/m 6,9 C 6,7 C 19,3 km/h (3 Bft) 100,00 %
22.10.2017 17:24 10,7 C 11,7 C 77 % 1014,8 hPa 0,0 l/m 12,8 km/h (3 Bft) SW 233 0 min 0,000 mm 0,0 UV-I 13 W/m 6,8 C 6,9 C 20,9 km/h (4 Bft) 98,90 %
22.10.2017 17:25 10,7 C 11,7 C 77 % 1014,8 hPa 0,0 l/m 12,9 km/h (3 Bft) SW 225 0 min 0,000 mm 0,0 UV-I 13 W/m 6,8 C 6,9 C 20,9 km/h (4 Bft) 100,00 %
22.10.2017 17:28 10,7 C 11,7 C 76 % 1014,8 hPa 0,0 l/m 12,6 km/h (3 Bft) SW 217 0 min 0,000 mm 0,0 UV-I 12 W/m 6,6 C 7,0 C 16,1 km/h (3 Bft) 100,00 %
22.10.2017 17:30 10,7 C 11,7 C 77 % 1014,9 hPa 0,0 l/m 11,5 km/h (2 Bft) W-SW 240 0 min 0,000 mm 0,0 UV-I 12 W/m 6,8 C 7,6 C 20,9 km/h (4 Bft) 100,00 %
22.10.2017 17:32 10,7 C 11,7 C 77 % 1015,0 hPa 0,0 l/m 10,7 km/h (2 Bft) W-SW 250 0 min 0,000 mm 0,0 UV-I 11 W/m 6,8 C 8,0 C 16,1 km/h (3 Bft) 100,00 %
22.10.2017 17:34 10,6 C 11,7 C 77 % 1015,0 hPa 0,0 l/m 9,3 km/h (2 Bft) SW 236 0 min 0,000 mm 0,0 UV-I 10 W/m 6,7 C 8,7 C 16,1 km/h (3 Bft) 100,00 %
22.10.2017 17:36 10,6 C 11,7 C 77 % 1015,0 hPa 0,0 l/m 11,9 km/h (2 Bft) W-SW 253 0 min 0,000 mm 0,0 UV-I 9 W/m 6,7 C 7,3 C 16,1 km/h (3 Bft) 100,00 %
22.10.2017 17:38 10,6 C 11,7 C 78 % 1015,1 hPa 0,0 l/m 8,9 km/h (2 Bft) SW 221 0 min 0,000 mm 0,0 UV-I 9 W/m 6,9 C 8,9 C 12,9 km/h (3 Bft) 98,08 %
22.10.2017 17:40 10,5 C 11,7 C 78 % 1015,2 hPa 0,0 l/m 12,0 km/h (2 Bft) SW 230 0 min 0,000 mm 0,0 UV-I 9 W/m 6,8 C 7,1 C 22,5 km/h (4 Bft) 100,00 %
22.10.2017 17:42 10,4 C 11,7 C 78 % 1015,1 hPa 0,0 l/m 13,5 km/h (3 Bft) SW 221 0 min 0,000 mm 0,0 UV-I 9 W/m 6,7 C 6,3 C 22,5 km/h (4 Bft) 97,78 %
22.10.2017 17:44 10,4 C 11,7 C 78 % 1015,2 hPa 0,0 l/m 12,4 km/h (3 Bft) SW 236 0 min 0,000 mm 0,0 UV-I 7 W/m 6,7 C 6,8 C 22,5 km/h (4 Bft) 100,00 %
22.10.2017 17:46 10,4 C 11,7 C 77 % 1015,2 hPa 0,0 l/m 13,1 km/h (3 Bft) SW 236 0 min 0,000 mm 0,0 UV-I 7 W/m 6,5 C 6,4 C 22,5 km/h (4 Bft) 100,00 %
22.10.2017 17:48 10,4 C 11,7 C 77 % 1015,3 hPa 0,0 l/m 13,6 km/h (3 Bft) S-SW 203 0 min 0,000 mm 0,0 UV-I 7 W/m 6,5 C 6,2 C 20,9 km/h (4 Bft) 100,00 %
22.10.2017 17:50 10,4 C 11,7 C 77 % 1015,3 hPa 0,0 l/m 10,1 km/h (2 Bft) SW 214 0 min 0,000 mm 0,0 UV-I 7 W/m 6,5 C 8,0 C 16,1 km/h (3 Bft) 100,00 %
22.10.2017 17:52 10,4 C 11,7 C 77 % 1015,3 hPa 0,0 l/m 7,8 km/h (2 Bft) SW 223 0 min 0,000 mm 0,0 UV-I 7 W/m 6,5 C 9,4 C 11,3 km/h (2 Bft) 100,00 %
22.10.2017 17:54 10,3 C 11,7 C 77 % 1015,2 hPa 0,0 l/m 12,0 km/h (2 Bft) SW 222 0 min 0,000 mm 0,0 UV-I 6 W/m 6,4 C 6,9 C 16,1 km/h (3 Bft) 98,11 %
22.10.2017 17:56 10,3 C 11,7 C 77 % 1015,2 hPa 0,0 l/m 10,3 km/h (2 Bft) SW 231 0 min 0,000 mm 0,0 UV-I 5 W/m 6,4 C 7,8 C 16,1 km/h (3 Bft) 100,00 %
22.10.2017 17:58 10,3 C 11,7 C 77 % 1015,2 hPa 0,0 l/m 9,5 km/h (2 Bft) SW 229 0 min 0,000 mm 0,0 UV-I 5 W/m 6,4 C 8,2 C 16,1 km/h (3 Bft) 100,00 %
22.10.2017 18:00 10,3 C 11,7 C 77 % 1015,2 hPa 0,0 l/m 9,5 km/h (2 Bft) SW 234 0 min 0,026 mm 0,0 UV-I 5 W/m 6,4 C 8,2 C 16,1 km/h (3 Bft) 100,00 %
22.10.2017 18:02 10,2 C 11,7 C 77 % 1015,1 hPa 0,0 l/m 10,9 km/h (2 Bft) SW 234 0 min 0,000 mm 0,0 UV-I 5 W/m 6,4 C 7,3 C 19,3 km/h (3 Bft) 98,00 %
22.10.2017 18:04 10,2 C 11,7 C 76 % 1015,1 hPa 0,0 l/m 11,3 km/h (2 Bft) SW 221 0 min 0,000 mm 0,0 UV-I 5 W/m 6,2 C 7,1 C 17,7 km/h (3 Bft) 100,00 %
22.10.2017 18:06 10,2 C 11,7 C 77 % 1015,1 hPa 0,0 l/m 11,0 km/h (2 Bft) SW 224 0 min 0,000 mm 0,0 UV-I 5 W/m 6,4 C 7,3 C 17,7 km/h (3 Bft) 100,00 %
22.10.2017 18:08 10,2 C 11,7 C 76 % 1015,1 hPa 0,0 l/m 10,5 km/h (2 Bft) W-SW 243 0 min 0,000 mm 0,0 UV-I 2 W/m 6,2 C 7,5 C 16,1 km/h (3 Bft) 95,12 %
22.10.2017 18:10 10,2 C 11,7 C 77 % 1015,1 hPa 0,0 l/m 10,9 km/h (2 Bft) SW 227 0 min 0,000 mm 0,0 UV-I 0 W/m 6,4 C 7,3 C 16,1 km/h (3 Bft) 100,00 %
22.10.2017 18:12 10,2 C 11,7 C 77 % 1015,1 hPa 0,0 l/m 11,1 km/h (2 Bft) W-SW 251 0 min 0,000 mm 0,0 UV-I 0 W/m 6,4 C 7,2 C 16,1 km/h (3 Bft) 100,00 %
22.10.2017 18:14 10,1 C 11,7 C 77 % 1015,1 hPa 0,0 l/m 11,2 km/h (2 Bft) W-SW 250 0 min 0,000 mm 0,0 UV-I 0 W/m 6,3 C 7,0 C 16,1 km/h (3 Bft) 98,00 %
22.10.2017 18:16 10,1 C 11,7 C 77 % 1015,1 hPa 0,0 l/m 11,5 km/h (2 Bft) W-SW 246 0 min 0,000 mm 0,0 UV-I 0 W/m 6,3 C 6,9 C 16,1 km/h (3 Bft) 94,87 %
22.10.2017 18:18 10,1 C 11,7 C 76 % 1015,0 hPa 0,0 l/m 12,4 km/h (3 Bft) W-SW 242 0 min 0,000 mm 0,0 UV-I 0 W/m 6,1 C 6,4 C 17,7 km/h (3 Bft) 96,00 %
22.10.2017 18:20 10,1 C 11,7 C 77 % 1015,1 hPa 0,0 l/m 10,4 km/h (2 Bft) SW 215 0 min 0,000 mm 0,0 UV-I 0 W/m 6,3 C 7,5 C 16,1 km/h (3 Bft) 98,08 %
22.10.2017 18:22 10,1 C 11,7 C 77 % 1015,1 hPa 0,0 l/m 8,7 km/h (2 Bft) W-SW 240 0 min 0,000 mm 0,0 UV-I 0 W/m 6,3 C 8,5 C 14,5 km/h (3 Bft) 95,83 %
22.10.2017 18:24 10,1 C 11,7 C 77 % 1015,0 hPa 0,0 l/m 10,1 km/h (2 Bft) S-SW 212 0 min 0,000 mm 0,0 UV-I 0 W/m 6,3 C 7,6 C 16,1 km/h (3 Bft) 95,65 %
22.10.2017 18:26 10,0 C 11,7 C 77 % 1015,0 hPa 0,0 l/m 9,1 km/h (2 Bft) SW 236 0 min 0,000 mm 0,0 UV-I 0 W/m 6,2 C 8,1 C 11,3 km/h (2 Bft) 98,53 %
22.10.2017 18:28 10,0 C 11,7 C 77 % 1015,1 hPa 0,0 l/m 10,1 km/h (2 Bft) SW 230 0 min 0,000 mm 0,0 UV-I 0 W/m 6,2 C 7,5 C 14,5 km/h (3 Bft) 97,73 %
22.10.2017 18:30 10,0 C 11,7 C 77 % 1015,1 hPa 0,0 l/m 9,3 km/h (2 Bft) W-SW 238 0 min 0,000 mm 0,0 UV-I 0 W/m 6,2 C 8,0 C 16,1 km/h (3 Bft) 98,11 %
22.10.2017 18:32 9,9 C 11,7 C 77 % 1015,1 hPa 0,0 l/m 8,7 km/h (2 Bft) W-SW 247 0 min 0,000 mm 0,0 UV-I 0 W/m 6,1 C 8,3 C 14,5 km/h (3 Bft) 97,37 %
22.10.2017 18:34 9,9 C 11,7 C 77 % 1015,1 hPa 0,0 l/m 7,5 km/h (2 Bft) S-SW 209 0 min 0,000 mm 0,0 UV-I 0 W/m 6,1 C 9,1 C 9,7 km/h (2 Bft) 95,74 %
22.10.2017 18:36 9,9 C 11,7 C 77 % 1015,1 hPa 0,0 l/m 7,7 km/h (2 Bft) SW 236 0 min 0,000 mm 0,0 UV-I 0 W/m 6,1 C 9,0 C 12,9 km/h (3 Bft) 96,00 %
22.10.2017 18:38 9,9 C 11,7 C 77 % 1015,1 hPa 0,0 l/m 6,6 km/h (2 Bft) SW 219 0 min 0,000 mm 0,0 UV-I 0 W/m 6,1 C 9,8 C 11,3 km/h (2 Bft) 98,00 %
22.10.2017 18:40 9,8 C 11,7 C 77 % 1015,2 hPa 0,0 l/m 7,5 km/h (2 Bft) SW 234 0 min 0,000 mm 0,0 UV-I 0 W/m 6,0 C 9,0 C 12,9 km/h (3 Bft) 94,74 %
22.10.2017 18:42 9,8 C 11,7 C 77 % 1015,2 hPa 0,0 l/m 8,5 km/h (2 Bft) SW 236 0 min 0,000 mm 0,0 UV-I 0 W/m 6,0 C 8,3 C 14,5 km/h (3 Bft) 98,11 %
22.10.2017 18:44 9,8 C 11,7 C 77 % 1015,2 hPa 0,0 l/m 7,8 km/h (2 Bft) SW 236 0 min 0,000 mm 0,0 UV-I 0 W/m 6,0 C 8,8 C 12,9 km/h (3 Bft) 97,73 %
22.10.2017 18:46 9,8 C 11,7 C 78 % 1015,3 hPa 0,0 l/m 8,0 km/h (2 Bft) SW 236 0 min 0,000 mm 0,0 UV-I 0 W/m 6,1 C 8,6 C 12,9 km/h (3 Bft) 96,23 %
22.10.2017 18:48 9,8 C 11,7 C 78 % 1015,3 hPa 0,0 l/m 8,6 km/h (2 Bft) SW 235 0 min 0,000 mm 0,0 UV-I 0 W/m 6,1 C 8,2 C 14,5 km/h (3 Bft) 97,37 %
22.10.2017 18:50 9,7 C 11,7 C 78 % 1015,3 hPa 0,0 l/m 7,4 km/h (2 Bft) SW 222 0 min 0,000 mm 0,0 UV-I 0 W/m 6,1 C 9,0 C 12,9 km/h (3 Bft) 97,87 %
22.10.2017 18:52 9,7 C 11,7 C 78 % 1015,3 hPa 0,0 l/m 7,0 km/h (2 Bft) SW 229 0 min 0,000 mm 0,0 UV-I 0 W/m 6,1 C 9,3 C 11,3 km/h (2 Bft) 100,00 %
22.10.2017 18:54 9,7 C 11,7 C 78 % 1015,3 hPa 0,0 l/m 7,8 km/h (2 Bft) SW 231 0 min 0,000 mm 0,0 UV-I 0 W/m 6,1 C 8,7 C 11,3 km/h (2 Bft) 100,00 %
22.10.2017 18:56 9,7 C 11,7 C 78 % 1015,2 hPa 0,0 l/m 8,6 km/h (2 Bft) SW 224 0 min 0,000 mm 0,0 UV-I 0 W/m 6,1 C 8,1 C 11,3 km/h (2 Bft) 100,00 %
22.10.2017 18:58 9,6 C 11,7 C 78 % 1015,3 hPa 0,0 l/m 8,3 km/h (2 Bft) SW 229 0 min 0,000 mm 0,0 UV-I 0 W/m 6,0 C 8,2 C 11,3 km/h (2 Bft) 100,00 %
22.10.2017 19:00 9,6 C 11,7 C 79 % 1015,3 hPa 0,0 l/m 7,2 km/h (2 Bft) SW 232 0 min 0,000 mm 0,0 UV-I 0 W/m 6,1 C 9,0 C 9,7 km/h (2 Bft) 100,00 %
22.10.2017 19:02 9,6 C 11,1 C 79 % 1015,3 hPa 0,0 l/m 8,4 km/h (2 Bft) W-SW 241 0 min 0,025 mm 0,0 UV-I 0 W/m 6,1 C 8,2 C 11,3 km/h (2 Bft) 100,00 %
22.10.2017 19:04 9,6 C 11,7 C 79 % 1015,3 hPa 0,0 l/m 7,2 km/h (2 Bft) SW 223 0 min 0,000 mm 0,0 UV-I 0 W/m 6,1 C 9,0 C 11,3 km/h (2 Bft) 100,00 %
22.10.2017 19:06 9,5 C 11,7 C 79 % 1015,3 hPa 0,0 l/m 6,1 km/h (2 Bft) SW 229 0 min 0,000 mm 0,0 UV-I 0 W/m 6,0 C 9,5 C 9,7 km/h (2 Bft) 100,00 %
22.10.2017 19:08 9,5 C 11,7 C 79 % 1015,3 hPa 0,0 l/m 7,7 km/h (2 Bft) W 263 0 min 0,000 mm 0,0 UV-I 0 W/m 6,0 C 8,5 C 11,3 km/h (2 Bft) 100,00 %
22.10.2017 19:10 9,5 C 11,7 C 79 % 1015,2 hPa 0,0 l/m 8,1 km/h (2 Bft) SW 230 0 min 0,000 mm 0,0 UV-I 0 W/m 6,0 C 8,3 C 11,3 km/h (2 Bft) 100,00 %
22.10.2017 19:12 9,5 C 11,1 C 79 % 1015,2 hPa 0,0 l/m 8,2 km/h (2 Bft) SW 227 0 min 0,000 mm 0,0 UV-I 0 W/m 6,0 C 8,2 C 12,9 km/h (3 Bft) 100,00 %
22.10.2017 19:14 9,4 C 11,1 C 79 % 1015,2 hPa 0,0 l/m 6,8 km/h (2 Bft) W-SW 242 0 min 0,000 mm 0,0 UV-I 0 W/m 5,9 C 9,1 C 9,7 km/h (2 Bft) 98,21 %
22.10.2017 19:16 9,4 C 11,1 C 79 % 1015,3 hPa 0,0 l/m 6,1 km/h (2 Bft) W-SW 246 0 min 0,000 mm 0,0 UV-I 0 W/m 5,9 C 9,4 C 9,7 km/h (2 Bft) 97,37 %
22.10.2017 19:18 9,4 C 11,1 C 79 % 1015,3 hPa 0,0 l/m 6,0 km/h (2 Bft) SW 227 0 min 0,000 mm 0,0 UV-I 0 W/m 5,9 C 9,4 C 9,7 km/h (2 Bft) 97,87 %
22.10.2017 19:20 9,4 C 11,1 C 79 % 1015,3 hPa 0,0 l/m 5,3 km/h (1 Bft) W-SW 246 0 min 0,000 mm 0,0 UV-I 0 W/m 5,9 C 9,4 C 8,0 km/h (2 Bft) 97,73 %
22.10.2017 19:22 9,4 C 11,1 C 79 % 1015,3 hPa 0,0 l/m 5,3 km/h (1 Bft) W-SW 254 0 min 0,000 mm 0,0 UV-I 0 W/m 5,9 C 9,4 C 8,0 km/h (2 Bft) 96,43 %
22.10.2017 19:24 9,3 C 11,1 C 79 % 1015,4 hPa 0,0 l/m 5,8 km/h (2 Bft) SW 226 0 min 0,000 mm 0,0 UV-I 0 W/m 5,8 C 9,3 C 9,7 km/h (2 Bft) 97,56 %
22.10.2017 19:26 9,3 C 11,1 C 80 % 1015,4 hPa 0,0 l/m 6,4 km/h (2 Bft) SW 229 0 min 0,000 mm 0,0 UV-I 0 W/m 6,0 C 9,3 C 11,3 km/h (2 Bft) 94,34 %
22.10.2017 19:28 9,3 C 11,1 C 80 % 1015,4 hPa 0,0 l/m 8,7 km/h (2 Bft) SW 236 0 min 0,000 mm 0,0 UV-I 0 W/m 6,0 C 7,6 C 12,9 km/h (3 Bft) 97,56 %
22.10.2017 19:30 9,3 C 11,1 C 80 % 1015,4 hPa 0,0 l/m 8,0 km/h (2 Bft) SW 236 0 min 0,000 mm 0,0 UV-I 0 W/m 6,0 C 8,1 C 12,9 km/h (3 Bft) 98,00 %
22.10.2017 19:32 9,3 C 11,1 C 80 % 1015,4 hPa 0,0 l/m 9,8 km/h (2 Bft) S-SW 207 0 min 0,000 mm 0,0 UV-I 0 W/m 6,0 C 6,9 C 12,9 km/h (3 Bft) 97,56 %
22.10.2017 19:34 9,3 C 11,1 C 80 % 1015,4 hPa 0,0 l/m 8,8 km/h (2 Bft) W-SW 239 0 min 0,000 mm 0,0 UV-I 0 W/m 6,0 C 7,6 C 12,9 km/h (3 Bft) 98,11 %
22.10.2017 19:36 9,3 C 11,1 C 80 % 1015,4 hPa 0,0 l/m 8,0 km/h (2 Bft) SW 235 0 min 0,000 mm 0,0 UV-I 0 W/m 6,0 C 8,1 C 11,3 km/h (2 Bft) 97,78 %
22.10.2017 19:38 9,2 C 11,1 C 80 % 1015,5 hPa 0,0 l/m 8,6 km/h (2 Bft) SW 232 0 min 0,000 mm 0,0 UV-I 0 W/m 5,9 C 7,6 C 12,9 km/h (3 Bft) 98,00 %
22.10.2017 19:40 9,2 C 11,1 C 80 % 1015,5 hPa 0,0 l/m 7,1 km/h (2 Bft) W-SW 237 0 min 0,000 mm 0,0 UV-I 0 W/m 5,9 C 8,7 C 11,3 km/h (2 Bft) 95,92 %
22.10.2017 19:42 9,2 C 11,1 C 80 % 1015,4 hPa 0,0 l/m 6,6 km/h (2 Bft) S 188 0 min 0,000 mm 0,0 UV-I 0 W/m 5,9 C 9,1 C 11,3 km/h (2 Bft) 97,44 %
22.10.2017 19:44 9,2 C 11,1 C 80 % 1015,5 hPa 0,0 l/m 6,8 km/h (2 Bft) SW 215 0 min 0,000 mm 0,0 UV-I 0 W/m 5,9 C 8,9 C 9,7 km/h (2 Bft) 98,21 %
22.10.2017 19:46 9,2 C 11,1 C 80 % 1015,6 hPa 0,0 l/m 7,5 km/h (2 Bft) S-SW 212 0 min 0,000 mm 0,0 UV-I 0 W/m 5,9 C 8,4 C 12,9 km/h (3 Bft) 95,74 %
22.10.2017 19:48 9,2 C 11,1 C 80 % 1015,6 hPa 0,0 l/m 6,8 km/h (2 Bft) W-SW 246 0 min 0,000 mm 0,0 UV-I 0 W/m 5,9 C 8,9 C 11,3 km/h (2 Bft) 100,00 %
22.10.2017 19:50 9,2 C 11,1 C 80 % 1015,6 hPa 0,0 l/m 7,2 km/h (2 Bft) S-SW 213 0 min 0,000 mm 0,0 UV-I 0 W/m 5,9 C 8,6 C 11,3 km/h (2 Bft) 96,00 %
22.10.2017 19:52 9,2 C 11,1 C 80 % 1015,6 hPa 0,0 l/m 7,5 km/h (2 Bft) SW 217 0 min 0,000 mm 0,0 UV-I 0 W/m 5,9 C 8,4 C 11,3 km/h (2 Bft) 96,00 %
22.10.2017 19:54 9,2 C 11,1 C 79 % 1015,5 hPa 0,0 l/m 7,5 km/h (2 Bft) SW 228 0 min 0,000 mm 0,0 UV-I 0 W/m 5,8 C 8,4 C 12,9 km/h (3 Bft) 97,14 %
22.10.2017 19:56 9,2 C 11,1 C 79 % 1015,6 hPa 0,0 l/m 8,1 km/h (2 Bft) SW 226 0 min 0,000 mm 0,0 UV-I 0 W/m 5,8 C 7,9 C 12,9 km/h (3 Bft) 98,31 %
22.10.2017 19:58 9,2 C 11,1 C 80 % 1015,6 hPa 0,0 l/m 7,0 km/h (2 Bft) W-SW 240 0 min 0,000 mm 0,0 UV-I 0 W/m 5,9 C 8,8 C 11,3 km/h (2 Bft) 95,45 %
22.10.2017 20:00 9,2 C 11,1 C 80 % 1015,5 hPa 0,0 l/m 7,6 km/h (2 Bft) W-SW 248 0 min 0,025 mm 0,0 UV-I 0 W/m 5,9 C 8,3 C 12,9 km/h (3 Bft) 94,74 %
22.10.2017 20:02 9,2 C 11,1 C 80 % 1015,5 hPa 0,0 l/m 6,3 km/h (2 Bft) SW 236 0 min 0,000 mm 0,0 UV-I 0 W/m 5,9 C 9,2 C 8,0 km/h (2 Bft) 98,11 %
22.10.2017 20:04 9,2 C 11,1 C 80 % 1015,5 hPa 0,0 l/m 6,7 km/h (2 Bft) SW 226 0 min 0,000 mm 0,0 UV-I 0 W/m 5,9 C 9,0 C 14,5 km/h (3 Bft) 97,87 %
22.10.2017 20:06 9,2 C 11,1 C 80 % 1015,5 hPa 0,0 l/m 7,7 km/h (2 Bft) W-SW 243 0 min 0,000 mm 0,0 UV-I 0 W/m 5,9 C 8,2 C 11,3 km/h (2 Bft) 98,00 %
22.10.2017 20:08 9,2 C 11,1 C 80 % 1015,5 hPa 0,0 l/m 8,0 km/h (2 Bft) W-SW 239 0 min 0,000 mm 0,0 UV-I 0 W/m 5,9 C 8,0 C 11,3 km/h (2 Bft) 97,87 %
22.10.2017 20:10 9,2 C 11,1 C 80 % 1015,5 hPa 0,0 l/m 7,4 km/h (2 Bft) SW 217 0 min 0,000 mm 0,0 UV-I 0 W/m 5,9 C 8,4 C 11,3 km/h (2 Bft) 97,56 %
22.10.2017 20:12 9,2 C 11,1 C 80 % 1015,5 hPa 0,0 l/m 9,8 km/h (2 Bft) W-SW 240 0 min 0,000 mm 0,0 UV-I 0 W/m 5,9 C 6,8 C 14,5 km/h (3 Bft) 97,62 %
22.10.2017 20:14 9,2 C 11,1 C 80 % 1015,5 hPa 0,0 l/m 9,3 km/h (2 Bft) SW 235 0 min 0,000 mm 0,0 UV-I 0 W/m 5,9 C 7,1 C 12,9 km/h (3 Bft) 96,36 %
22.10.2017 20:16 9,2 C 11,1 C 80 % 1015,4 hPa 0,0 l/m 10,3 km/h (2 Bft) W-SW 249 0 min 0,000 mm 0,0 UV-I 0 W/m 5,9 C 6,5 C 12,9 km/h (3 Bft) 100,00 %
22.10.2017 20:18 9,1 C 11,1 C 80 % 1015,4 hPa 0,0 l/m 10,4 km/h (2 Bft) SW 236 0 min 0,000 mm 0,0 UV-I 0 W/m 5,8 C 6,4 C 16,1 km/h (3 Bft) 97,87 %
22.10.2017 20:20 9,1 C 11,1 C 80 % 1015,4 hPa 0,0 l/m 9,6 km/h (2 Bft) W-SW 240 0 min 0,000 mm 0,0 UV-I 0 W/m 5,8 C 6,8 C 14,5 km/h (3 Bft) 97,56 %
22.10.2017 20:22 9,1 C 11,1 C 80 % 1015,4 hPa 0,0 l/m 8,2 km/h (2 Bft) SW 225 0 min 0,000 mm 0,0 UV-I 0 W/m 5,8 C 7,8 C 14,5 km/h (3 Bft) 98,21 %
22.10.2017 20:24 9,1 C 11,1 C 80 % 1015,5 hPa 0,0 l/m 10,5 km/h (2 Bft) SW 223 0 min 0,000 mm 0,0 UV-I 0 W/m 5,8 C 6,3 C 16,1 km/h (3 Bft) 100,00 %
22.10.2017 20:26 9,1 C 11,1 C 80 % 1015,5 hPa 0,0 l/m 9,4 km/h (2 Bft) W-SW 245 0 min 0,000 mm 0,0 UV-I 0 W/m 5,8 C 7,0 C 14,5 km/h (3 Bft) 97,06 %
22.10.2017 20:28 9,1 C 11,1 C 80 % 1015,5 hPa 0,0 l/m 9,6 km/h (2 Bft) W-SW 246 0 min 0,000 mm 0,0 UV-I 0 W/m 5,8 C 6,8 C 14,5 km/h (3 Bft) 97,73 %
22.10.2017 20:30 9,1 C 11,1 C 80 % 1015,5 hPa 0,0 l/m 8,8 km/h (2 Bft) SW 236 0 min 0,000 mm 0,0 UV-I 0 W/m 5,8 C 7,4 C 16,1 km/h (3 Bft) 98,00 %
22.10.2017 20:32 9,1 C 11,1 C 80 % 1015,4 hPa 0,0 l/m 8,9 km/h (2 Bft) SW 229 0 min 0,000 mm 0,0 UV-I 0 W/m 5,8 C 7,3 C 14,5 km/h (3 Bft) 95,12 %
22.10.2017 20:34 9,1 C 11,1 C 80 % 1015,3 hPa 0,0 l/m 8,9 km/h (2 Bft) SW 227 0 min 0,000 mm 0,0 UV-I 0 W/m 5,8 C 7,3 C 12,9 km/h (3 Bft) 96,23 %
22.10.2017 20:36 9,1 C 11,1 C 80 % 1015,4 hPa 0,0 l/m 9,5 km/h (2 Bft) SW 217 0 min 0,000 mm 0,0 UV-I 0 W/m 5,8 C 6,9 C 16,1 km/h (3 Bft) 100,00 %
22.10.2017 20:38 9,1 C 11,1 C 80 % 1015,4 hPa 0,0 l/m 8,7 km/h (2 Bft) W-SW 248 0 min 0,000 mm 0,0 UV-I 0 W/m 5,8 C 7,4 C 11,3 km/h (2 Bft) 96,23 %
22.10.2017 20:40 9,1 C 11,1 C 80 % 1015,5 hPa 0,0 l/m 8,3 km/h (2 Bft) SW 235 0 min 0,000 mm 0,0 UV-I 0 W/m 5,8 C 7,7 C 14,5 km/h (3 Bft) 98,00 %
22.10.2017 20:42 9,1 C 11,1 C 80 % 1015,5 hPa 0,0 l/m 7,4 km/h (2 Bft) S-SW 212 0 min 0,000 mm 0,0 UV-I 0 W/m 5,8 C 8,3 C 9,7 km/h (2 Bft) 97,37 %
22.10.2017 20:44 9,0 C 11,1 C 80 % 1015,4 hPa 0,0 l/m 9,4 km/h (2 Bft) S-SW 198 0 min 0,000 mm 0,0 UV-I 0 W/m 5,7 C 6,9 C 12,9 km/h (3 Bft) 97,87 %
22.10.2017 20:46 9,1 C 11,1 C 80 % 1015,4 hPa 0,0 l/m 10,6 km/h (2 Bft) W-SW 243 0 min 0,000 mm 0,0 UV-I 0 W/m 5,8 C 6,2 C 14,5 km/h (3 Bft) 94,87 %
22.10.2017 20:48 9,1 C 11,1 C 80 % 1015,3 hPa 0,0 l/m 9,4 km/h (2 Bft) SW 236 0 min 0,000 mm 0,0 UV-I 0 W/m 5,8 C 7,0 C 14,5 km/h (3 Bft) 98,08 %
22.10.2017 20:50 9,0 C 11,1 C 80 % 1015,3 hPa 0,0 l/m 11,1 km/h (2 Bft) W-SW 257 0 min 0,000 mm 0,0 UV-I 0 W/m 5,7 C 5,9 C 16,1 km/h (3 Bft) 98,21 %
22.10.2017 20:52 9,1 C 11,1 C 80 % 1015,2 hPa 0,0 l/m 9,6 km/h (2 Bft) SW 229 0 min 0,000 mm 0,0 UV-I 0 W/m 5,8 C 6,8 C 16,1 km/h (3 Bft) 97,44 %
22.10.2017 20:54 9,0 C 11,1 C 80 % 1015,2 hPa 0,0 l/m 9,9 km/h (2 Bft) S-SW 213 0 min 0,000 mm 0,0 UV-I 0 W/m 5,7 C 6,6 C 14,5 km/h (3 Bft) 98,18 %
22.10.2017 20:56 9,0 C 11,1 C 81 % 1015,3 hPa 0,0 l/m 10,2 km/h (2 Bft) SW 225 0 min 0,000 mm 0,0 UV-I 0 W/m 5,9 C 6,4 C 14,5 km/h (3 Bft) 100,00 %
22.10.2017 20:58 9,0 C 11,1 C 80 % 1015,4 hPa 0,0 l/m 8,6 km/h (2 Bft) SW 232 0 min 0,000 mm 0,0 UV-I 0 W/m 5,7 C 7,4 C 12,9 km/h (3 Bft) 100,00 %
22.10.2017 21:00 9,0 C 11,1 C 80 % 1015,4 hPa 0,0 l/m 8,6 km/h (2 Bft) W-SW 239 0 min 0,026 mm 0,0 UV-I 0 W/m 5,7 C 7,4 C 14,5 km/h (3 Bft) 100,00 %
22.10.2017 21:02 8,9 C 11,1 C 81 % 1015,4 hPa 0,0 l/m 7,5 km/h (2 Bft) W-SW 258 0 min 0,000 mm 0,0 UV-I 0 W/m 5,8 C 8,1 C 12,9 km/h (3 Bft) 94,00 %
22.10.2017 21:04 8,9 C 11,1 C 81 % 1015,4 hPa 0,0 l/m 8,4 km/h (2 Bft) W 263 0 min 0,000 mm 0,0 UV-I 0 W/m 5,8 C 7,4 C 12,9 km/h (3 Bft) 98,11 %
22.10.2017 21:06 8,9 C 11,1 C 81 % 1015,4 hPa 0,0 l/m 8,3 km/h (2 Bft) S-SW 211 0 min 0,000 mm 0,0 UV-I 0 W/m 5,8 C 7,5 C 12,9 km/h (3 Bft) 100,00 %
22.10.2017 21:08 8,9 C 11,1 C 81 % 1015,4 hPa 0,0 l/m 9,9 km/h (2 Bft) S-SW 212 0 min 0,000 mm 0,0 UV-I 0 W/m 5,8 C 6,4 C 14,5 km/h (3 Bft) 100,00 %
22.10.2017 21:10 8,9 C 11,1 C 81 % 1015,4 hPa 0,0 l/m 9,2 km/h (2 Bft) SW 216 0 min 0,000 mm 0,0 UV-I 0 W/m 5,8 C 6,9 C 14,5 km/h (3 Bft) 100,00 %
22.10.2017 21:13 8,9 C 11,1 C 81 % 1015,5 hPa 0,0 l/m 8,6 km/h (2 Bft) W-SW 238 0 min 0,000 mm 0,0 UV-I 0 W/m 5,8 C 7,3 C 12,9 km/h (3 Bft) 100,00 %
22.10.2017 21:14 8,9 C 11,1 C 81 % 1015,5 hPa 0,0 l/m 9,7 km/h (2 Bft) SW 232 0 min 0,000 mm 0,0 UV-I 0 W/m 5,8 C 6,6 C 12,9 km/h (3 Bft) 100,00 %
22.10.2017 21:16 8,9 C 11,1 C 80 % 1015,5 hPa 0,0 l/m 8,7 km/h (2 Bft) W-SW 246 0 min 0,000 mm 0,0 UV-I 0 W/m 5,6 C 7,2 C 11,3 km/h (2 Bft) 100,00 %
22.10.2017 21:18 8,9 C 11,1 C 81 % 1015,6 hPa 0,0 l/m 8,2 km/h (2 Bft) SW 217 0 min 0,000 mm 0,0 UV-I 0 W/m 5,8 C 7,6 C 14,5 km/h (3 Bft) 100,00 %
22.10.2017 21:20 8,9 C 11,1 C 81 % 1015,5 hPa 0,0 l/m 8,2 km/h (2 Bft) W-SW 239 0 min 0,000 mm 0,0 UV-I 0 W/m 5,8 C 7,6 C 12,9 km/h (3 Bft) 100,00 %
22.10.2017 21:22 8,8 C 11,1 C 81 % 1015,5 hPa 0,0 l/m 8,8 km/h (2 Bft) SW 229 0 min 0,000 mm 0,0 UV-I 0 W/m 5,7 C 7,0 C 12,9 km/h (3 Bft) 100,00 %
22.10.2017 21:24 8,9 C 11,1 C 81 % 1015,6 hPa 0,0 l/m 11,3 km/h (2 Bft) W 259 0 min 0,000 mm 0,0 UV-I 0 W/m 5,8 C 5,6 C 19,3 km/h (3 Bft) 98,00 %
22.10.2017 21:26 8,9 C 11,1 C 81 % 1015,6 hPa 0,0 l/m 9,6 km/h (2 Bft) W-SW 244 0 min 0,000 mm 0,0 UV-I 0 W/m 5,8 C 6,6 C 12,9 km/h (3 Bft) 100,00 %
22.10.2017 21:28 8,8 C 11,1 C 81 % 1015,6 hPa 0,0 l/m 8,4 km/h (2 Bft) SW 217 0 min 0,000 mm 0,0 UV-I 0 W/m 5,7 C 7,3 C 11,3 km/h (2 Bft) 100,00 %
22.10.2017 21:30 8,8 C 11,1 C 81 % 1015,6 hPa 0,0 l/m 7,3 km/h (2 Bft) S-SW 210 0 min 0,000 mm 0,0 UV-I 0 W/m 5,7 C 8,1 C 9,7 km/h (2 Bft) 100,00 %
22.10.2017 21:32 8,8 C 11,1 C 81 % 1015,6 hPa 0,0 l/m 11,0 km/h (2 Bft) SW 224 0 min 0,000 mm 0,0 UV-I 0 W/m 5,7 C 5,7 C 16,1 km/h (3 Bft) 100,00 %
22.10.2017 21:34 8,8 C 11,1 C 81 % 1015,6 hPa 0,0 l/m 10,5 km/h (2 Bft) W-SW 239 0 min 0,000 mm 0,0 UV-I 0 W/m 5,7 C 6,0 C 14,5 km/h (3 Bft) 100,00 %
22.10.2017 21:36 8,8 C 11,1 C 81 % 1015,7 hPa 0,0 l/m 10,8 km/h (2 Bft) SW 230 0 min 0,000 mm 0,0 UV-I 0 W/m 5,7 C 5,8 C 16,1 km/h (3 Bft) 100,00 %
22.10.2017 21:38 8,9 C 11,1 C 80 % 1015,7 hPa 0,0 l/m 10,3 km/h (2 Bft) S 180 0 min 0,000 mm 0,0 UV-I 0 W/m 5,6 C 6,2 C 16,1 km/h (3 Bft) 100,00 %
22.10.2017 21:40 8,9 C 11,1 C 80 % 1015,8 hPa 0,0 l/m 9,8 km/h (2 Bft) W-SW 242 0 min 0,000 mm 0,0 UV-I 0 W/m 5,6 C 6,5 C 16,1 km/h (3 Bft) 100,00 %
22.10.2017 21:42 8,9 C 11,1 C 80 % 1015,8 hPa 0,0 l/m 10,1 km/h (2 Bft) W-SW 256 0 min 0,000 mm 0,0 UV-I 0 W/m 5,6 C 6,3 C 16,1 km/h (3 Bft) 98,21 %
22.10.2017 21:44 8,9 C 11,1 C 81 % 1015,8 hPa 0,0 l/m 10,6 km/h (2 Bft) SW 229 0 min 0,000 mm 0,0 UV-I 0 W/m 5,8 C 6,0 C 16,1 km/h (3 Bft) 100,00 %
22.10.2017 21:46 8,8 C 11,1 C 81 % 1015,7 hPa 0,0 l/m 11,0 km/h (2 Bft) SW 235 0 min 0,000 mm 0,0 UV-I 0 W/m 5,7 C 5,7 C 16,1 km/h (3 Bft) 100,00 %
22.10.2017 21:48 8,8 C 11,1 C 80 % 1015,7 hPa 0,0 l/m 12,5 km/h (3 Bft) SW 223 0 min 0,000 mm 0,0 UV-I 0 W/m 5,5 C 4,9 C 16,1 km/h (3 Bft) 98,00 %
22.10.2017 21:50 8,8 C 11,1 C 80 % 1015,8 hPa 0,0 l/m 12,1 km/h (2 Bft) SW 228 0 min 0,000 mm 0,0 UV-I 0 W/m 5,5 C 5,1 C 19,3 km/h (3 Bft) 100,00 %
22.10.2017 21:53 8,8 C 11,1 C 80 % 1015,7 hPa 0,0 l/m 12,6 km/h (3 Bft) W-SW 250 0 min 0,000 mm 0,0 UV-I 0 W/m 5,5 C 4,8 C 20,9 km/h (4 Bft) 98,73 %
22.10.2017 21:54 8,8 C 11,1 C 80 % 1015,7 hPa 0,0 l/m 13,0 km/h (3 Bft) SW 229 0 min 0,000 mm 0,0 UV-I 0 W/m 5,5 C 4,6 C 17,7 km/h (3 Bft) 100,00 %
22.10.2017 21:56 8,8 C 11,1 C 80 % 1015,8 hPa 0,0 l/m 12,9 km/h (3 Bft) SW 225 0 min 0,000 mm 0,0 UV-I 0 W/m 5,5 C 4,7 C 19,3 km/h (3 Bft) 97,87 %
22.10.2017 21:58 8,8 C 11,1 C 80 % 1015,7 hPa 0,0 l/m 14,5 km/h (3 Bft) W-SW 250 0 min 0,000 mm 0,0 UV-I 0 W/m 5,5 C 3,9 C 14,5 km/h (3 Bft) 100,00 %
22.10.2017 22:00 8,8 C 11,1 C 80 % 1015,7 hPa 0,0 l/m 12,6 km/h (3 Bft) W-SW 250 0 min 0,025 mm 0,0 UV-I 0 W/m 5,5 C 4,8 C 16,1 km/h (3 Bft) 94,74 %
22.10.2017 22:02 8,9 C 11,1 C 80 % 1015,7 hPa 0,0 l/m 8,5 km/h (2 Bft) W-SW 244 0 min 0,000 mm 0,0 UV-I 0 W/m 5,6 C 7,3 C 14,5 km/h (3 Bft) 100,00 %
22.10.2017 22:04 9,1 C 11,1 C 86 % 1015,7 hPa 0,0 l/m 10,3 km/h (2 Bft) SW 225 0 min 0,000 mm 0,0 UV-I 0 W/m 6,9 C 6,4 C 16,1 km/h (3 Bft) 100,00 %
22.10.2017 22:06 9,1 C 11,1 C 82 % 1015,6 hPa 0,0 l/m 12,4 km/h (3 Bft) W-SW 254 0 min 0,000 mm 0,0 UV-I 0 W/m 6,2 C 5,3 C 22,5 km/h (4 Bft) 97,56 %
22.10.2017 22:08 9,0 C 11,1 C 81 % 1015,6 hPa 0,0 l/m 10,3 km/h (2 Bft) W-SW 238 0 min 0,000 mm 0,0 UV-I 0 W/m 5,9 C 6,3 C 14,5 km/h (3 Bft) 100,00 %
22.10.2017 22:10 8,9 C 11,1 C 80 % 1015,6 hPa 0,0 l/m 9,7 km/h (2 Bft) W 261 0 min 0,000 mm 0,0 UV-I 0 W/m 5,6 C 6,6 C 12,9 km/h (3 Bft) 100,00 %
22.10.2017 22:12 8,9 C 11,1 C 80 % 1015,7 hPa 0,0 l/m 9,7 km/h (2 Bft) SW 232 0 min 0,000 mm 0,0 UV-I 0 W/m 5,6 C 6,6 C 16,1 km/h (3 Bft) 100,00 %
22.10.2017 22:14 8,9 C 11,1 C 80 % 1015,7 hPa 0,0 l/m 9,7 km/h (2 Bft) W-SW 252 0 min 0,000 mm 0,0 UV-I 0 W/m 5,6 C 6,6 C 16,1 km/h (3 Bft) 100,00 %
22.10.2017 22:16 8,8 C 11,1 C 80 % 1015,6 hPa 0,0 l/m 11,0 km/h (2 Bft) W-SW 237 0 min 0,000 mm 0,0 UV-I 0 W/m 5,5 C 5,7 C 19,3 km/h (3 Bft) 100,00 %
22.10.2017 22:18 8,8 C 11,1 C 80 % 1015,8 hPa 0,0 l/m 14,0 km/h (3 Bft) W-SW 245 0 min 0,000 mm 0,0 UV-I 0 W/m 5,5 C 4,1 C 19,3 km/h (3 Bft) 100,00 %
22.10.2017 22:20 8,8 C 11,1 C 80 % 1015,9 hPa 0,0 l/m 8,7 km/h (2 Bft) SW 232 0 min 0,000 mm 0,0 UV-I 0 W/m 5,5 C 7,1 C 11,3 km/h (2 Bft) 100,00 %
22.10.2017 22:22 8,8 C 11,1 C 80 % 1015,9 hPa 0,0 l/m 10,6 km/h (2 Bft) W-SW 254 0 min 0,000 mm 0,0 UV-I 0 W/m 5,5 C 5,9 C 14,5 km/h (3 Bft) 100,00 %
22.10.2017 22:24 8,8 C 11,1 C 80 % 1015,9 hPa 0,0 l/m 13,3 km/h (3 Bft) W 262 0 min 0,000 mm 0,0 UV-I 0 W/m 5,5 C 4,5 C 17,7 km/h (3 Bft) 100,00 %
22.10.2017 22:26 8,8 C 11,1 C 80 % 1015,9 hPa 0,0 l/m 10,2 km/h (2 Bft) W-SW 250 0 min 0,000 mm 0,0 UV-I 0 W/m 5,5 C 6,1 C 16,1 km/h (3 Bft) 97,87 %
22.10.2017 22:28 8,8 C 11,1 C 81 % 1015,9 hPa 0,0 l/m 12,7 km/h (3 Bft) SW 229 0 min 0,000 mm 0,0 UV-I 0 W/m 5,7 C 4,8 C 17,7 km/h (3 Bft) 97,56 %
22.10.2017 22:30 8,8 C 11,1 C 81 % 1015,9 hPa 0,0 l/m 10,9 km/h (2 Bft) W 261 0 min 0,000 mm 0,0 UV-I 0 W/m 5,7 C 5,7 C 19,3 km/h (3 Bft) 98,00 %
22.10.2017 22:32 8,7 C 11,1 C 81 % 1015,9 hPa 0,0 l/m 14,1 km/h (3 Bft) W-SW 247 0 min 0,000 mm 0,0 UV-I 0 W/m 5,6 C 4,0 C 19,3 km/h (3 Bft) 98,00 %
22.10.2017 22:34 8,7 C 11,1 C 81 % 1015,9 hPa 0,0 l/m 12,5 km/h (3 Bft) W 260 0 min 0,000 mm 0,0 UV-I 0 W/m 5,6 C 4,8 C 19,3 km/h (3 Bft) 97,37 %
22.10.2017 22:36 8,7 C 11,1 C 81 % 1015,9 hPa 0,0 l/m 14,2 km/h (3 Bft) W-SW 251 0 min 0,000 mm 0,0 UV-I 0 W/m 5,6 C 3,9 C 19,3 km/h (3 Bft) 94,64 %
22.10.2017 22:38 8,8 C 11,1 C 80 % 1015,8 hPa 0,0 l/m 14,5 km/h (3 Bft) S 190 0 min 0,000 mm 0,0 UV-I 0 W/m 5,5 C 3,9 C 22,5 km/h (4 Bft) 95,12 %
22.10.2017 22:40 8,7 C 11,1 C 80 % 1015,8 hPa 0,0 l/m 16,0 km/h (3 Bft) W 261 0 min 0,000 mm 0,0 UV-I 0 W/m 5,4 C 3,1 C 27,4 km/h (4 Bft) 97,56 %
22.10.2017 22:42 8,8 C 11,1 C 80 % 1015,7 hPa 0,0 l/m 17,9 km/h (3 Bft) W-SW 256 0 min 0,000 mm 0,0 UV-I 0 W/m 5,5 C 2,5 C 22,5 km/h (4 Bft) 96,23 %
22.10.2017 22:44 8,8 C 11,1 C 80 % 1015,8 hPa 0,0 l/m 12,5 km/h (3 Bft) W 264 0 min 0,000 mm 0,0 UV-I 0 W/m 5,5 C 4,9 C 22,5 km/h (4 Bft) 98,00 %
22.10.2017 22:46 8,8 C 11,1 C 80 % 1015,8 hPa 0,0 l/m 11,3 km/h (2 Bft) W-SW 258 0 min 0,000 mm 0,0 UV-I 0 W/m 5,5 C 5,5 C 16,1 km/h (3 Bft) 97,73 %
22.10.2017 22:48 8,8 C 11,1 C 79 % 1015,9 hPa 0,0 l/m 13,5 km/h (3 Bft) W-SW 243 0 min 0,000 mm 0,0 UV-I 0 W/m 5,4 C 4,4 C 20,9 km/h (4 Bft) 97,73 %
22.10.2017 22:50 8,8 C 11,1 C 79 % 1015,7 hPa 0,0 l/m 15,7 km/h (3 Bft) W 267 0 min 0,000 mm 0,0 UV-I 0 W/m 5,4 C 3,4 C 22,5 km/h (4 Bft) 97,73 %
22.10.2017 22:52 8,8 C 11,1 C 79 % 1015,7 hPa 0,0 l/m 14,4 km/h (3 Bft) W-SW 254 0 min 0,000 mm 0,0 UV-I 0 W/m 5,4 C 4,0 C 19,3 km/h (3 Bft) 96,43 %
22.10.2017 22:54 8,8 C 11,1 C 79 % 1015,7 hPa 0,0 l/m 13,9 km/h (3 Bft) W-SW 257 0 min 0,000 mm 0,0 UV-I 0 W/m 5,4 C 4,2 C 24,1 km/h (4 Bft) 100,00 %
22.10.2017 22:56 8,8 C 11,1 C 79 % 1015,7 hPa 0,0 l/m 12,3 km/h (3 Bft) W 263 0 min 0,000 mm 0,0 UV-I 0 W/m 5,4 C 5,0 C 19,3 km/h (3 Bft) 95,74 %
22.10.2017 22:58 8,8 C 11,1 C 79 % 1015,7 hPa 0,0 l/m 16,2 km/h (3 Bft) W-NW 292 0 min 0,000 mm 0,0 UV-I 0 W/m 5,4 C 3,2 C 25,7 km/h (4 Bft) 97,87 %
22.10.2017 23:00 8,8 C 11,1 C 79 % 1015,6 hPa 0,0 l/m 11,8 km/h (2 Bft) SW 227 0 min 0,026 mm 0,0 UV-I 0 W/m 5,4 C 5,2 C 24,1 km/h (4 Bft) 96,43 %
22.10.2017 23:02 8,8 C 11,1 C 79 % 1015,6 hPa 0,0 l/m 7,7 km/h (2 Bft) W 265 0 min 0,000 mm 0,0 UV-I 0 W/m 5,4 C 7,8 C 11,3 km/h (2 Bft) 97,37 %
22.10.2017 23:04 8,7 C 11,1 C 79 % 1015,6 hPa 0,0 l/m 10,3 km/h (2 Bft) N-NW 331 0 min 0,000 mm 0,0 UV-I 0 W/m 5,3 C 6,0 C 19,3 km/h (3 Bft) 98,00 %
22.10.2017 23:06 8,7 C 11,1 C 79 % 1015,5 hPa 0,0 l/m 9,2 km/h (2 Bft) W 267 0 min 0,000 mm 0,0 UV-I 0 W/m 5,3 C 6,7 C 16,1 km/h (3 Bft) 98,00 %
22.10.2017 23:08 8,7 C 11,1 C 79 % 1015,4 hPa 0,0 l/m 11,9 km/h (2 Bft) W-SW 241 0 min 0,000 mm 0,0 UV-I 0 W/m 5,3 C 5,1 C 17,7 km/h (3 Bft) 95,45 %
22.10.2017 23:10 8,7 C 11,1 C 79 % 1015,4 hPa 0,0 l/m 12,5 km/h (3 Bft) W 271 0 min 0,000 mm 0,0 UV-I 0 W/m 5,3 C 4,8 C 19,3 km/h (3 Bft) 97,87 %
22.10.2017 23:12 8,7 C 11,1 C 80 % 1015,3 hPa 0,0 l/m 11,6 km/h (2 Bft) W-SW 256 0 min 0,000 mm 0,0 UV-I 0 W/m 5,4 C 5,2 C 16,1 km/h (3 Bft) 97,87 %
22.10.2017 23:14 8,6 C 11,1 C 79 % 1015,2 hPa 0,0 l/m 13,8 km/h (3 Bft) W-SW 256 0 min 0,000 mm 0,0 UV-I 0 W/m 5,2 C 4,0 C 19,3 km/h (3 Bft) 98,00 %
22.10.2017 23:16 8,6 C 11,1 C 80 % 1015,2 hPa 0,0 l/m 14,7 km/h (3 Bft) W-SW 248 0 min 0,000 mm 0,0 UV-I 0 W/m 5,3 C 3,6 C 17,7 km/h (3 Bft) 97,73 %
22.10.2017 23:18 8,6 C 11,1 C 80 % 1015,1 hPa 0,0 l/m 13,8 km/h (3 Bft) W-SW 248 0 min 0,000 mm 0,0 UV-I 0 W/m 5,3 C 4,0 C 24,1 km/h (4 Bft) 97,37 %
22.10.2017 23:20 8,6 C 11,1 C 80 % 1015,1 hPa 0,0 l/m 12,0 km/h (2 Bft) W 277 0 min 0,000 mm 0,0 UV-I 0 W/m 5,3 C 4,9 C 16,1 km/h (3 Bft) 96,00 %
22.10.2017 23:22 8,6 C 11,1 C 80 % 1015,2 hPa 0,0 l/m 12,5 km/h (3 Bft) W-SW 249 0 min 0,000 mm 0,0 UV-I 0 W/m 5,3 C 4,6 C 17,7 km/h (3 Bft) 95,45 %
22.10.2017 23:24 8,6 C 11,1 C 80 % 1015,2 hPa 0,0 l/m 7,7 km/h (2 Bft) SW 233 0 min 0,000 mm 0,0 UV-I 0 W/m 5,3 C 7,6 C 12,9 km/h (3 Bft) 98,00 %
22.10.2017 23:26 8,5 C 11,1 C 80 % 1015,3 hPa 0,0 l/m 5,9 km/h (2 Bft) W 261 0 min 0,000 mm 0,0 UV-I 0 W/m 5,3 C 8,5 C 9,7 km/h (2 Bft) 95,74 %
22.10.2017 23:28 8,5 C 11,1 C 81 % 1015,3 hPa 0,0 l/m 4,4 km/h (1 Bft) W-SW 246 0 min 0,000 mm 0,0 UV-I 0 W/m 5,4 C 8,5 C 6,4 km/h (2 Bft) 97,87 %
22.10.2017 23:30 8,4 C 11,1 C 81 % 1015,3 hPa 0,0 l/m 5,7 km/h (1 Bft) W-SW 248 0 min 0,000 mm 0,0 UV-I 0 W/m 5,3 C 8,4 C 8,0 km/h (2 Bft) 97,87 %
22.10.2017 23:32 8,4 C 11,1 C 81 % 1015,3 hPa 0,0 l/m 8,6 km/h (2 Bft) W 262 0 min 0,000 mm 0,0 UV-I 0 W/m 5,3 C 6,7 C 14,5 km/h (3 Bft) 98,11 %
22.10.2017 23:34 8,3 C 11,1 C 82 % 1015,3 hPa 0,0 l/m 9,0 km/h (2 Bft) W-SW 248 0 min 0,000 mm 0,0 UV-I 0 W/m 5,4 C 6,4 C 12,9 km/h (3 Bft) 97,62 %
22.10.2017 23:36 8,3 C 11,1 C 82 % 1015,3 hPa 0,0 l/m 12,1 km/h (2 Bft) SW 236 0 min 0,000 mm 0,0 UV-I 0 W/m 5,4 C 4,5 C 20,9 km/h (4 Bft) 97,96 %
22.10.2017 23:38 8,3 C 11,1 C 82 % 1015,3 hPa 0,0 l/m 11,6 km/h (2 Bft) W-SW 247 0 min 0,000 mm 0,0 UV-I 0 W/m 5,4 C 4,8 C 17,7 km/h (3 Bft) 96,00 %
22.10.2017 23:40 8,3 C 11,1 C 82 % 1015,4 hPa 0,0 l/m 11,3 km/h (2 Bft) W 259 0 min 0,000 mm 0,0 UV-I 0 W/m 5,4 C 4,9 C 17,7 km/h (3 Bft) 95,83 %
22.10.2017 23:42 8,3 C 11,1 C 82 % 1015,4 hPa 0,0 l/m 10,6 km/h (2 Bft) S-SW 213 0 min 0,000 mm 0,0 UV-I 0 W/m 5,4 C 5,4 C 16,1 km/h (3 Bft) 97,37 %
22.10.2017 23:44 8,3 C 11,1 C 82 % 1015,4 hPa 0,0 l/m 9,5 km/h (2 Bft) W-SW 246 0 min 0,000 mm 0,0 UV-I 0 W/m 5,4 C 6,0 C 17,7 km/h (3 Bft) 96,23 %
22.10.2017 23:46 8,2 C 11,1 C 82 % 1015,4 hPa 0,0 l/m 10,9 km/h (2 Bft) SW 230 0 min 0,000 mm 0,0 UV-I 0 W/m 5,3 C 5,1 C 19,3 km/h (3 Bft) 97,56 %
22.10.2017 23:48 8,2 C 11,1 C 82 % 1015,4 hPa 0,0 l/m 13,4 km/h (3 Bft) W-SW 254 0 min 0,000 mm 0,0 UV-I 0 W/m 5,3 C 3,7 C 19,3 km/h (3 Bft) 97,73 %
22.10.2017 23:50 8,2 C 11,1 C 82 % 1015,5 hPa 0,0 l/m 12,2 km/h (2 Bft) W-SW 246 0 min 0,000 mm 0,0 UV-I 0 W/m 5,3 C 4,3 C 20,9 km/h (4 Bft) 96,23 %
22.10.2017 23:52 8,2 C 11,1 C 83 % 1015,5 hPa 0,0 l/m 12,2 km/h (2 Bft) W-SW 252 0 min 0,000 mm 0,0 UV-I 0 W/m 5,5 C 4,3 C 17,7 km/h (3 Bft) 100,00 %
22.10.2017 23:54 8,2 C 11,1 C 83 % 1015,5 hPa 0,0 l/m 14,2 km/h (3 Bft) W-SW 243 0 min 0,000 mm 0,0 UV-I 0 W/m 5,5 C 3,3 C 24,1 km/h (4 Bft) 97,06 %
22.10.2017 23:56 8,2 C 11,1 C 83 % 1015,5 hPa 0,0 l/m 12,2 km/h (2 Bft) W-SW 255 0 min 0,000 mm 0,0 UV-I 0 W/m 5,5 C 4,3 C 20,9 km/h (4 Bft) 97,37 %
22.10.2017 23:58 8,2 C 11,1 C 83 % 1015,5 hPa 0,0 l/m 12,7 km/h (3 Bft) W-SW 240 0 min 0,000 mm 0,0 UV-I 0 W/m 5,5 C 4,1 C 19,3 km/h (3 Bft) 95,12 %
_ Min-Zeit 23:46 07:46 16:14 01:28 - 01:42 - - - - - - 23:14 04:32 01:42 00:02
Minimum _ 8,2 C 11,1 C 75 % 1014,3 hPa - 0,0 km/h (0 Bft) - - - - - - 5,2 C 1,7 C 0,0 km/h (0 Bft) 10,53 %
_ Max-Zeit 14:22 00:00 03:54 08:08 04:12 04:32 - - 00:00 14:00 12:54 12:02 04:02 12:28 04:32 00:20
Maximum _ 11,6 C 11,7 C 99 % 1018,4 hPa 0,2 l/m 30,2 km/h
W-SW (5 Bft)
- - 0 min 0,102 mm 0,9 UV-I 197 W/m 11,0 C 10,7 C 48,3 km/h
W-SW (6 Bft)
100,00 %
Durchschnitt _ 10,1 C 11,5 C 87 % 1016,1 hPa #2,4 l/m 10,8 km/h (2 Bft) SW - #0 min. #0,864 mm 0,6 UV-I 94 W/m 8,0 C 7,3 C 16,6 km/h (3 Bft) 97,89 %